<?xml version="1.0" encoding="UTF-8"?>
<gpx creator="Garmin Connect" version="1.1"
  xsi:schemaLocation="http://www.topografix.com/GPX/1/1 http://www.topografix.com/GPX/11.xsd"
  xmlns:ns3="http://www.garmin.com/xmlschemas/TrackPointExtension/v1"
  xmlns="http://www.topografix.com/GPX/1/1"
  xmlns:xsi="http://www.w3.org/2001/XMLSchema-instance" xmlns:ns2="http://www.garmin.com/xmlschemas/GpxExtensions/v3">
  <metadata>
    <name>Herregårdstur_3A-126 - Turebyholm,Bregentved,Gisselfeld,VillaGalina,P2,Lystrup,Jomfruens Egede,Vemmetofte kloster,Juelinge,Vallø</name>
    <link href="connect.garmin.com">
      <text>Garmin Connect</text>
    </link>
    <time>2020-04-18T19:07:34.000Z</time>
  </metadata>
  <trk>
    <name>Herregårdstur_3A-126 - Turebyholm,Bregentved,Gisselfeld,VillaGalina,P2,Lystrup,Jomfruens Egede,Vemmetofte kloster,Juelinge,Vallø</name>
    <trkseg>
      <trkpt lat="55.53632997907698" lon="12.204939918592572">
        <ele>10.0</ele>
        <time>2020-04-18T19:07:34.000Z</time>
      </trkpt>
      <trkpt lat="55.53662996739149" lon="12.202389976009727">
        <ele>10.0</ele>
        <time>2020-04-18T19:07:34.024Z</time>
      </trkpt>
      <trkpt lat="55.53664991632104" lon="12.202129969373345">
        <ele>10.0</ele>
        <time>2020-04-18T19:07:34.050Z</time>
      </trkpt>
      <trkpt lat="55.53657992742956" lon="12.20198999159038">
        <ele>10.0</ele>
        <time>2020-04-18T19:07:34.078Z</time>
      </trkpt>
      <trkpt lat="55.536399967968464" lon="12.201799973845482">
        <ele>9.0</ele>
        <time>2020-04-18T19:07:34.109Z</time>
      </trkpt>
      <trkpt lat="55.5363099463284" lon="12.201749933883548">
        <ele>9.0</ele>
        <time>2020-04-18T19:07:34.142Z</time>
      </trkpt>
      <trkpt lat="55.53624993190169" lon="12.201619930565357">
        <ele>9.0</ele>
        <time>2020-04-18T19:07:34.176Z</time>
      </trkpt>
      <trkpt lat="55.536099979653955" lon="12.20140996389091">
        <ele>9.0</ele>
        <time>2020-04-18T19:07:34.213Z</time>
      </trkpt>
      <trkpt lat="55.53604993969202" lon="12.2012999933213">
        <ele>8.0</ele>
        <time>2020-04-18T19:07:34.252Z</time>
      </trkpt>
      <trkpt lat="55.535969976335764" lon="12.200919957831502">
        <ele>8.0</ele>
        <time>2020-04-18T19:07:34.294Z</time>
      </trkpt>
      <trkpt lat="55.535949943587184" lon="12.20054998062551">
        <ele>8.0</ele>
        <time>2020-04-18T19:07:34.340Z</time>
      </trkpt>
      <trkpt lat="55.53602999076247" lon="12.200089981779456">
        <ele>8.0</ele>
        <time>2020-04-18T19:07:34.390Z</time>
      </trkpt>
      <trkpt lat="55.53616996854544" lon="12.19910996966064">
        <ele>9.0</ele>
        <time>2020-04-18T19:07:34.449Z</time>
      </trkpt>
      <trkpt lat="55.536229982972145" lon="12.198419971391559">
        <ele>9.0</ele>
        <time>2020-04-18T19:07:34.514Z</time>
      </trkpt>
      <trkpt lat="55.53623995743692" lon="12.19768999144435">
        <ele>10.0</ele>
        <time>2020-04-18T19:07:34.586Z</time>
      </trkpt>
      <trkpt lat="55.53619997575879" lon="12.196819949895144">
        <ele>11.0</ele>
        <time>2020-04-18T19:07:34.666Z</time>
      </trkpt>
      <trkpt lat="55.536059997975826" lon="12.193909920752048">
        <ele>12.0</ele>
        <time>2020-04-18T19:07:34.773Z</time>
      </trkpt>
      <trkpt lat="55.53597995080054" lon="12.191799944266677">
        <ele>13.0</ele>
        <time>2020-04-18T19:07:34.899Z</time>
      </trkpt>
      <trkpt lat="55.53595991805196" lon="12.191229974851012">
        <ele>15.0</ele>
        <time>2020-04-18T19:07:35.030Z</time>
      </trkpt>
      <trkpt lat="55.536059997975826" lon="12.189819971099496">
        <ele>16.0</ele>
        <time>2020-04-18T19:07:35.174Z</time>
      </trkpt>
      <trkpt lat="55.53613996133208" lon="12.188559919595718">
        <ele>17.0</ele>
        <time>2020-04-18T19:07:35.329Z</time>
      </trkpt>
      <trkpt lat="55.53613996133208" lon="12.188059939071536">
        <ele>18.0</ele>
        <time>2020-04-18T19:07:35.489Z</time>
      </trkpt>
      <trkpt lat="55.53609101101756" lon="12.185603454709053">
        <ele>19.0</ele>
        <time>2020-04-18T19:07:35.671Z</time>
      </trkpt>
      <trkpt lat="55.53608992137015" lon="12.185549978166819">
        <ele>19.0</ele>
        <time>2020-04-18T19:07:35.854Z</time>
      </trkpt>
      <trkpt lat="55.536099979653955" lon="12.185189975425601">
        <ele>20.0</ele>
        <time>2020-04-18T19:07:36.040Z</time>
      </trkpt>
      <trkpt lat="55.53614993579686" lon="12.184209963306785">
        <ele>20.0</ele>
        <time>2020-04-18T19:07:36.235Z</time>
      </trkpt>
      <trkpt lat="55.53621992468834" lon="12.183439917862415">
        <ele>20.0</ele>
        <time>2020-04-18T19:07:36.437Z</time>
      </trkpt>
      <trkpt lat="55.53624993190169" lon="12.183209918439388">
        <ele>20.0</ele>
        <time>2020-04-18T19:07:36.641Z</time>
      </trkpt>
      <trkpt lat="55.53627993911505" lon="12.183089973405004">
        <ele>20.0</ele>
        <time>2020-04-18T19:07:36.847Z</time>
      </trkpt>
      <trkpt lat="55.53629997186363" lon="12.182909930124879">
        <ele>20.0</ele>
        <time>2020-04-18T19:07:37.054Z</time>
      </trkpt>
      <trkpt lat="55.53628999739885" lon="12.182819992303848">
        <ele>20.0</ele>
        <time>2020-04-18T19:07:37.262Z</time>
      </trkpt>
      <trkpt lat="55.53623995743692" lon="12.182649923488498">
        <ele>20.0</ele>
        <time>2020-04-18T19:07:37.472Z</time>
      </trkpt>
      <trkpt lat="55.53613996133208" lon="12.182479938492179">
        <ele>19.0</ele>
        <time>2020-04-18T19:07:37.684Z</time>
      </trkpt>
      <trkpt lat="55.53561994805932" lon="12.181289959698915">
        <ele>19.0</ele>
        <time>2020-04-18T19:07:37.910Z</time>
      </trkpt>
      <trkpt lat="55.53500999696553" lon="12.179809967055917">
        <ele>18.0</ele>
        <time>2020-04-18T19:07:38.152Z</time>
      </trkpt>
      <trkpt lat="55.53481997922063" lon="12.17946999706328">
        <ele>18.0</ele>
        <time>2020-04-18T19:07:38.399Z</time>
      </trkpt>
      <trkpt lat="55.534469950944185" lon="12.178989965468645">
        <ele>18.0</ele>
        <time>2020-04-18T19:07:38.653Z</time>
      </trkpt>
      <trkpt lat="55.53425998426974" lon="12.178529966622591">
        <ele>17.0</ele>
        <time>2020-04-18T19:07:38.912Z</time>
      </trkpt>
      <trkpt lat="55.534229977056384" lon="12.178389988839626">
        <ele>17.0</ele>
        <time>2020-04-18T19:07:39.172Z</time>
      </trkpt>
      <trkpt lat="55.53399997763336" lon="12.17768993228674">
        <ele>17.0</ele>
        <time>2020-04-18T19:07:39.440Z</time>
      </trkpt>
      <trkpt lat="55.53385999985039" lon="12.177169919013977">
        <ele>17.0</ele>
        <time>2020-04-18T19:07:39.713Z</time>
      </trkpt>
      <trkpt lat="55.53370996378362" lon="12.176799941807985">
        <ele>18.0</ele>
        <time>2020-04-18T19:07:39.990Z</time>
      </trkpt>
      <trkpt lat="55.53343998268247" lon="12.176069961860776">
        <ele>18.0</ele>
        <time>2020-04-18T19:07:40.275Z</time>
      </trkpt>
      <trkpt lat="55.532859954982996" lon="12.174699939787388">
        <ele>18.0</ele>
        <time>2020-04-18T19:07:40.576Z</time>
      </trkpt>
      <trkpt lat="55.53236994892359" lon="12.173489928245544">
        <ele>18.0</ele>
        <time>2020-04-18T19:07:40.890Z</time>
      </trkpt>
      <trkpt lat="55.531589929014444" lon="12.171599976718426">
        <ele>19.0</ele>
        <time>2020-04-18T19:07:41.225Z</time>
      </trkpt>
      <trkpt lat="55.53123998455703" lon="12.170849964022636">
        <ele>19.0</ele>
        <time>2020-04-18T19:07:41.569Z</time>
      </trkpt>
      <trkpt lat="55.53082994185388" lon="12.170239929109812">
        <ele>19.0</ele>
        <time>2020-04-18T19:07:41.922Z</time>
      </trkpt>
      <trkpt lat="55.53034999407828" lon="12.16975998133421">
        <ele>19.0</ele>
        <time>2020-04-18T19:07:42.284Z</time>
      </trkpt>
      <trkpt lat="55.52983995527029" lon="12.16928992420435">
        <ele>19.0</ele>
        <time>2020-04-18T19:07:42.655Z</time>
      </trkpt>
      <trkpt lat="55.528799928724766" lon="12.168299937620759">
        <ele>19.0</ele>
        <time>2020-04-18T19:07:43.045Z</time>
      </trkpt>
      <trkpt lat="55.52839994430542" lon="12.16797991655767">
        <ele>19.0</ele>
        <time>2020-04-18T19:07:43.442Z</time>
      </trkpt>
      <trkpt lat="55.52818997763097" lon="12.167819989845157">
        <ele>19.0</ele>
        <time>2020-04-18T19:07:43.843Z</time>
      </trkpt>
      <trkpt lat="55.527979927137494" lon="12.16769996099174">
        <ele>20.0</ele>
        <time>2020-04-18T19:07:44.247Z</time>
      </trkpt>
      <trkpt lat="55.52677997387946" lon="12.167069977149367">
        <ele>20.0</ele>
        <time>2020-04-18T19:07:44.671Z</time>
      </trkpt>
      <trkpt lat="55.52624998614192" lon="12.166769988834858">
        <ele>20.0</ele>
        <time>2020-04-18T19:07:45.104Z</time>
      </trkpt>
      <trkpt lat="55.52599995397031" lon="12.166529931128025">
        <ele>20.0</ele>
        <time>2020-04-18T19:07:45.542Z</time>
      </trkpt>
      <trkpt lat="55.525769954547286" lon="12.16614997945726">
        <ele>21.0</ele>
        <time>2020-04-18T19:07:45.985Z</time>
      </trkpt>
      <trkpt lat="55.5254499334842" lon="12.16569995507598">
        <ele>21.0</ele>
        <time>2020-04-18T19:07:46.434Z</time>
      </trkpt>
      <trkpt lat="55.52516997791827" lon="12.165429973974824">
        <ele>22.0</ele>
        <time>2020-04-18T19:07:46.888Z</time>
      </trkpt>
      <trkpt lat="55.524969985708594" lon="12.16528999619186">
        <ele>22.0</ele>
        <time>2020-04-18T19:07:47.346Z</time>
      </trkpt>
      <trkpt lat="55.52424998022616" lon="12.164799990132451">
        <ele>23.0</ele>
        <time>2020-04-18T19:07:47.816Z</time>
      </trkpt>
      <trkpt lat="55.52412995137274" lon="12.164699994027615">
        <ele>24.0</ele>
        <time>2020-04-18T19:07:48.288Z</time>
      </trkpt>
      <trkpt lat="55.52385997027159" lon="12.164369998499751">
        <ele>24.0</ele>
        <time>2020-04-18T19:07:48.766Z</time>
      </trkpt>
      <trkpt lat="55.523599963635206" lon="12.163929948583245">
        <ele>25.0</ele>
        <time>2020-04-18T19:07:49.249Z</time>
      </trkpt>
      <trkpt lat="55.52255993708968" lon="12.161849979311228">
        <ele>25.0</ele>
        <time>2020-04-18T19:07:49.758Z</time>
      </trkpt>
      <trkpt lat="55.52208996377885" lon="12.160969963297248">
        <ele>25.0</ele>
        <time>2020-04-18T19:07:50.278Z</time>
      </trkpt>
      <trkpt lat="55.52177991718054" lon="12.160469982773066">
        <ele>25.0</ele>
        <time>2020-04-18T19:07:50.804Z</time>
      </trkpt>
      <trkpt lat="55.52147992886603" lon="12.160009983927011">
        <ele>25.0</ele>
        <time>2020-04-18T19:07:51.337Z</time>
      </trkpt>
      <trkpt lat="55.52078993059695" lon="12.15905997902155">
        <ele>25.0</ele>
        <time>2020-04-18T19:07:51.884Z</time>
      </trkpt>
      <trkpt lat="55.5182399880141" lon="12.155659943819046">
        <ele>24.0</ele>
        <time>2020-04-18T19:07:52.482Z</time>
      </trkpt>
      <trkpt lat="55.51777998916805" lon="12.155229952186346">
        <ele>23.0</ele>
        <time>2020-04-18T19:07:53.088Z</time>
      </trkpt>
      <trkpt lat="55.517539931461215" lon="12.155079999938607">
        <ele>22.0</ele>
        <time>2020-04-18T19:07:53.698Z</time>
      </trkpt>
      <trkpt lat="55.51734999753535" lon="12.155009927228093">
        <ele>21.0</ele>
        <time>2020-04-18T19:07:54.312Z</time>
      </trkpt>
      <trkpt lat="55.51705998368561" lon="12.154949996620417">
        <ele>20.0</ele>
        <time>2020-04-18T19:07:54.930Z</time>
      </trkpt>
      <trkpt lat="55.51683995872736" lon="12.154979920014739">
        <ele>19.0</ele>
        <time>2020-04-18T19:07:55.552Z</time>
      </trkpt>
      <trkpt lat="55.51668992266059" lon="12.154969945549965">
        <ele>18.0</ele>
        <time>2020-04-18T19:07:56.176Z</time>
      </trkpt>
      <trkpt lat="55.51633997820318" lon="12.155019985511899">
        <ele>18.0</ele>
        <time>2020-04-18T19:07:56.806Z</time>
      </trkpt>
      <trkpt lat="55.51608994603157" lon="12.15381994843483">
        <ele>17.0</ele>
        <time>2020-04-18T19:07:57.447Z</time>
      </trkpt>
      <trkpt lat="55.51591996103525" lon="12.153099942952394">
        <ele>17.0</ele>
        <time>2020-04-18T19:07:58.096Z</time>
      </trkpt>
      <trkpt lat="55.51515997387469" lon="12.150399964302778">
        <ele>16.0</ele>
        <time>2020-04-18T19:07:58.772Z</time>
      </trkpt>
      <trkpt lat="55.51490994170308" lon="12.149439984932542">
        <ele>16.0</ele>
        <time>2020-04-18T19:07:59.458Z</time>
      </trkpt>
      <trkpt lat="55.51486996002495" lon="12.149009993299842">
        <ele>16.0</ele>
        <time>2020-04-18T19:08:00.148Z</time>
      </trkpt>
      <trkpt lat="55.515069952234626" lon="12.146799936890602">
        <ele>16.0</ele>
        <time>2020-04-18T19:08:00.858Z</time>
      </trkpt>
      <trkpt lat="55.51518998108804" lon="12.145359925925732">
        <ele>16.0</ele>
        <time>2020-04-18T19:08:01.581Z</time>
      </trkpt>
      <trkpt lat="55.51515997387469" lon="12.145079970359802">
        <ele>16.0</ele>
        <time>2020-04-18T19:08:02.307Z</time>
      </trkpt>
      <trkpt lat="55.51505997776985" lon="12.144969999790192">
        <ele>16.0</ele>
        <time>2020-04-18T19:08:03.035Z</time>
      </trkpt>
      <trkpt lat="55.513709988445044" lon="12.144389972090721">
        <ele>16.0</ele>
        <time>2020-04-18T19:08:03.785Z</time>
      </trkpt>
      <trkpt lat="55.51331997849047" lon="12.14425996877253">
        <ele>16.0</ele>
        <time>2020-04-18T19:08:04.541Z</time>
      </trkpt>
      <trkpt lat="55.51322995685041" lon="12.144249994307756">
        <ele>17.0</ele>
        <time>2020-04-18T19:08:05.299Z</time>
      </trkpt>
      <trkpt lat="55.51202991977334" lon="12.144159972667694">
        <ele>17.0</ele>
        <time>2020-04-18T19:08:06.076Z</time>
      </trkpt>
      <trkpt lat="55.51178994588554" lon="12.144199954345822">
        <ele>17.0</ele>
        <time>2020-04-18T19:08:06.857Z</time>
      </trkpt>
      <trkpt lat="55.511779971420765" lon="12.14399996213615">
        <ele>18.0</ele>
        <time>2020-04-18T19:08:07.640Z</time>
      </trkpt>
      <trkpt lat="55.51172993145883" lon="12.143599977716804">
        <ele>18.0</ele>
        <time>2020-04-18T19:08:08.426Z</time>
      </trkpt>
      <trkpt lat="55.51167997531593" lon="12.143239974975586">
        <ele>18.0</ele>
        <time>2020-04-18T19:08:09.216Z</time>
      </trkpt>
      <trkpt lat="55.51165994256735" lon="12.14283999055624">
        <ele>19.0</ele>
        <time>2020-04-18T19:08:10.009Z</time>
      </trkpt>
      <trkpt lat="55.51170000806451" lon="12.142413100227714">
        <ele>19.0</ele>
        <time>2020-04-18T19:08:10.806Z</time>
      </trkpt>
      <trkpt lat="55.51171995699406" lon="12.142199948430061">
        <ele>19.0</ele>
        <time>2020-04-18T19:08:11.605Z</time>
      </trkpt>
      <trkpt lat="55.51189991645515" lon="12.14077997021377">
        <ele>20.0</ele>
        <time>2020-04-18T19:08:12.418Z</time>
      </trkpt>
      <trkpt lat="55.5120699852705" lon="12.139649922028184">
        <ele>20.0</ele>
        <time>2020-04-18T19:08:13.241Z</time>
      </trkpt>
      <trkpt lat="55.51227995194495" lon="12.137989969924092">
        <ele>20.0</ele>
        <time>2020-04-18T19:08:14.080Z</time>
      </trkpt>
      <trkpt lat="55.512469969689846" lon="12.136559933423996">
        <ele>21.0</ele>
        <time>2020-04-18T19:08:14.932Z</time>
      </trkpt>
      <trkpt lat="55.51247994415462" lon="12.13613991625607">
        <ele>21.0</ele>
        <time>2020-04-18T19:08:15.788Z</time>
      </trkpt>
      <trkpt lat="55.51242998801172" lon="12.134839966893196">
        <ele>21.0</ele>
        <time>2020-04-18T19:08:16.656Z</time>
      </trkpt>
      <trkpt lat="55.512399980798364" lon="12.13411996141076">
        <ele>21.0</ele>
        <time>2020-04-18T19:08:17.530Z</time>
      </trkpt>
      <trkpt lat="55.51234994083643" lon="12.133949976414442">
        <ele>21.0</ele>
        <time>2020-04-18T19:08:18.406Z</time>
      </trkpt>
      <trkpt lat="55.51225991919637" lon="12.133819973096251">
        <ele>21.0</ele>
        <time>2020-04-18T19:08:19.284Z</time>
      </trkpt>
      <trkpt lat="55.512099992483854" lon="12.133699944242835">
        <ele>21.0</ele>
        <time>2020-04-18T19:08:20.165Z</time>
      </trkpt>
      <trkpt lat="55.51181995309889" lon="12.133529959246516">
        <ele>21.0</ele>
        <time>2020-04-18T19:08:21.050Z</time>
      </trkpt>
      <trkpt lat="55.51174996420741" lon="12.133759958669543">
        <ele>21.0</ele>
        <time>2020-04-18T19:08:21.938Z</time>
      </trkpt>
      <trkpt lat="55.51161996088922" lon="12.133909994736314">
        <ele>21.0</ele>
        <time>2020-04-18T19:08:22.828Z</time>
      </trkpt>
      <trkpt lat="55.51152993924916" lon="12.133949976414442">
        <ele>21.0</ele>
        <time>2020-04-18T19:08:23.720Z</time>
      </trkpt>
      <trkpt lat="55.51135995425284" lon="12.13396992534399">
        <ele>21.0</ele>
        <time>2020-04-18T19:08:24.614Z</time>
      </trkpt>
      <trkpt lat="55.509759932756424" lon="12.134059946984053">
        <ele>21.0</ele>
        <time>2020-04-18T19:08:25.534Z</time>
      </trkpt>
      <trkpt lat="55.50950998440385" lon="12.134149968624115">
        <ele>21.0</ele>
        <time>2020-04-18T19:08:26.458Z</time>
      </trkpt>
      <trkpt lat="55.50912994891405" lon="12.134429924190044">
        <ele>21.0</ele>
        <time>2020-04-18T19:08:27.389Z</time>
      </trkpt>
      <trkpt lat="55.50907999277115" lon="12.13411996141076">
        <ele>21.0</ele>
        <time>2020-04-18T19:08:28.323Z</time>
      </trkpt>
      <trkpt lat="55.508919982239604" lon="12.13355996645987">
        <ele>21.0</ele>
        <time>2020-04-18T19:08:29.262Z</time>
      </trkpt>
      <trkpt lat="55.50877992063761" lon="12.133169956505299">
        <ele>21.0</ele>
        <time>2020-04-18T19:08:30.206Z</time>
      </trkpt>
      <trkpt lat="55.508539946749806" lon="12.13269998319447">
        <ele>21.0</ele>
        <time>2020-04-18T19:08:31.155Z</time>
      </trkpt>
      <trkpt lat="55.5078599229455" lon="12.131809992715716">
        <ele>22.0</ele>
        <time>2020-04-18T19:08:32.118Z</time>
      </trkpt>
      <trkpt lat="55.5069499835372" lon="12.130639962852001">
        <ele>22.0</ele>
        <time>2020-04-18T19:08:33.099Z</time>
      </trkpt>
      <trkpt lat="55.50605999305844" lon="12.129489965736866">
        <ele>23.0</ele>
        <time>2020-04-18T19:08:34.098Z</time>
      </trkpt>
      <trkpt lat="55.505679957568645" lon="12.12917991913855">
        <ele>23.0</ele>
        <time>2020-04-18T19:08:35.103Z</time>
      </trkpt>
      <trkpt lat="55.50502994097769" lon="12.128799967467785">
        <ele>25.0</ele>
        <time>2020-04-18T19:08:36.119Z</time>
      </trkpt>
      <trkpt lat="55.50459994934499" lon="12.128579942509532">
        <ele>26.0</ele>
        <time>2020-04-18T19:08:37.143Z</time>
      </trkpt>
      <trkpt lat="55.502669932320714" lon="12.127599930390716">
        <ele>28.0</ele>
        <time>2020-04-18T19:08:38.199Z</time>
      </trkpt>
      <trkpt lat="55.50207993015647" lon="12.127269934862852">
        <ele>29.0</ele>
        <time>2020-04-18T19:08:39.265Z</time>
      </trkpt>
      <trkpt lat="55.501939952373505" lon="12.127159964293242">
        <ele>31.0</ele>
        <time>2020-04-18T19:08:40.333Z</time>
      </trkpt>
      <trkpt lat="55.50068995915353" lon="12.12601994164288">
        <ele>33.0</ele>
        <time>2020-04-18T19:08:41.424Z</time>
      </trkpt>
      <trkpt lat="55.49971992149949" lon="12.125119976699352">
        <ele>35.0</ele>
        <time>2020-04-18T19:08:42.532Z</time>
      </trkpt>
      <trkpt lat="55.49831997603178" lon="12.123789936304092">
        <ele>37.0</ele>
        <time>2020-04-18T19:08:43.666Z</time>
      </trkpt>
      <trkpt lat="55.49811998382211" lon="12.123669991269708">
        <ele>39.0</ele>
        <time>2020-04-18T19:08:44.803Z</time>
      </trkpt>
      <trkpt lat="55.49798998050392" lon="12.123669991269708">
        <ele>40.0</ele>
        <time>2020-04-18T19:08:45.942Z</time>
      </trkpt>
      <trkpt lat="55.497789988294244" lon="12.12371994741261">
        <ele>41.0</ele>
        <time>2020-04-18T19:08:47.085Z</time>
      </trkpt>
      <trkpt lat="55.49750994890928" lon="12.123729921877384">
        <ele>42.0</ele>
        <time>2020-04-18T19:08:48.232Z</time>
      </trkpt>
      <trkpt lat="55.49678994342685" lon="12.123679965734482">
        <ele>43.0</ele>
        <time>2020-04-18T19:08:49.391Z</time>
      </trkpt>
      <trkpt lat="55.4959599673748" lon="12.123599918559194">
        <ele>43.0</ele>
        <time>2020-04-18T19:08:50.563Z</time>
      </trkpt>
      <trkpt lat="55.49574991688132" lon="12.123529929667711">
        <ele>43.0</ele>
        <time>2020-04-18T19:08:51.738Z</time>
      </trkpt>
      <trkpt lat="55.495519917458296" lon="12.12339992634952">
        <ele>43.0</ele>
        <time>2020-04-18T19:08:52.917Z</time>
      </trkpt>
      <trkpt lat="55.495149940252304" lon="12.123129945248365">
        <ele>42.0</ele>
        <time>2020-04-18T19:08:54.103Z</time>
      </trkpt>
      <trkpt lat="55.4949099663645" lon="12.122949985787272">
        <ele>41.0</ele>
        <time>2020-04-18T19:08:55.293Z</time>
      </trkpt>
      <trkpt lat="55.49470997415483" lon="12.122699953615665">
        <ele>40.0</ele>
        <time>2020-04-18T19:08:56.487Z</time>
      </trkpt>
      <trkpt lat="55.49425994977355" lon="12.122079944238067">
        <ele>39.0</ele>
        <time>2020-04-18T19:08:57.690Z</time>
      </trkpt>
      <trkpt lat="55.49370288848877" lon="12.121268911287189">
        <ele>37.0</ele>
        <time>2020-04-18T19:08:58.905Z</time>
      </trkpt>
      <trkpt lat="55.49357992596924" lon="12.121089957654476">
        <ele>36.0</ele>
        <time>2020-04-18T19:09:00.122Z</time>
      </trkpt>
      <trkpt lat="55.4921299405396" lon="12.118959948420525">
        <ele>34.0</ele>
        <time>2020-04-18T19:09:01.369Z</time>
      </trkpt>
      <trkpt lat="55.49101992510259" lon="12.117299996316433">
        <ele>32.0</ele>
        <time>2020-04-18T19:09:02.640Z</time>
      </trkpt>
      <trkpt lat="55.49079998396337" lon="12.117169992998242">
        <ele>31.0</ele>
        <time>2020-04-18T19:09:03.914Z</time>
      </trkpt>
      <trkpt lat="55.489499950781465" lon="12.116969916969538">
        <ele>29.0</ele>
        <time>2020-04-18T19:09:05.209Z</time>
      </trkpt>
      <trkpt lat="55.48879997804761" lon="12.116809990257025">
        <ele>28.0</ele>
        <time>2020-04-18T19:09:06.516Z</time>
      </trkpt>
      <trkpt lat="55.487629948183894" lon="12.116599939763546">
        <ele>26.0</ele>
        <time>2020-04-18T19:09:07.841Z</time>
      </trkpt>
      <trkpt lat="55.48752995207906" lon="12.116569932550192">
        <ele>25.0</ele>
        <time>2020-04-18T19:09:09.168Z</time>
      </trkpt>
      <trkpt lat="55.485329953953624" lon="12.115349946543574">
        <ele>24.0</ele>
        <time>2020-04-18T19:09:10.532Z</time>
      </trkpt>
      <trkpt lat="55.482519920915365" lon="12.113819997757673">
        <ele>22.0</ele>
        <time>2020-04-18T19:09:11.943Z</time>
      </trkpt>
      <trkpt lat="55.48201994039118" lon="12.113539958372712">
        <ele>21.0</ele>
        <time>2020-04-18T19:09:13.363Z</time>
      </trkpt>
      <trkpt lat="55.481399931013584" lon="12.113249944522977">
        <ele>20.0</ele>
        <time>2020-04-18T19:09:14.793Z</time>
      </trkpt>
      <trkpt lat="55.48078997991979" lon="12.11301994509995">
        <ele>20.0</ele>
        <time>2020-04-18T19:09:16.233Z</time>
      </trkpt>
      <trkpt lat="55.480109956115484" lon="12.112859934568405">
        <ele>19.0</ele>
        <time>2020-04-18T19:09:17.684Z</time>
      </trkpt>
      <trkpt lat="55.47981994226575" lon="12.112819952890277">
        <ele>18.0</ele>
        <time>2020-04-18T19:09:19.140Z</time>
      </trkpt>
      <trkpt lat="55.47942993231118" lon="12.112769996747375">
        <ele>18.0</ele>
        <time>2020-04-18T19:09:20.602Z</time>
      </trkpt>
      <trkpt lat="55.479099936783314" lon="12.112749963998795">
        <ele>17.0</ele>
        <time>2020-04-18T19:09:22.069Z</time>
      </trkpt>
      <trkpt lat="55.47820994630456" lon="12.112779971212149">
        <ele>17.0</ele>
        <time>2020-04-18T19:09:23.550Z</time>
      </trkpt>
      <trkpt lat="55.47705223783851" lon="12.11293545551598">
        <ele>17.0</ele>
        <time>2020-04-18T19:09:25.050Z</time>
      </trkpt>
      <trkpt lat="55.476869931444526" lon="12.112959930673242">
        <ele>17.0</ele>
        <time>2020-04-18T19:09:26.553Z</time>
      </trkpt>
      <trkpt lat="55.475769974291325" lon="12.113119941204786">
        <ele>17.0</ele>
        <time>2020-04-18T19:09:28.074Z</time>
      </trkpt>
      <trkpt lat="55.47556998208165" lon="12.113129999488592">
        <ele>17.0</ele>
        <time>2020-04-18T19:09:29.598Z</time>
      </trkpt>
      <trkpt lat="55.47536998987198" lon="12.113119941204786">
        <ele>17.0</ele>
        <time>2020-04-18T19:09:31.125Z</time>
      </trkpt>
      <trkpt lat="55.47523998655379" lon="12.113089933991432">
        <ele>17.0</ele>
        <time>2020-04-18T19:09:32.654Z</time>
      </trkpt>
      <trkpt lat="55.47504996880889" lon="12.112999996170402">
        <ele>17.0</ele>
        <time>2020-04-18T19:09:34.186Z</time>
      </trkpt>
      <trkpt lat="55.47489993274212" lon="12.112839985638857">
        <ele>17.0</ele>
        <time>2020-04-18T19:09:35.721Z</time>
      </trkpt>
      <trkpt lat="55.47461997717619" lon="12.113609947264194">
        <ele>17.0</ele>
        <time>2020-04-18T19:09:37.264Z</time>
      </trkpt>
      <trkpt lat="55.47433993779123" lon="12.114249989390373">
        <ele>17.0</ele>
        <time>2020-04-18T19:09:38.815Z</time>
      </trkpt>
      <trkpt lat="55.473819924518466" lon="12.113549932837486">
        <ele>16.0</ele>
        <time>2020-04-18T19:09:40.376Z</time>
      </trkpt>
      <trkpt lat="55.47364993952215" lon="12.113389922305942">
        <ele>16.0</ele>
        <time>2020-04-18T19:09:41.940Z</time>
      </trkpt>
      <trkpt lat="55.47349998727441" lon="12.113289926201105">
        <ele>16.0</ele>
        <time>2020-04-18T19:09:43.507Z</time>
      </trkpt>
      <trkpt lat="55.473319943994284" lon="12.113219937309623">
        <ele>15.0</ele>
        <time>2020-04-18T19:09:45.077Z</time>
      </trkpt>
      <trkpt lat="55.47248996794224" lon="12.113159922882915">
        <ele>15.0</ele>
        <time>2020-04-18T19:09:46.660Z</time>
      </trkpt>
      <trkpt lat="55.47101994976401" lon="12.113009970635176">
        <ele>15.0</ele>
        <time>2020-04-18T19:09:48.267Z</time>
      </trkpt>
      <trkpt lat="55.470659947022796" lon="12.112939981743693">
        <ele>15.0</ele>
        <time>2020-04-18T19:09:49.880Z</time>
      </trkpt>
      <trkpt lat="55.470419973134995" lon="12.112829927355051">
        <ele>14.0</ele>
        <time>2020-04-18T19:09:51.497Z</time>
      </trkpt>
      <trkpt lat="55.47023992985487" lon="12.112709982320666">
        <ele>14.0</ele>
        <time>2020-04-18T19:09:53.117Z</time>
      </trkpt>
      <trkpt lat="55.46962997876108" lon="12.112119980156422">
        <ele>13.0</ele>
        <time>2020-04-18T19:09:54.748Z</time>
      </trkpt>
      <trkpt lat="55.469519924372435" lon="12.111929962411523">
        <ele>13.0</ele>
        <time>2020-04-18T19:09:56.381Z</time>
      </trkpt>
      <trkpt lat="55.469479942694306" lon="12.11172997020185">
        <ele>13.0</ele>
        <time>2020-04-18T19:09:58.016Z</time>
      </trkpt>
      <trkpt lat="55.46948991715908" lon="12.111519919708371">
        <ele>13.0</ele>
        <time>2020-04-18T19:09:59.653Z</time>
      </trkpt>
      <trkpt lat="55.469559989869595" lon="12.111209956929088">
        <ele>13.0</ele>
        <time>2020-04-18T19:10:01.293Z</time>
      </trkpt>
      <trkpt lat="55.46954993158579" lon="12.111109960824251">
        <ele>13.0</ele>
        <time>2020-04-18T19:10:02.934Z</time>
      </trkpt>
      <trkpt lat="55.46952998265624" lon="12.111039971932769">
        <ele>13.0</ele>
        <time>2020-04-18T19:10:04.576Z</time>
      </trkpt>
      <trkpt lat="55.46946996822953" lon="12.110969983041286">
        <ele>13.0</ele>
        <time>2020-04-18T19:10:06.219Z</time>
      </trkpt>
      <trkpt lat="55.46876999549568" lon="12.110459944233298">
        <ele>14.0</ele>
        <time>2020-04-18T19:10:07.874Z</time>
      </trkpt>
      <trkpt lat="55.46795996837318" lon="12.109899949282408">
        <ele>14.0</ele>
        <time>2020-04-18T19:10:09.543Z</time>
      </trkpt>
      <trkpt lat="55.46748999506235" lon="12.109639942646027">
        <ele>15.0</ele>
        <time>2020-04-18T19:10:11.220Z</time>
      </trkpt>
      <trkpt lat="55.4670299962163" lon="12.109399968758225">
        <ele>16.0</ele>
        <time>2020-04-18T19:10:12.905Z</time>
      </trkpt>
      <trkpt lat="55.46695992350578" lon="12.109359987080097">
        <ele>16.0</ele>
        <time>2020-04-18T19:10:14.591Z</time>
      </trkpt>
      <trkpt lat="55.466959588229656" lon="12.109361495822668">
        <ele>17.0</ele>
        <time>2020-04-18T19:10:16.277Z</time>
      </trkpt>
      <trkpt lat="55.46687996014953" lon="12.109709931537509">
        <ele>17.0</ele>
        <time>2020-04-18T19:10:17.966Z</time>
      </trkpt>
      <trkpt lat="55.46660997904837" lon="12.110799998044968">
        <ele>17.0</ele>
        <time>2020-04-18T19:10:19.666Z</time>
      </trkpt>
      <trkpt lat="55.466169929131866" lon="12.11245995014906">
        <ele>17.0</ele>
        <time>2020-04-18T19:10:21.383Z</time>
      </trkpt>
      <trkpt lat="55.46615995466709" lon="12.112619960680604">
        <ele>18.0</ele>
        <time>2020-04-18T19:10:23.101Z</time>
      </trkpt>
      <trkpt lat="55.4657899774611" lon="12.113929968327284">
        <ele>17.0</ele>
        <time>2020-04-18T19:10:24.833Z</time>
      </trkpt>
      <trkpt lat="55.464749950915575" lon="12.117589926347136">
        <ele>17.0</ele>
        <time>2020-04-18T19:10:26.602Z</time>
      </trkpt>
      <trkpt lat="55.46449991874397" lon="12.118559964001179">
        <ele>17.0</ele>
        <time>2020-04-18T19:10:28.381Z</time>
      </trkpt>
      <trkpt lat="55.464209988713264" lon="12.119839964434505">
        <ele>17.0</ele>
        <time>2020-04-18T19:10:30.172Z</time>
      </trkpt>
      <trkpt lat="55.464129941537976" lon="12.120039956644177">
        <ele>17.0</ele>
        <time>2020-04-18T19:10:31.965Z</time>
      </trkpt>
      <trkpt lat="55.46380992047489" lon="12.12143998593092">
        <ele>17.0</ele>
        <time>2020-04-18T19:10:33.772Z</time>
      </trkpt>
      <trkpt lat="55.463759964331985" lon="12.121639978140593">
        <ele>17.0</ele>
        <time>2020-04-18T19:10:35.581Z</time>
      </trkpt>
      <trkpt lat="55.46363993547857" lon="12.122199973091483">
        <ele>17.0</ele>
        <time>2020-04-18T19:10:37.396Z</time>
      </trkpt>
      <trkpt lat="55.46355997212231" lon="12.1225599758327">
        <ele>17.0</ele>
        <time>2020-04-18T19:10:39.214Z</time>
      </trkpt>
      <trkpt lat="55.463246405124664" lon="12.124080369248986">
        <ele>17.0</ele>
        <time>2020-04-18T19:10:41.047Z</time>
      </trkpt>
      <trkpt lat="55.46322997659445" lon="12.124159997329116">
        <ele>17.0</ele>
        <time>2020-04-18T19:10:42.881Z</time>
      </trkpt>
      <trkpt lat="55.46304993331432" lon="12.124049942940474">
        <ele>18.0</ele>
        <time>2020-04-18T19:10:44.718Z</time>
      </trkpt>
      <trkpt lat="55.46239991672337" lon="12.12358994409442">
        <ele>18.0</ele>
        <time>2020-04-18T19:10:46.566Z</time>
      </trkpt>
      <trkpt lat="55.46075999736786" lon="12.122499961405993">
        <ele>19.0</ele>
        <time>2020-04-18T19:10:48.442Z</time>
      </trkpt>
      <trkpt lat="55.46037996187806" lon="12.12227993644774">
        <ele>19.0</ele>
        <time>2020-04-18T19:10:50.324Z</time>
      </trkpt>
      <trkpt lat="55.459999926388264" lon="12.12210995145142">
        <ele>20.0</ele>
        <time>2020-04-18T19:10:52.213Z</time>
      </trkpt>
      <trkpt lat="55.45925997197628" lon="12.121879952028394">
        <ele>21.0</ele>
        <time>2020-04-18T19:10:54.114Z</time>
      </trkpt>
      <trkpt lat="55.458859987556934" lon="12.121809963136911">
        <ele>22.0</ele>
        <time>2020-04-18T19:10:56.021Z</time>
      </trkpt>
      <trkpt lat="55.458539966493845" lon="12.121789930388331">
        <ele>23.0</ele>
        <time>2020-04-18T19:10:57.933Z</time>
      </trkpt>
      <trkpt lat="55.45805993489921" lon="12.121789930388331">
        <ele>24.0</ele>
        <time>2020-04-18T19:10:59.853Z</time>
      </trkpt>
      <trkpt lat="55.45768995769322" lon="12.121839970350266">
        <ele>25.0</ele>
        <time>2020-04-18T19:11:01.779Z</time>
      </trkpt>
      <trkpt lat="55.456589916720986" lon="12.12197994813323">
        <ele>26.0</ele>
        <time>2020-04-18T19:11:03.723Z</time>
      </trkpt>
      <trkpt lat="55.45633996836841" lon="12.1221299842">
        <ele>28.0</ele>
        <time>2020-04-18T19:11:05.671Z</time>
      </trkpt>
      <trkpt lat="55.456179957836866" lon="12.12229996919632">
        <ele>29.0</ele>
        <time>2020-04-18T19:11:07.622Z</time>
      </trkpt>
      <trkpt lat="55.45568995177746" lon="12.123059956356883">
        <ele>30.0</ele>
        <time>2020-04-18T19:11:09.583Z</time>
      </trkpt>
      <trkpt lat="55.455319974571466" lon="12.123639984056354">
        <ele>31.0</ele>
        <time>2020-04-18T19:11:11.552Z</time>
      </trkpt>
      <trkpt lat="55.4549799207598" lon="12.124179946258664">
        <ele>32.0</ele>
        <time>2020-04-18T19:11:13.529Z</time>
      </trkpt>
      <trkpt lat="55.45474992133677" lon="12.124499967321754">
        <ele>33.0</ele>
        <time>2020-04-18T19:11:15.510Z</time>
      </trkpt>
      <trkpt lat="55.45453995466232" lon="12.124699959531426">
        <ele>34.0</ele>
        <time>2020-04-18T19:11:17.495Z</time>
      </trkpt>
      <trkpt lat="55.454259999096394" lon="12.124909926205873">
        <ele>34.0</ele>
        <time>2020-04-18T19:11:19.485Z</time>
      </trkpt>
      <trkpt lat="55.45401994138956" lon="12.125069936737418">
        <ele>34.0</ele>
        <time>2020-04-18T19:11:21.479Z</time>
      </trkpt>
      <trkpt lat="55.453749960288405" lon="12.125209998339415">
        <ele>35.0</ele>
        <time>2020-04-18T19:11:23.478Z</time>
      </trkpt>
      <trkpt lat="55.452889977023005" lon="12.125669997185469">
        <ele>35.0</ele>
        <time>2020-04-18T19:11:25.491Z</time>
      </trkpt>
      <trkpt lat="55.452739940956235" lon="12.125809974968433">
        <ele>34.0</ele>
        <time>2020-04-18T19:11:27.507Z</time>
      </trkpt>
      <trkpt lat="55.45257993042469" lon="12.126059923321009">
        <ele>34.0</ele>
        <time>2020-04-18T19:11:29.526Z</time>
      </trkpt>
      <trkpt lat="55.45226996764541" lon="12.127229953184724">
        <ele>33.0</ele>
        <time>2020-04-18T19:11:31.557Z</time>
      </trkpt>
      <trkpt lat="55.45218992047012" lon="12.127469927072525">
        <ele>33.0</ele>
        <time>2020-04-18T19:11:33.591Z</time>
      </trkpt>
      <trkpt lat="55.45205991715193" lon="12.127679977566004">
        <ele>32.0</ele>
        <time>2020-04-18T19:11:35.627Z</time>
      </trkpt>
      <trkpt lat="55.451729921624064" lon="12.127969991415739">
        <ele>31.0</ele>
        <time>2020-04-18T19:11:37.669Z</time>
      </trkpt>
      <trkpt lat="55.45018999837339" lon="12.129099955782294">
        <ele>30.0</ele>
        <time>2020-04-18T19:11:39.738Z</time>
      </trkpt>
      <trkpt lat="55.4492499679327" lon="12.129749972373247">
        <ele>29.0</ele>
        <time>2020-04-18T19:11:41.823Z</time>
      </trkpt>
      <trkpt lat="55.44814992696047" lon="12.130319941788912">
        <ele>28.0</ele>
        <time>2020-04-18T19:11:43.927Z</time>
      </trkpt>
      <trkpt lat="55.44653993099928" lon="12.131039947271347">
        <ele>28.0</ele>
        <time>2020-04-18T19:11:46.057Z</time>
      </trkpt>
      <trkpt lat="55.445649940520525" lon="12.131509920582175">
        <ele>27.0</ele>
        <time>2020-04-18T19:11:48.202Z</time>
      </trkpt>
      <trkpt lat="55.44527996331453" lon="12.131769927218556">
        <ele>26.0</ele>
        <time>2020-04-18T19:11:50.354Z</time>
      </trkpt>
      <trkpt lat="55.444599939510226" lon="12.132339980453253">
        <ele>26.0</ele>
        <time>2020-04-18T19:11:52.518Z</time>
      </trkpt>
      <trkpt lat="55.44415997341275" lon="12.13267995044589">
        <ele>26.0</ele>
        <time>2020-04-18T19:11:54.689Z</time>
      </trkpt>
      <trkpt lat="55.44406995177269" lon="12.13267995044589">
        <ele>26.0</ele>
        <time>2020-04-18T19:11:56.862Z</time>
      </trkpt>
      <trkpt lat="55.44397993013263" lon="12.132599987089634">
        <ele>25.0</ele>
        <time>2020-04-18T19:11:59.036Z</time>
      </trkpt>
      <trkpt lat="55.44389996677637" lon="12.13243997655809">
        <ele>25.0</ele>
        <time>2020-04-18T19:12:01.212Z</time>
      </trkpt>
      <trkpt lat="55.443779937922955" lon="12.132039992138743">
        <ele>25.0</ele>
        <time>2020-04-18T19:12:03.392Z</time>
      </trkpt>
      <trkpt lat="55.44357994571328" lon="12.130979932844639">
        <ele>24.0</ele>
        <time>2020-04-18T19:12:05.583Z</time>
      </trkpt>
      <trkpt lat="55.4435099568218" lon="12.130669970065355">
        <ele>24.0</ele>
        <time>2020-04-18T19:12:07.777Z</time>
      </trkpt>
      <trkpt lat="55.44342999346554" lon="12.130579948425293">
        <ele>24.0</ele>
        <time>2020-04-18T19:12:09.972Z</time>
      </trkpt>
      <trkpt lat="55.44327995739877" lon="12.130539966747165">
        <ele>23.0</ele>
        <time>2020-04-18T19:12:12.170Z</time>
      </trkpt>
      <trkpt lat="55.442859940230846" lon="12.130599981173873">
        <ele>23.0</ele>
        <time>2020-04-18T19:12:14.374Z</time>
      </trkpt>
      <trkpt lat="55.44273999519646" lon="12.130649937316775">
        <ele>22.0</ele>
        <time>2020-04-18T19:12:16.580Z</time>
      </trkpt>
      <trkpt lat="55.4422199819237" lon="12.130999965593219">
        <ele>21.0</ele>
        <time>2020-04-18T19:12:18.795Z</time>
      </trkpt>
      <trkpt lat="55.44210992753506" lon="12.131069954484701">
        <ele>21.0</ele>
        <time>2020-04-18T19:12:21.012Z</time>
      </trkpt>
      <trkpt lat="55.44197992421687" lon="12.131119994446635">
        <ele>20.0</ele>
        <time>2020-04-18T19:12:23.231Z</time>
      </trkpt>
      <trkpt lat="55.44152998365462" lon="12.131079928949475">
        <ele>20.0</ele>
        <time>2020-04-18T19:12:25.458Z</time>
      </trkpt>
      <trkpt lat="55.4412199370563" lon="12.131019998341799">
        <ele>19.0</ele>
        <time>2020-04-18T19:12:27.690Z</time>
      </trkpt>
      <trkpt lat="55.440989937633276" lon="12.131069954484701">
        <ele>18.0</ele>
        <time>2020-04-18T19:12:29.925Z</time>
      </trkpt>
      <trkpt lat="55.44064996764064" lon="12.131249997764826">
        <ele>18.0</ele>
        <time>2020-04-18T19:12:32.166Z</time>
      </trkpt>
      <trkpt lat="55.440169936046004" lon="12.131519978865981">
        <ele>17.0</ele>
        <time>2020-04-18T19:12:34.415Z</time>
      </trkpt>
      <trkpt lat="55.43963994830847" lon="12.13170999661088">
        <ele>17.0</ele>
        <time>2020-04-18T19:12:36.673Z</time>
      </trkpt>
      <trkpt lat="55.43893997557461" lon="12.131929937750101">
        <ele>17.0</ele>
        <time>2020-04-18T19:12:38.942Z</time>
      </trkpt>
      <trkpt lat="55.437699956819415" lon="12.132449951022863">
        <ele>17.0</ele>
        <time>2020-04-18T19:12:41.232Z</time>
      </trkpt>
      <trkpt lat="55.43746995739639" lon="12.132599987089634">
        <ele>17.0</ele>
        <time>2020-04-18T19:12:43.525Z</time>
      </trkpt>
      <trkpt lat="55.437289997935295" lon="12.132759997621179">
        <ele>18.0</ele>
        <time>2020-04-18T19:12:45.822Z</time>
      </trkpt>
      <trkpt lat="55.43688992969692" lon="12.133219996467233">
        <ele>18.0</ele>
        <time>2020-04-18T19:12:48.126Z</time>
      </trkpt>
      <trkpt lat="55.43439991772175" lon="12.136809965595603">
        <ele>19.0</ele>
        <time>2020-04-18T19:12:50.482Z</time>
      </trkpt>
      <trkpt lat="55.433939918875694" lon="12.137439949437976">
        <ele>20.0</ele>
        <time>2020-04-18T19:12:52.847Z</time>
      </trkpt>
      <trkpt lat="55.43371997773647" lon="12.137659974396229">
        <ele>21.0</ele>
        <time>2020-04-18T19:12:55.216Z</time>
      </trkpt>
      <trkpt lat="55.43347992002964" lon="12.137829959392548">
        <ele>22.0</ele>
        <time>2020-04-18T19:12:57.590Z</time>
      </trkpt>
      <trkpt lat="55.432949932292104" lon="12.138069933280349">
        <ele>23.0</ele>
        <time>2020-04-18T19:12:59.972Z</time>
      </trkpt>
      <trkpt lat="55.43259998783469" lon="12.138179987668991">
        <ele>24.0</ele>
        <time>2020-04-18T19:13:02.360Z</time>
      </trkpt>
      <trkpt lat="55.43228994123638" lon="12.138229943811893">
        <ele>25.0</ele>
        <time>2020-04-18T19:13:04.753Z</time>
      </trkpt>
      <trkpt lat="55.43188995681703" lon="12.13819993659854">
        <ele>26.0</ele>
        <time>2020-04-18T19:13:07.152Z</time>
      </trkpt>
      <trkpt lat="55.43146373704076" lon="12.1381467115134">
        <ele>27.0</ele>
        <time>2020-04-18T19:13:09.558Z</time>
      </trkpt>
      <trkpt lat="55.431169951334596" lon="12.138109998777509">
        <ele>27.0</ele>
        <time>2020-04-18T19:13:11.969Z</time>
      </trkpt>
      <trkpt lat="55.43108998797834" lon="12.137309946119785">
        <ele>28.0</ele>
        <time>2020-04-18T19:13:14.387Z</time>
      </trkpt>
      <trkpt lat="55.43080994859338" lon="12.135669942945242">
        <ele>29.0</ele>
        <time>2020-04-18T19:13:16.821Z</time>
      </trkpt>
      <trkpt lat="55.42910993099213" lon="12.125709978863597">
        <ele>30.0</ele>
        <time>2020-04-18T19:13:19.350Z</time>
      </trkpt>
      <trkpt lat="55.42838992550969" lon="12.12154995650053">
        <ele>31.0</ele>
        <time>2020-04-18T19:13:21.918Z</time>
      </trkpt>
      <trkpt lat="55.42831993661821" lon="12.120739929378033">
        <ele>32.0</ele>
        <time>2020-04-18T19:13:24.494Z</time>
      </trkpt>
      <trkpt lat="55.42818993330002" lon="12.119539976119995">
        <ele>33.0</ele>
        <time>2020-04-18T19:13:27.081Z</time>
      </trkpt>
      <trkpt lat="55.42783998884261" lon="12.116909986361861">
        <ele>33.0</ele>
        <time>2020-04-18T19:13:29.693Z</time>
      </trkpt>
      <trkpt lat="55.42738996446133" lon="12.114249989390373">
        <ele>33.0</ele>
        <time>2020-04-18T19:13:32.330Z</time>
      </trkpt>
      <trkpt lat="55.427259961143136" lon="12.113549932837486">
        <ele>34.0</ele>
        <time>2020-04-18T19:13:34.974Z</time>
      </trkpt>
      <trkpt lat="55.42624717578292" lon="12.108014775440097">
        <ele>34.0</ele>
        <time>2020-04-18T19:13:37.671Z</time>
      </trkpt>
      <trkpt lat="55.426249941810966" lon="12.108029946684837">
        <ele>34.0</ele>
        <time>2020-04-18T19:13:40.368Z</time>
      </trkpt>
      <trkpt lat="55.42537998408079" lon="12.103399951010942">
        <ele>34.0</ele>
        <time>2020-04-18T19:13:43.109Z</time>
      </trkpt>
      <trkpt lat="55.42517999187112" lon="12.102329917252064">
        <ele>34.0</ele>
        <time>2020-04-18T19:13:45.861Z</time>
      </trkpt>
      <trkpt lat="55.42513992637396" lon="12.101779980584979">
        <ele>34.0</ele>
        <time>2020-04-18T19:13:48.618Z</time>
      </trkpt>
      <trkpt lat="55.42500992305577" lon="12.098159920424223">
        <ele>34.0</ele>
        <time>2020-04-18T19:13:51.408Z</time>
      </trkpt>
      <trkpt lat="55.42490992695093" lon="12.095579970628023">
        <ele>34.0</ele>
        <time>2020-04-18T19:13:54.221Z</time>
      </trkpt>
      <trkpt lat="55.42489995248616" lon="12.094469955191016">
        <ele>34.0</ele>
        <time>2020-04-18T19:13:57.044Z</time>
      </trkpt>
      <trkpt lat="55.4248699452728" lon="12.09406997077167">
        <ele>34.0</ele>
        <time>2020-04-18T19:13:59.871Z</time>
      </trkpt>
      <trkpt lat="55.42475997470319" lon="12.093629920855165">
        <ele>35.0</ele>
        <time>2020-04-18T19:14:02.702Z</time>
      </trkpt>
      <trkpt lat="55.42445998638868" lon="12.09277999587357">
        <ele>35.0</ele>
        <time>2020-04-18T19:14:05.543Z</time>
      </trkpt>
      <trkpt lat="55.42427994310856" lon="12.092139953747392">
        <ele>35.0</ele>
        <time>2020-04-18T19:14:08.390Z</time>
      </trkpt>
      <trkpt lat="55.42417994700372" lon="12.091569984331727">
        <ele>36.0</ele>
        <time>2020-04-18T19:14:11.243Z</time>
      </trkpt>
      <trkpt lat="55.424079950898886" lon="12.090609921142459">
        <ele>36.0</ele>
        <time>2020-04-18T19:14:14.104Z</time>
      </trkpt>
      <trkpt lat="55.42407928034663" lon="12.090609753504395">
        <ele>36.0</ele>
        <time>2020-04-18T19:14:16.965Z</time>
      </trkpt>
      <trkpt lat="55.42390996590257" lon="12.090559964999557">
        <ele>36.0</ele>
        <time>2020-04-18T19:14:19.829Z</time>
      </trkpt>
      <trkpt lat="55.423709973692894" lon="12.09045996889472">
        <ele>36.0</ele>
        <time>2020-04-18T19:14:22.697Z</time>
      </trkpt>
      <trkpt lat="55.422979993745685" lon="12.090109940618277">
        <ele>36.0</ele>
        <time>2020-04-18T19:14:25.577Z</time>
      </trkpt>
      <trkpt lat="55.421839971095324" lon="12.089509963989258">
        <ele>37.0</ele>
        <time>2020-04-18T19:14:28.476Z</time>
      </trkpt>
      <trkpt lat="55.420549996197224" lon="12.088879980146885">
        <ele>37.0</ele>
        <time>2020-04-18T19:14:31.396Z</time>
      </trkpt>
      <trkpt lat="55.41905994527042" lon="12.088189981877804">
        <ele>37.0</ele>
        <time>2020-04-18T19:14:34.341Z</time>
      </trkpt>
      <trkpt lat="55.41837992146611" lon="12.08781992085278">
        <ele>37.0</ele>
        <time>2020-04-18T19:14:37.297Z</time>
      </trkpt>
      <trkpt lat="55.417849933728576" lon="12.087539965286851">
        <ele>36.0</ele>
        <time>2020-04-18T19:14:40.262Z</time>
      </trkpt>
      <trkpt lat="55.41529999114573" lon="12.086379993706942">
        <ele>36.0</ele>
        <time>2020-04-18T19:14:43.269Z</time>
      </trkpt>
      <trkpt lat="55.41381999850273" lon="12.085619922727346">
        <ele>36.0</ele>
        <time>2020-04-18T19:14:46.301Z</time>
      </trkpt>
      <trkpt lat="55.41308993473649" lon="12.085289927199483">
        <ele>36.0</ele>
        <time>2020-04-18T19:14:49.345Z</time>
      </trkpt>
      <trkpt lat="55.41086998768151" lon="12.084219977259636">
        <ele>35.0</ele>
        <time>2020-04-18T19:14:52.426Z</time>
      </trkpt>
      <trkpt lat="55.41025995276868" lon="12.083889981731772">
        <ele>35.0</ele>
        <time>2020-04-18T19:14:55.517Z</time>
      </trkpt>
      <trkpt lat="55.40915999561548" lon="12.08336996845901">
        <ele>35.0</ele>
        <time>2020-04-18T19:14:58.627Z</time>
      </trkpt>
      <trkpt lat="55.40807998739183" lon="12.08280997350812">
        <ele>35.0</ele>
        <time>2020-04-18T19:15:01.755Z</time>
      </trkpt>
      <trkpt lat="55.40758998133242" lon="12.082579974085093">
        <ele>35.0</ele>
        <time>2020-04-18T19:15:04.891Z</time>
      </trkpt>
      <trkpt lat="55.40638994425535" lon="12.081999946385622">
        <ele>35.0</ele>
        <time>2020-04-18T19:15:08.047Z</time>
      </trkpt>
      <trkpt lat="55.40626999922097" lon="12.081879917532206">
        <ele>35.0</ele>
        <time>2020-04-18T19:15:11.205Z</time>
      </trkpt>
      <trkpt lat="55.40614997036755" lon="12.081729965284467">
        <ele>35.0</ele>
        <time>2020-04-18T19:15:14.365Z</time>
      </trkpt>
      <trkpt lat="55.40588996373117" lon="12.081309948116541">
        <ele>35.0</ele>
        <time>2020-04-18T19:15:17.531Z</time>
      </trkpt>
      <trkpt lat="55.40576993487775" lon="12.081099981442094">
        <ele>35.0</ele>
        <time>2020-04-18T19:15:20.700Z</time>
      </trkpt>
      <trkpt lat="55.40563993155956" lon="12.080969978123903">
        <ele>35.0</ele>
        <time>2020-04-18T19:15:23.871Z</time>
      </trkpt>
      <trkpt lat="55.40547992102802" lon="12.080849949270487">
        <ele>35.0</ele>
        <time>2020-04-18T19:15:27.045Z</time>
      </trkpt>
      <trkpt lat="55.40432992391288" lon="12.080499920994043">
        <ele>36.0</ele>
        <time>2020-04-18T19:15:30.238Z</time>
      </trkpt>
      <trkpt lat="55.403924910351634" lon="12.08042255602777">
        <ele>36.0</ele>
        <time>2020-04-18T19:15:33.437Z</time>
      </trkpt>
      <trkpt lat="55.40364998392761" lon="12.080369917675853">
        <ele>36.0</ele>
        <time>2020-04-18T19:15:36.641Z</time>
      </trkpt>
      <trkpt lat="55.403689965605736" lon="12.08016992546618">
        <ele>35.0</ele>
        <time>2020-04-18T19:15:39.846Z</time>
      </trkpt>
      <trkpt lat="55.403539929538965" lon="12.08093997091055">
        <ele>35.0</ele>
        <time>2020-04-18T19:15:43.059Z</time>
      </trkpt>
      <trkpt lat="55.403429958969355" lon="12.08162996917963">
        <ele>35.0</ele>
        <time>2020-04-18T19:15:46.278Z</time>
      </trkpt>
      <trkpt lat="55.40335997007787" lon="12.081879917532206">
        <ele>34.0</ele>
        <time>2020-04-18T19:15:49.500Z</time>
      </trkpt>
      <trkpt lat="55.4031599778682" lon="12.082399930804968">
        <ele>34.0</ele>
        <time>2020-04-18T19:15:52.728Z</time>
      </trkpt>
      <trkpt lat="55.4025399684906" lon="12.084779972210526">
        <ele>33.0</ele>
        <time>2020-04-18T19:15:55.980Z</time>
      </trkpt>
      <trkpt lat="55.400549937039614" lon="12.092809919267893">
        <ele>32.0</ele>
        <time>2020-04-18T19:15:59.311Z</time>
      </trkpt>
      <trkpt lat="55.40032999590039" lon="12.093709968030453">
        <ele>32.0</ele>
        <time>2020-04-18T19:16:02.651Z</time>
      </trkpt>
      <trkpt lat="55.40015992708504" lon="12.094249930232763">
        <ele>31.0</ele>
        <time>2020-04-18T19:16:05.997Z</time>
      </trkpt>
      <trkpt lat="55.39987997151911" lon="12.09494998678565">
        <ele>30.0</ele>
        <time>2020-04-18T19:16:09.351Z</time>
      </trkpt>
      <trkpt lat="55.39945995435119" lon="12.095689941197634">
        <ele>29.0</ele>
        <time>2020-04-18T19:16:12.714Z</time>
      </trkpt>
      <trkpt lat="55.399199947714806" lon="12.09608992561698">
        <ele>28.0</ele>
        <time>2020-04-18T19:16:16.083Z</time>
      </trkpt>
      <trkpt lat="55.3974199667573" lon="12.098819995298982">
        <ele>27.0</ele>
        <time>2020-04-18T19:16:19.490Z</time>
      </trkpt>
      <trkpt lat="55.39686994627118" lon="12.099669920280576">
        <ele>27.0</ele>
        <time>2020-04-18T19:16:22.909Z</time>
      </trkpt>
      <trkpt lat="55.39649996906519" lon="12.100419932976365">
        <ele>26.0</ele>
        <time>2020-04-18T19:16:26.337Z</time>
      </trkpt>
      <trkpt lat="55.395759930834174" lon="12.10203998722136">
        <ele>25.0</ele>
        <time>2020-04-18T19:16:29.784Z</time>
      </trkpt>
      <trkpt lat="55.39556999690831" lon="12.102389931678772">
        <ele>25.0</ele>
        <time>2020-04-18T19:16:33.235Z</time>
      </trkpt>
      <trkpt lat="55.3955099824816" lon="12.102499986067414">
        <ele>24.0</ele>
        <time>2020-04-18T19:16:36.687Z</time>
      </trkpt>
      <trkpt lat="55.39539992809296" lon="12.102609956637025">
        <ele>24.0</ele>
        <time>2020-04-18T19:16:40.141Z</time>
      </trkpt>
      <trkpt lat="55.394429974257946" lon="12.103549987077713">
        <ele>23.0</ele>
        <time>2020-04-18T19:16:43.613Z</time>
      </trkpt>
      <trkpt lat="55.39404021576047" lon="12.103904290124774">
        <ele>23.0</ele>
        <time>2020-04-18T19:16:47.092Z</time>
      </trkpt>
      <trkpt lat="55.39365992881358" lon="12.104249959811568">
        <ele>23.0</ele>
        <time>2020-04-18T19:16:50.578Z</time>
      </trkpt>
      <trkpt lat="55.39365992881358" lon="12.104239985346794">
        <ele>23.0</ele>
        <time>2020-04-18T19:16:54.064Z</time>
      </trkpt>
      <trkpt lat="55.39374995045364" lon="12.104169996455312">
        <ele>24.0</ele>
        <time>2020-04-18T19:16:57.552Z</time>
      </trkpt>
      <trkpt lat="55.39368993602693" lon="12.103999927639961">
        <ele>24.0</ele>
        <time>2020-04-18T19:17:01.042Z</time>
      </trkpt>
      <trkpt lat="55.393589939922094" lon="12.103799935430288">
        <ele>24.0</ele>
        <time>2020-04-18T19:17:04.534Z</time>
      </trkpt>
      <trkpt lat="55.39236995391548" lon="12.101279916241765">
        <ele>25.0</ele>
        <time>2020-04-18T19:17:08.056Z</time>
      </trkpt>
      <trkpt lat="55.392109947279096" lon="12.100699972361326">
        <ele>26.0</ele>
        <time>2020-04-18T19:17:11.585Z</time>
      </trkpt>
      <trkpt lat="55.391999976709485" lon="12.100409958511591">
        <ele>26.0</ele>
        <time>2020-04-18T19:17:15.117Z</time>
      </trkpt>
      <trkpt lat="55.39176997728646" lon="12.099519968032837">
        <ele>27.0</ele>
        <time>2020-04-18T19:17:18.658Z</time>
      </trkpt>
      <trkpt lat="55.39153997786343" lon="12.097779968753457">
        <ele>27.0</ele>
        <time>2020-04-18T19:17:22.215Z</time>
      </trkpt>
      <trkpt lat="55.391229931265116" lon="12.095119971781969">
        <ele>28.0</ele>
        <time>2020-04-18T19:17:25.797Z</time>
      </trkpt>
      <trkpt lat="55.39115994237363" lon="12.09447992965579">
        <ele>29.0</ele>
        <time>2020-04-18T19:17:29.385Z</time>
      </trkpt>
      <trkpt lat="55.39097998291254" lon="12.093529924750328">
        <ele>30.0</ele>
        <time>2020-04-18T19:17:32.982Z</time>
      </trkpt>
      <trkpt lat="55.39075995795429" lon="12.092829952016473">
        <ele>31.0</ele>
        <time>2020-04-18T19:17:36.586Z</time>
      </trkpt>
      <trkpt lat="55.39063992910087" lon="12.09251998923719">
        <ele>31.0</ele>
        <time>2020-04-18T19:17:40.194Z</time>
      </trkpt>
      <trkpt lat="55.390449995175004" lon="12.092169960960746">
        <ele>32.0</ele>
        <time>2020-04-18T19:17:43.806Z</time>
      </trkpt>
      <trkpt lat="55.39011999964714" lon="12.091419948264956">
        <ele>33.0</ele>
        <time>2020-04-18T19:17:47.427Z</time>
      </trkpt>
      <trkpt lat="55.38992998190224" lon="12.090879986062646">
        <ele>34.0</ele>
        <time>2020-04-18T19:17:51.054Z</time>
      </trkpt>
      <trkpt lat="55.38986996747553" lon="12.090629953891039">
        <ele>34.0</ele>
        <time>2020-04-18T19:17:54.683Z</time>
      </trkpt>
      <trkpt lat="55.38979997858405" lon="12.090389980003238">
        <ele>35.0</ele>
        <time>2020-04-18T19:17:58.315Z</time>
      </trkpt>
      <trkpt lat="55.38968992419541" lon="12.089809952303767">
        <ele>36.0</ele>
        <time>2020-04-18T19:18:01.952Z</time>
      </trkpt>
      <trkpt lat="55.38961993530393" lon="12.088649980723858">
        <ele>36.0</ele>
        <time>2020-04-18T19:18:05.600Z</time>
      </trkpt>
      <trkpt lat="55.38960996083915" lon="12.087059933692217">
        <ele>36.0</ele>
        <time>2020-04-18T19:18:09.262Z</time>
      </trkpt>
      <trkpt lat="55.3895799536258" lon="12.086729938164353">
        <ele>37.0</ele>
        <time>2020-04-18T19:18:12.927Z</time>
      </trkpt>
      <trkpt lat="55.3895799536258" lon="12.086439924314618">
        <ele>37.0</ele>
        <time>2020-04-18T19:18:16.595Z</time>
      </trkpt>
      <trkpt lat="55.38944995030761" lon="12.085339967161417">
        <ele>38.0</ele>
        <time>2020-04-18T19:18:20.273Z</time>
      </trkpt>
      <trkpt lat="55.38927996531129" lon="12.083619916811585">
        <ele>38.0</ele>
        <time>2020-04-18T19:18:23.967Z</time>
      </trkpt>
      <trkpt lat="55.38908994756639" lon="12.082019979134202">
        <ele>38.0</ele>
        <time>2020-04-18T19:18:27.676Z</time>
      </trkpt>
      <trkpt lat="55.38877998478711" lon="12.080839974805713">
        <ele>38.0</ele>
        <time>2020-04-18T19:18:31.397Z</time>
      </trkpt>
      <trkpt lat="55.388649981468916" lon="12.08016992546618">
        <ele>38.0</ele>
        <time>2020-04-18T19:18:35.125Z</time>
      </trkpt>
      <trkpt lat="55.38858996704221" lon="12.079719984903932">
        <ele>38.0</ele>
        <time>2020-04-18T19:18:38.857Z</time>
      </trkpt>
      <trkpt lat="55.38848997093737" lon="12.07945997826755">
        <ele>38.0</ele>
        <time>2020-04-18T19:18:42.592Z</time>
      </trkpt>
      <trkpt lat="55.38832996040583" lon="12.079189997166395">
        <ele>38.0</ele>
        <time>2020-04-18T19:18:46.330Z</time>
      </trkpt>
      <trkpt lat="55.388076826930046" lon="12.078902246430516">
        <ele>38.0</ele>
        <time>2020-04-18T19:18:50.073Z</time>
      </trkpt>
      <trkpt lat="55.3876699693501" lon="12.078439984470606">
        <ele>39.0</ele>
        <time>2020-04-18T19:18:53.824Z</time>
      </trkpt>
      <trkpt lat="55.386759946122766" lon="12.077389983460307">
        <ele>39.0</ele>
        <time>2020-04-18T19:18:57.592Z</time>
      </trkpt>
      <trkpt lat="55.38708994165063" lon="12.075949972495437">
        <ele>39.0</ele>
        <time>2020-04-18T19:19:01.374Z</time>
      </trkpt>
      <trkpt lat="55.38656992837787" lon="12.075649984180927">
        <ele>39.0</ele>
        <time>2020-04-18T19:19:05.165Z</time>
      </trkpt>
      <trkpt lat="55.38623993285" lon="12.075559962540865">
        <ele>39.0</ele>
        <time>2020-04-18T19:19:08.962Z</time>
      </trkpt>
      <trkpt lat="55.385879930108786" lon="12.07554998807609">
        <ele>39.0</ele>
        <time>2020-04-18T19:19:12.764Z</time>
      </trkpt>
      <trkpt lat="55.38265993818641" lon="12.075769929215312">
        <ele>39.0</ele>
        <time>2020-04-18T19:19:16.618Z</time>
      </trkpt>
      <trkpt lat="55.38223992101848" lon="12.075779987499118">
        <ele>39.0</ele>
        <time>2020-04-18T19:19:20.479Z</time>
      </trkpt>
      <trkpt lat="55.38164991885424" lon="12.075839918106794">
        <ele>39.0</ele>
        <time>2020-04-18T19:19:24.349Z</time>
      </trkpt>
      <trkpt lat="55.3811199311167" lon="12.075989954173565">
        <ele>39.0</ele>
        <time>2020-04-18T19:19:28.228Z</time>
      </trkpt>
      <trkpt lat="55.38080996833742" lon="12.076009986922145">
        <ele>39.0</ele>
        <time>2020-04-18T19:19:32.112Z</time>
      </trkpt>
      <trkpt lat="55.380589943379164" lon="12.076009986922145">
        <ele>39.0</ele>
        <time>2020-04-18T19:19:35.999Z</time>
      </trkpt>
      <trkpt lat="55.379989966750145" lon="12.07582994364202">
        <ele>38.0</ele>
        <time>2020-04-18T19:19:39.896Z</time>
      </trkpt>
      <trkpt lat="55.37973993457854" lon="12.075739922001958">
        <ele>38.0</ele>
        <time>2020-04-18T19:19:43.797Z</time>
      </trkpt>
      <trkpt lat="55.37933995015919" lon="12.075639925897121">
        <ele>38.0</ele>
        <time>2020-04-18T19:19:47.705Z</time>
      </trkpt>
      <trkpt lat="55.378919932991266" lon="12.075629951432347">
        <ele>37.0</ele>
        <time>2020-04-18T19:19:51.619Z</time>
      </trkpt>
      <trkpt lat="55.37868993356824" lon="12.075649984180927">
        <ele>37.0</ele>
        <time>2020-04-18T19:19:55.537Z</time>
      </trkpt>
      <trkpt lat="55.37847996689379" lon="12.07569994032383">
        <ele>36.0</ele>
        <time>2020-04-18T19:19:59.458Z</time>
      </trkpt>
      <trkpt lat="55.37806992419064" lon="12.075889958068728">
        <ele>36.0</ele>
        <time>2020-04-18T19:20:03.386Z</time>
      </trkpt>
      <trkpt lat="55.377689972519875" lon="12.076219953596592">
        <ele>35.0</ele>
        <time>2020-04-18T19:20:07.321Z</time>
      </trkpt>
      <trkpt lat="55.37731999531388" lon="12.076749941334128">
        <ele>35.0</ele>
        <time>2020-04-18T19:20:11.264Z</time>
      </trkpt>
      <trkpt lat="55.377199966460466" lon="12.076979940757155">
        <ele>35.0</ele>
        <time>2020-04-18T19:20:15.210Z</time>
      </trkpt>
      <trkpt lat="55.37630997598171" lon="12.079169964417815">
        <ele>34.0</ele>
        <time>2020-04-18T19:20:19.180Z</time>
      </trkpt>
      <trkpt lat="55.37606991827488" lon="12.07973993383348">
        <ele>34.0</ele>
        <time>2020-04-18T19:20:23.157Z</time>
      </trkpt>
      <trkpt lat="55.37571997381747" lon="12.080389950424433">
        <ele>34.0</ele>
        <time>2020-04-18T19:20:27.142Z</time>
      </trkpt>
      <trkpt lat="55.37546994164586" lon="12.080739978700876">
        <ele>34.0</ele>
        <time>2020-04-18T19:20:31.132Z</time>
      </trkpt>
      <trkpt lat="55.37509996443987" lon="12.080019973218441">
        <ele>34.0</ele>
        <time>2020-04-18T19:20:35.131Z</time>
      </trkpt>
      <trkpt lat="55.374659998342395" lon="12.07917993888259">
        <ele>34.0</ele>
        <time>2020-04-18T19:20:39.140Z</time>
      </trkpt>
      <trkpt lat="55.374319944530725" lon="12.078639976680279">
        <ele>35.0</ele>
        <time>2020-04-18T19:20:43.156Z</time>
      </trkpt>
      <trkpt lat="55.37381996400654" lon="12.077769935131073">
        <ele>35.0</ele>
        <time>2020-04-18T19:20:47.184Z</time>
      </trkpt>
      <trkpt lat="55.37328997626901" lon="12.076759999617934">
        <ele>35.0</ele>
        <time>2020-04-18T19:20:51.224Z</time>
      </trkpt>
      <trkpt lat="55.37314999848604" lon="12.076489934697747">
        <ele>36.0</ele>
        <time>2020-04-18T19:20:55.268Z</time>
      </trkpt>
      <trkpt lat="55.37309995852411" lon="12.076439978554845">
        <ele>36.0</ele>
        <time>2020-04-18T19:20:59.313Z</time>
      </trkpt>
      <trkpt lat="55.37301999516785" lon="12.076419945806265">
        <ele>36.0</ele>
        <time>2020-04-18T19:21:03.359Z</time>
      </trkpt>
      <trkpt lat="55.372879933565855" lon="12.076509967446327">
        <ele>36.0</ele>
        <time>2020-04-18T19:21:07.407Z</time>
      </trkpt>
      <trkpt lat="55.37248992361128" lon="12.076949933543801">
        <ele>36.0</ele>
        <time>2020-04-18T19:21:11.463Z</time>
      </trkpt>
      <trkpt lat="55.37192992866039" lon="12.077829949557781">
        <ele>36.0</ele>
        <time>2020-04-18T19:21:15.531Z</time>
      </trkpt>
      <trkpt lat="55.371609991416335" lon="12.078169919550419">
        <ele>35.0</ele>
        <time>2020-04-18T19:21:19.605Z</time>
      </trkpt>
      <trkpt lat="55.37102686241269" lon="12.078643413260579">
        <ele>35.0</ele>
        <time>2020-04-18T19:21:23.689Z</time>
      </trkpt>
      <trkpt lat="55.370599972084165" lon="12.07898992113769">
        <ele>34.0</ele>
        <time>2020-04-18T19:21:27.781Z</time>
      </trkpt>
      <trkpt lat="55.37054993212223" lon="12.07902998663485">
        <ele>33.0</ele>
        <time>2020-04-18T19:21:31.873Z</time>
      </trkpt>
      <trkpt lat="55.369099946692586" lon="12.080179983749986">
        <ele>32.0</ele>
        <time>2020-04-18T19:21:35.991Z</time>
      </trkpt>
      <trkpt lat="55.368839940056205" lon="12.080379975959659">
        <ele>31.0</ele>
        <time>2020-04-18T19:21:40.113Z</time>
      </trkpt>
      <trkpt lat="55.3683499339968" lon="12.080699997022748">
        <ele>30.0</ele>
        <time>2020-04-18T19:21:44.244Z</time>
      </trkpt>
      <trkpt lat="55.36788993515074" lon="12.080909963697195">
        <ele>29.0</ele>
        <time>2020-04-18T19:21:48.382Z</time>
      </trkpt>
      <trkpt lat="55.3664399497211" lon="12.08147993311286">
        <ele>28.0</ele>
        <time>2020-04-18T19:21:52.544Z</time>
      </trkpt>
      <trkpt lat="55.36601993255317" lon="12.081699958071113">
        <ele>27.0</ele>
        <time>2020-04-18T19:21:56.713Z</time>
      </trkpt>
      <trkpt lat="55.3651999309659" lon="12.082259953022003">
        <ele>25.0</ele>
        <time>2020-04-18T19:22:00.896Z</time>
      </trkpt>
      <trkpt lat="55.3641499299556" lon="12.083119936287403">
        <ele>24.0</ele>
        <time>2020-04-18T19:22:05.098Z</time>
      </trkpt>
      <trkpt lat="55.3634799644351" lon="12.083809934556484">
        <ele>23.0</ele>
        <time>2020-04-18T19:22:09.312Z</time>
      </trkpt>
      <trkpt lat="55.362499952316284" lon="12.084969989955425">
        <ele>21.0</ele>
        <time>2020-04-18T19:22:13.545Z</time>
      </trkpt>
      <trkpt lat="55.36182998679578" lon="12.085829973220825">
        <ele>20.0</ele>
        <time>2020-04-18T19:22:17.792Z</time>
      </trkpt>
      <trkpt lat="55.36140996962786" lon="12.086249990388751">
        <ele>19.0</ele>
        <time>2020-04-18T19:22:22.046Z</time>
      </trkpt>
      <trkpt lat="55.361059941351414" lon="12.086539920419455">
        <ele>19.0</ele>
        <time>2020-04-18T19:22:26.307Z</time>
      </trkpt>
      <trkpt lat="55.360649982467294" lon="12.08682993426919">
        <ele>18.0</ele>
        <time>2020-04-18T19:22:30.575Z</time>
      </trkpt>
      <trkpt lat="55.360199958086014" lon="12.087089940905571">
        <ele>18.0</ele>
        <time>2020-04-18T19:22:34.850Z</time>
      </trkpt>
      <trkpt lat="55.35875994712114" lon="12.087769964709878">
        <ele>17.0</ele>
        <time>2020-04-18T19:22:39.149Z</time>
      </trkpt>
      <trkpt lat="55.35787993110716" lon="12.088199956342578">
        <ele>17.0</ele>
        <time>2020-04-18T19:22:43.463Z</time>
      </trkpt>
      <trkpt lat="55.35752998664975" lon="12.088329959660769">
        <ele>17.0</ele>
        <time>2020-04-18T19:22:47.783Z</time>
      </trkpt>
      <trkpt lat="55.35722999833524" lon="12.088409923017025">
        <ele>18.0</ele>
        <time>2020-04-18T19:22:52.107Z</time>
      </trkpt>
      <trkpt lat="55.357109969481826" lon="12.088409923017025">
        <ele>18.0</ele>
        <time>2020-04-18T19:22:56.433Z</time>
      </trkpt>
      <trkpt lat="55.35683998838067" lon="12.088309926912189">
        <ele>18.0</ele>
        <time>2020-04-18T19:23:00.764Z</time>
      </trkpt>
      <trkpt lat="55.35621997900307" lon="12.087949924170971">
        <ele>19.0</ele>
        <time>2020-04-18T19:23:05.105Z</time>
      </trkpt>
      <trkpt lat="55.3559420350939" lon="12.08791522309184">
        <ele>19.0</ele>
        <time>2020-04-18T19:23:09.451Z</time>
      </trkpt>
      <trkpt lat="55.35589995793998" lon="12.087909942492843">
        <ele>20.0</ele>
        <time>2020-04-18T19:23:13.797Z</time>
      </trkpt>
      <trkpt lat="55.35550994798541" lon="12.08798998966813">
        <ele>20.0</ele>
        <time>2020-04-18T19:23:18.150Z</time>
      </trkpt>
      <trkpt lat="55.3553999774158" lon="12.08802997134626">
        <ele>21.0</ele>
        <time>2020-04-18T19:23:22.505Z</time>
      </trkpt>
      <trkpt lat="55.353649919852614" lon="12.08858996629715">
        <ele>21.0</ele>
        <time>2020-04-18T19:23:26.888Z</time>
      </trkpt>
      <trkpt lat="55.3534899931401" lon="12.088669929653406">
        <ele>21.0</ele>
        <time>2020-04-18T19:23:31.274Z</time>
      </trkpt>
      <trkpt lat="55.35307995043695" lon="12.088979976251721">
        <ele>21.0</ele>
        <time>2020-04-18T19:23:35.667Z</time>
      </trkpt>
      <trkpt lat="55.35284995101392" lon="12.089139986783266">
        <ele>21.0</ele>
        <time>2020-04-18T19:23:40.064Z</time>
      </trkpt>
      <trkpt lat="55.352639984339476" lon="12.089239982888103">
        <ele>21.0</ele>
        <time>2020-04-18T19:23:44.464Z</time>
      </trkpt>
      <trkpt lat="55.35227998159826" lon="12.089489931240678">
        <ele>21.0</ele>
        <time>2020-04-18T19:23:48.871Z</time>
      </trkpt>
      <trkpt lat="55.35214997828007" lon="12.08968992345035">
        <ele>21.0</ele>
        <time>2020-04-18T19:23:53.280Z</time>
      </trkpt>
      <trkpt lat="55.35202994942665" lon="12.089969962835312">
        <ele>21.0</ele>
        <time>2020-04-18T19:23:57.693Z</time>
      </trkpt>
      <trkpt lat="55.35168997943401" lon="12.091029938310385">
        <ele>21.0</ele>
        <time>2020-04-18T19:24:02.117Z</time>
      </trkpt>
      <trkpt lat="55.35155997611582" lon="12.091409973800182">
        <ele>21.0</ele>
        <time>2020-04-18T19:24:06.545Z</time>
      </trkpt>
      <trkpt lat="55.350989922881126" lon="12.092489982023835">
        <ele>21.0</ele>
        <time>2020-04-18T19:24:10.986Z</time>
      </trkpt>
      <trkpt lat="55.350859919562936" lon="12.092809919267893">
        <ele>21.0</ele>
        <time>2020-04-18T19:24:15.431Z</time>
      </trkpt>
      <trkpt lat="55.35079998895526" lon="12.09318995475769">
        <ele>22.0</ele>
        <time>2020-04-18T19:24:19.879Z</time>
      </trkpt>
      <trkpt lat="55.350729916244745" lon="12.093959916383028">
        <ele>23.0</ele>
        <time>2020-04-18T19:24:24.334Z</time>
      </trkpt>
      <trkpt lat="55.35068993456662" lon="12.094129985198379">
        <ele>23.0</ele>
        <time>2020-04-18T19:24:28.791Z</time>
      </trkpt>
      <trkpt lat="55.35060997121036" lon="12.094309944659472">
        <ele>24.0</ele>
        <time>2020-04-18T19:24:33.250Z</time>
      </trkpt>
      <trkpt lat="55.350509975105524" lon="12.094439947977662">
        <ele>24.0</ele>
        <time>2020-04-18T19:24:37.711Z</time>
      </trkpt>
      <trkpt lat="55.35039992071688" lon="12.094489987939596">
        <ele>25.0</ele>
        <time>2020-04-18T19:24:42.174Z</time>
      </trkpt>
      <trkpt lat="55.348429922014475" lon="12.09425998851657">
        <ele>26.0</ele>
        <time>2020-04-18T19:24:46.669Z</time>
      </trkpt>
      <trkpt lat="55.34692310728133" lon="12.094095116481185">
        <ele>26.0</ele>
        <time>2020-04-18T19:24:51.188Z</time>
      </trkpt>
      <trkpt lat="55.346509963274" lon="12.09404993802309">
        <ele>27.0</ele>
        <time>2020-04-18T19:24:55.714Z</time>
      </trkpt>
      <trkpt lat="55.34641994163394" lon="12.094039963558316">
        <ele>28.0</ele>
        <time>2020-04-18T19:25:00.241Z</time>
      </trkpt>
      <trkpt lat="55.34636998549104" lon="12.093999981880188">
        <ele>28.0</ele>
        <time>2020-04-18T19:25:04.769Z</time>
      </trkpt>
      <trkpt lat="55.34633997827768" lon="12.093949941918254">
        <ele>29.0</ele>
        <time>2020-04-18T19:25:09.298Z</time>
      </trkpt>
      <trkpt lat="55.346299996599555" lon="12.093859920278192">
        <ele>29.0</ele>
        <time>2020-04-18T19:25:13.828Z</time>
      </trkpt>
      <trkpt lat="55.3462699893862" lon="12.093599997460842">
        <ele>29.0</ele>
        <time>2020-04-18T19:25:18.360Z</time>
      </trkpt>
      <trkpt lat="55.34624995663762" lon="12.093019969761372">
        <ele>30.0</ele>
        <time>2020-04-18T19:25:22.897Z</time>
      </trkpt>
      <trkpt lat="55.34615993499756" lon="12.093029944226146">
        <ele>29.0</ele>
        <time>2020-04-18T19:25:27.436Z</time>
      </trkpt>
      <trkpt lat="55.34598995000124" lon="12.093029944226146">
        <ele>29.0</ele>
        <time>2020-04-18T19:25:31.977Z</time>
      </trkpt>
      <trkpt lat="55.344799971207976" lon="12.09320998750627">
        <ele>29.0</ele>
        <time>2020-04-18T19:25:36.538Z</time>
      </trkpt>
      <trkpt lat="55.34259997308254" lon="12.093469994142652">
        <ele>28.0</ele>
        <time>2020-04-18T19:25:41.134Z</time>
      </trkpt>
      <trkpt lat="55.342439962551" lon="12.093459935858846">
        <ele>27.0</ele>
        <time>2020-04-18T19:25:45.733Z</time>
      </trkpt>
      <trkpt lat="55.34235999919474" lon="12.093399921432137">
        <ele>26.0</ele>
        <time>2020-04-18T19:25:50.333Z</time>
      </trkpt>
      <trkpt lat="55.34226997755468" lon="12.093199929222465">
        <ele>25.0</ele>
        <time>2020-04-18T19:25:54.935Z</time>
      </trkpt>
      <trkpt lat="55.34184392541647" lon="12.091134712100029">
        <ele>25.0</ele>
        <time>2020-04-18T19:25:59.557Z</time>
      </trkpt>
      <trkpt lat="55.341809978708625" lon="12.090969923883677">
        <ele>24.0</ele>
        <time>2020-04-18T19:26:04.181Z</time>
      </trkpt>
      <trkpt lat="55.34173998981714" lon="12.090509925037622">
        <ele>23.0</ele>
        <time>2020-04-18T19:26:08.809Z</time>
      </trkpt>
      <trkpt lat="55.34173998981714" lon="12.090169955044985">
        <ele>22.0</ele>
        <time>2020-04-18T19:26:13.440Z</time>
      </trkpt>
      <trkpt lat="55.34229998476803" lon="12.08639994263649">
        <ele>21.0</ele>
        <time>2020-04-18T19:26:18.107Z</time>
      </trkpt>
      <trkpt lat="55.34231993369758" lon="12.085849922150373">
        <ele>20.0</ele>
        <time>2020-04-18T19:26:22.779Z</time>
      </trkpt>
      <trkpt lat="55.34246108494699" lon="12.06963806413114">
        <ele>20.0</ele>
        <time>2020-04-18T19:26:27.599Z</time>
      </trkpt>
      <trkpt lat="55.34246996976435" lon="12.06860993988812">
        <ele>19.0</ele>
        <time>2020-04-18T19:26:32.429Z</time>
      </trkpt>
      <trkpt lat="55.34246996976435" lon="12.068519918248057">
        <ele>18.0</ele>
        <time>2020-04-18T19:26:37.259Z</time>
      </trkpt>
      <trkpt lat="55.34130999818444" lon="12.067979956045747">
        <ele>18.0</ele>
        <time>2020-04-18T19:26:42.109Z</time>
      </trkpt>
      <trkpt lat="55.34115996211767" lon="12.067909967154264">
        <ele>17.0</ele>
        <time>2020-04-18T19:26:46.961Z</time>
      </trkpt>
      <trkpt lat="55.34112995490432" lon="12.067849952727556">
        <ele>17.0</ele>
        <time>2020-04-18T19:26:51.814Z</time>
      </trkpt>
      <trkpt lat="55.340649923309684" lon="12.067579971626401">
        <ele>17.0</ele>
        <time>2020-04-18T19:26:56.675Z</time>
      </trkpt>
      <trkpt lat="55.33956999890506" lon="12.066969936713576">
        <ele>17.0</ele>
        <time>2020-04-18T19:27:01.554Z</time>
      </trkpt>
      <trkpt lat="55.3396699950099" lon="12.06559999845922">
        <ele>17.0</ele>
        <time>2020-04-18T19:27:06.446Z</time>
      </trkpt>
      <trkpt lat="55.339732859283686" lon="12.064565001055598">
        <ele>17.0</ele>
        <time>2020-04-18T19:27:11.347Z</time>
      </trkpt>
      <trkpt lat="55.33979999832809" lon="12.063459930941463">
        <ele>18.0</ele>
        <time>2020-04-18T19:27:16.258Z</time>
      </trkpt>
      <trkpt lat="55.340199982747436" lon="12.057249946519732">
        <ele>18.0</ele>
        <time>2020-04-18T19:27:21.226Z</time>
      </trkpt>
      <trkpt lat="55.34067993052304" lon="12.049919972196221">
        <ele>19.0</ele>
        <time>2020-04-18T19:27:26.262Z</time>
      </trkpt>
      <trkpt lat="55.34070993773639" lon="12.048939960077405">
        <ele>19.0</ele>
        <time>2020-04-18T19:27:31.307Z</time>
      </trkpt>
      <trkpt lat="55.34058999270201" lon="12.048879945650697">
        <ele>20.0</ele>
        <time>2020-04-18T19:27:36.354Z</time>
      </trkpt>
      <trkpt lat="55.33957268111408" lon="12.04875505529344">
        <ele>20.0</ele>
        <time>2020-04-18T19:27:41.417Z</time>
      </trkpt>
      <trkpt lat="55.339449970051646" lon="12.048739967867732">
        <ele>21.0</ele>
        <time>2020-04-18T19:27:46.482Z</time>
      </trkpt>
      <trkpt lat="55.338909924030304" lon="12.048639971762896">
        <ele>22.0</ele>
        <time>2020-04-18T19:27:51.556Z</time>
      </trkpt>
      <trkpt lat="55.33882996067405" lon="12.048639971762896">
        <ele>23.0</ele>
        <time>2020-04-18T19:27:56.631Z</time>
      </trkpt>
      <trkpt lat="55.33872996456921" lon="12.048699986189604">
        <ele>23.0</ele>
        <time>2020-04-18T19:28:01.708Z</time>
      </trkpt>
      <trkpt lat="55.338119929656386" lon="12.04952996224165">
        <ele>23.0</ele>
        <time>2020-04-18T19:28:06.797Z</time>
      </trkpt>
      <trkpt lat="55.33783997409046" lon="12.049869932234287">
        <ele>24.0</ele>
        <time>2020-04-18T19:28:11.892Z</time>
      </trkpt>
      <trkpt lat="55.337429931387305" lon="12.05023999325931">
        <ele>24.0</ele>
        <time>2020-04-18T19:28:16.994Z</time>
      </trkpt>
      <trkpt lat="55.33678997308016" lon="12.050689933821559">
        <ele>25.0</ele>
        <time>2020-04-18T19:28:22.107Z</time>
      </trkpt>
      <trkpt lat="55.33550997264683" lon="12.05137993209064">
        <ele>25.0</ele>
        <time>2020-04-18T19:28:27.242Z</time>
      </trkpt>
      <trkpt lat="55.33541995100677" lon="12.05139996483922">
        <ele>26.0</ele>
        <time>2020-04-18T19:28:32.378Z</time>
      </trkpt>
      <trkpt lat="55.33524996601045" lon="12.051359983161092">
        <ele>26.0</ele>
        <time>2020-04-18T19:28:37.517Z</time>
      </trkpt>
      <trkpt lat="55.33506992273033" lon="12.051279935985804">
        <ele>27.0</ele>
        <time>2020-04-18T19:28:42.659Z</time>
      </trkpt>
      <trkpt lat="55.33487998880446" lon="12.051159990951419">
        <ele>27.0</ele>
        <time>2020-04-18T19:28:47.804Z</time>
      </trkpt>
      <trkpt lat="55.334399957209826" lon="12.050729999318719">
        <ele>28.0</ele>
        <time>2020-04-18T19:28:52.958Z</time>
      </trkpt>
      <trkpt lat="55.333929983899" lon="12.050449959933758">
        <ele>28.0</ele>
        <time>2020-04-18T19:28:58.120Z</time>
      </trkpt>
      <trkpt lat="55.33358993008733" lon="12.050269916653633">
        <ele>28.0</ele>
        <time>2020-04-18T19:29:03.287Z</time>
      </trkpt>
      <trkpt lat="55.3333099745214" lon="12.050149971619248">
        <ele>29.0</ele>
        <time>2020-04-18T19:29:08.459Z</time>
      </trkpt>
      <trkpt lat="55.33324996009469" lon="12.05008995719254">
        <ele>29.0</ele>
        <time>2020-04-18T19:29:13.632Z</time>
      </trkpt>
      <trkpt lat="55.33304996788502" lon="12.049559969455004">
        <ele>29.0</ele>
        <time>2020-04-18T19:29:18.811Z</time>
      </trkpt>
      <trkpt lat="55.33285995014012" lon="12.049139952287078">
        <ele>30.0</ele>
        <time>2020-04-18T19:29:23.995Z</time>
      </trkpt>
      <trkpt lat="55.33154994249344" lon="12.04767999239266">
        <ele>30.0</ele>
        <time>2020-04-18T19:29:29.204Z</time>
      </trkpt>
      <trkpt lat="55.33059381879866" lon="12.046642564237118">
        <ele>30.0</ele>
        <time>2020-04-18T19:29:34.431Z</time>
      </trkpt>
      <trkpt lat="55.33001999370754" lon="12.046019956469536">
        <ele>31.0</ele>
        <time>2020-04-18T19:29:39.668Z</time>
      </trkpt>
      <trkpt lat="55.32787992618978" lon="12.043689955025911">
        <ele>32.0</ele>
        <time>2020-04-18T19:29:44.946Z</time>
      </trkpt>
      <trkpt lat="55.326619958505034" lon="12.042319932952523">
        <ele>32.0</ele>
        <time>2020-04-18T19:29:50.248Z</time>
      </trkpt>
      <trkpt lat="55.326019981876016" lon="12.041599927470088">
        <ele>32.0</ele>
        <time>2020-04-18T19:29:55.561Z</time>
      </trkpt>
      <trkpt lat="55.32494994811714" lon="12.040209956467152">
        <ele>32.0</ele>
        <time>2020-04-18T19:30:00.896Z</time>
      </trkpt>
      <trkpt lat="55.32349736429751" lon="12.038345485925674">
        <ele>32.0</ele>
        <time>2020-04-18T19:30:06.259Z</time>
      </trkpt>
      <trkpt lat="55.32349736429751" lon="12.038345402106643">
        <ele>33.0</ele>
        <time>2020-04-18T19:30:11.622Z</time>
      </trkpt>
      <trkpt lat="55.32349736429751" lon="12.038345485925674">
        <ele>33.0</ele>
        <time>2020-04-18T19:30:16.985Z</time>
      </trkpt>
      <trkpt lat="55.3229399677366" lon="12.03762992285192">
        <ele>33.0</ele>
        <time>2020-04-18T19:30:22.360Z</time>
      </trkpt>
      <trkpt lat="55.32241987064481" lon="12.036959873512387">
        <ele>33.0</ele>
        <time>2020-04-18T19:30:27.745Z</time>
      </trkpt>
      <trkpt lat="55.32241995446384" lon="12.036959957331419">
        <ele>33.0</ele>
        <time>2020-04-18T19:30:33.130Z</time>
      </trkpt>
      <trkpt lat="55.32194998115301" lon="12.036389987915754">
        <ele>33.0</ele>
        <time>2020-04-18T19:30:38.524Z</time>
      </trkpt>
      <trkpt lat="55.321659967303276" lon="12.036109948530793">
        <ele>34.0</ele>
        <time>2020-04-18T19:30:43.923Z</time>
      </trkpt>
      <trkpt lat="55.321549996733665" lon="12.035959996283054">
        <ele>34.0</ele>
        <time>2020-04-18T19:30:49.325Z</time>
      </trkpt>
      <trkpt lat="55.32143994234502" lon="12.035709964111447">
        <ele>35.0</ele>
        <time>2020-04-18T19:30:54.729Z</time>
      </trkpt>
      <trkpt lat="55.321209942921996" lon="12.034639930352569">
        <ele>36.0</ele>
        <time>2020-04-18T19:31:00.144Z</time>
      </trkpt>
      <trkpt lat="55.32110994681716" lon="12.034299960359931">
        <ele>36.0</ele>
        <time>2020-04-18T19:31:05.562Z</time>
      </trkpt>
      <trkpt lat="55.320949936285615" lon="12.033989997580647">
        <ele>37.0</ele>
        <time>2020-04-18T19:31:10.984Z</time>
      </trkpt>
      <trkpt lat="55.320859998464584" lon="12.033829987049103">
        <ele>38.0</ele>
        <time>2020-04-18T19:31:16.408Z</time>
      </trkpt>
      <trkpt lat="55.32069998793304" lon="12.03362999483943">
        <ele>39.0</ele>
        <time>2020-04-18T19:31:21.835Z</time>
      </trkpt>
      <trkpt lat="55.32048993743956" lon="12.03345992602408">
        <ele>40.0</ele>
        <time>2020-04-18T19:31:27.266Z</time>
      </trkpt>
      <trkpt lat="55.32029991969466" lon="12.033349955454469">
        <ele>41.0</ele>
        <time>2020-04-18T19:31:32.700Z</time>
      </trkpt>
      <trkpt lat="55.32005994580686" lon="12.033279966562986">
        <ele>41.0</ele>
        <time>2020-04-18T19:31:38.138Z</time>
      </trkpt>
      <trkpt lat="55.31925997696817" lon="12.033149963244796">
        <ele>42.0</ele>
        <time>2020-04-18T19:31:43.589Z</time>
      </trkpt>
      <trkpt lat="55.31904992647469" lon="12.033169995993376">
        <ele>43.0</ele>
        <time>2020-04-18T19:31:49.044Z</time>
      </trkpt>
      <trkpt lat="55.31893995590508" lon="12.033249959349632">
        <ele>43.0</ele>
        <time>2020-04-18T19:31:54.500Z</time>
      </trkpt>
      <trkpt lat="55.31884993426502" lon="12.033369988203049">
        <ele>43.0</ele>
        <time>2020-04-18T19:31:59.958Z</time>
      </trkpt>
      <trkpt lat="55.31827996484935" lon="12.034559966996312">
        <ele>43.0</ele>
        <time>2020-04-18T19:32:05.430Z</time>
      </trkpt>
      <trkpt lat="55.31754998490214" lon="12.036099974066019">
        <ele>43.0</ele>
        <time>2020-04-18T19:32:10.921Z</time>
      </trkpt>
      <trkpt lat="55.31726994551718" lon="12.03663993626833">
        <ele>42.0</ele>
        <time>2020-04-18T19:32:16.418Z</time>
      </trkpt>
      <trkpt lat="55.3170099388808" lon="12.037059953436255">
        <ele>42.0</ele>
        <time>2020-04-18T19:32:21.921Z</time>
      </trkpt>
      <trkpt lat="55.31610997393727" lon="12.038359986618161">
        <ele>41.0</ele>
        <time>2020-04-18T19:32:27.443Z</time>
      </trkpt>
      <trkpt lat="55.31586991623044" lon="12.038799952715635">
        <ele>41.0</ele>
        <time>2020-04-18T19:32:32.970Z</time>
      </trkpt>
      <trkpt lat="55.31517991796136" lon="12.040369966998696">
        <ele>40.0</ele>
        <time>2020-04-18T19:32:38.515Z</time>
      </trkpt>
      <trkpt lat="55.31467993743718" lon="12.04127999022603">
        <ele>39.0</ele>
        <time>2020-04-18T19:32:44.072Z</time>
      </trkpt>
      <trkpt lat="55.31408993527293" lon="12.042579939588904">
        <ele>38.0</ele>
        <time>2020-04-18T19:32:49.644Z</time>
      </trkpt>
      <trkpt lat="55.31388248316944" lon="12.042974140495062">
        <ele>37.0</ele>
        <time>2020-04-18T19:32:55.221Z</time>
      </trkpt>
      <trkpt lat="55.31358995474875" lon="12.043529944494367">
        <ele>35.0</ele>
        <time>2020-04-18T19:33:00.805Z</time>
      </trkpt>
      <trkpt lat="55.3133799880743" lon="12.043869998306036">
        <ele>35.0</ele>
        <time>2020-04-18T19:33:06.394Z</time>
      </trkpt>
      <trkpt lat="55.3133799880743" lon="12.04385994002223">
        <ele>34.0</ele>
        <time>2020-04-18T19:33:11.983Z</time>
      </trkpt>
      <trkpt lat="55.31319994479418" lon="12.044119946658611">
        <ele>34.0</ele>
        <time>2020-04-18T19:33:17.575Z</time>
      </trkpt>
      <trkpt lat="55.313109923154116" lon="12.044189935550094">
        <ele>33.0</ele>
        <time>2020-04-18T19:33:23.169Z</time>
      </trkpt>
      <trkpt lat="55.313019985333085" lon="12.044189935550094">
        <ele>33.0</ele>
        <time>2020-04-18T19:33:28.764Z</time>
      </trkpt>
      <trkpt lat="55.31260994262993" lon="12.043929928913713">
        <ele>33.0</ele>
        <time>2020-04-18T19:33:34.366Z</time>
      </trkpt>
      <trkpt lat="55.31212999485433" lon="12.043739994987845">
        <ele>33.0</ele>
        <time>2020-04-18T19:33:39.976Z</time>
      </trkpt>
      <trkpt lat="55.311969984322786" lon="12.04372993670404">
        <ele>32.0</ele>
        <time>2020-04-18T19:33:45.589Z</time>
      </trkpt>
      <trkpt lat="55.31159992329776" lon="12.043769918382168">
        <ele>32.0</ele>
        <time>2020-04-18T19:33:51.208Z</time>
      </trkpt>
      <trkpt lat="55.31141996383667" lon="12.043839991092682">
        <ele>32.0</ele>
        <time>2020-04-18T19:33:56.830Z</time>
      </trkpt>
      <trkpt lat="55.31122994609177" lon="12.043949961662292">
        <ele>31.0</ele>
        <time>2020-04-18T19:34:02.455Z</time>
      </trkpt>
      <trkpt lat="55.310289999470115" lon="12.044689999893308">
        <ele>31.0</ele>
        <time>2020-04-18T19:34:08.097Z</time>
      </trkpt>
      <trkpt lat="55.309709971770644" lon="12.045109933242202">
        <ele>31.0</ele>
        <time>2020-04-18T19:34:13.749Z</time>
      </trkpt>
      <trkpt lat="55.309199932962656" lon="12.045499943196774">
        <ele>31.0</ele>
        <time>2020-04-18T19:34:19.410Z</time>
      </trkpt>
      <trkpt lat="55.30888997018337" lon="12.045699935406446">
        <ele>32.0</ele>
        <time>2020-04-18T19:34:25.076Z</time>
      </trkpt>
      <trkpt lat="55.308818724006414" lon="12.04571577720344">
        <ele>32.0</ele>
        <time>2020-04-18T19:34:30.743Z</time>
      </trkpt>
      <trkpt lat="55.30881864018738" lon="12.04571577720344">
        <ele>33.0</ele>
        <time>2020-04-18T19:34:36.410Z</time>
      </trkpt>
      <trkpt lat="55.308818724006414" lon="12.04571577720344">
        <ele>33.0</ele>
        <time>2020-04-18T19:34:42.077Z</time>
      </trkpt>
      <trkpt lat="55.30861998908222" lon="12.045759949833155">
        <ele>34.0</ele>
        <time>2020-04-18T19:34:47.747Z</time>
      </trkpt>
      <trkpt lat="55.308249928057194" lon="12.045739917084575">
        <ele>36.0</ele>
        <time>2020-04-18T19:34:53.423Z</time>
      </trkpt>
      <trkpt lat="55.30808991752565" lon="12.045709993690252">
        <ele>37.0</ele>
        <time>2020-04-18T19:34:59.102Z</time>
      </trkpt>
      <trkpt lat="55.3080699685961" lon="12.045709993690252">
        <ele>39.0</ele>
        <time>2020-04-18T19:35:04.781Z</time>
      </trkpt>
      <trkpt lat="55.30800995416939" lon="12.043269937857985">
        <ele>41.0</ele>
        <time>2020-04-18T19:35:10.482Z</time>
      </trkpt>
      <trkpt lat="55.307929990813136" lon="12.03981994651258">
        <ele>43.0</ele>
        <time>2020-04-18T19:35:16.215Z</time>
      </trkpt>
      <trkpt lat="55.307949939742684" lon="12.035259939730167">
        <ele>46.0</ele>
        <time>2020-04-18T19:35:21.990Z</time>
      </trkpt>
      <trkpt lat="55.307969972491264" lon="12.029349943622947">
        <ele>50.0</ele>
        <time>2020-04-18T19:35:27.819Z</time>
      </trkpt>
      <trkpt lat="55.307969972491264" lon="12.029219940304756">
        <ele>52.0</ele>
        <time>2020-04-18T19:35:33.649Z</time>
      </trkpt>
      <trkpt lat="55.30795999802649" lon="12.028719959780574">
        <ele>55.0</ele>
        <time>2020-04-18T19:35:39.483Z</time>
      </trkpt>
      <trkpt lat="55.307969972491264" lon="12.027309956029058">
        <ele>58.0</ele>
        <time>2020-04-18T19:35:45.330Z</time>
      </trkpt>
      <trkpt lat="55.30798992142081" lon="12.02683998271823">
        <ele>60.0</ele>
        <time>2020-04-18T19:35:51.182Z</time>
      </trkpt>
      <trkpt lat="55.30802998691797" lon="12.026469921693206">
        <ele>63.0</ele>
        <time>2020-04-18T19:35:57.037Z</time>
      </trkpt>
      <trkpt lat="55.30812998302281" lon="12.026109918951988">
        <ele>64.0</ele>
        <time>2020-04-18T19:36:02.896Z</time>
      </trkpt>
      <trkpt lat="55.308379931375384" lon="12.025599963963032">
        <ele>66.0</ele>
        <time>2020-04-18T19:36:08.761Z</time>
      </trkpt>
      <trkpt lat="55.31024389900267" lon="12.022362118586898">
        <ele>67.0</ele>
        <time>2020-04-18T19:36:14.668Z</time>
      </trkpt>
      <trkpt lat="55.31024389900267" lon="12.022362034767866">
        <ele>68.0</ele>
        <time>2020-04-18T19:36:20.575Z</time>
      </trkpt>
      <trkpt lat="55.31031992286444" lon="12.022229935973883">
        <ele>68.0</ele>
        <time>2020-04-18T19:36:26.484Z</time>
      </trkpt>
      <trkpt lat="55.3104099445045" lon="12.022009994834661">
        <ele>67.0</ele>
        <time>2020-04-18T19:36:32.395Z</time>
      </trkpt>
      <trkpt lat="55.31046995893121" lon="12.021739929914474">
        <ele>66.0</ele>
        <time>2020-04-18T19:36:38.309Z</time>
      </trkpt>
      <trkpt lat="55.31047993339598" lon="12.021529963240027">
        <ele>65.0</ele>
        <time>2020-04-18T19:36:44.225Z</time>
      </trkpt>
      <trkpt lat="55.31043995171785" lon="12.021109946072102">
        <ele>63.0</ele>
        <time>2020-04-18T19:36:50.145Z</time>
      </trkpt>
      <trkpt lat="55.31014993786812" lon="12.018809951841831">
        <ele>61.0</ele>
        <time>2020-04-18T19:36:56.086Z</time>
      </trkpt>
      <trkpt lat="55.30995992012322" lon="12.017829939723015">
        <ele>59.0</ele>
        <time>2020-04-18T19:37:02.037Z</time>
      </trkpt>
      <trkpt lat="55.308787962421775" lon="12.009711898863316">
        <ele>56.0</ele>
        <time>2020-04-18T19:37:08.064Z</time>
      </trkpt>
      <trkpt lat="55.308787962421775" lon="12.009711731225252">
        <ele>54.0</ele>
        <time>2020-04-18T19:37:14.091Z</time>
      </trkpt>
      <trkpt lat="55.30872995965183" lon="12.00930998660624">
        <ele>50.0</ele>
        <time>2020-04-18T19:37:20.122Z</time>
      </trkpt>
      <trkpt lat="55.30856994912028" lon="12.008349923416972">
        <ele>48.0</ele>
        <time>2020-04-18T19:37:26.162Z</time>
      </trkpt>
      <trkpt lat="55.30848998576403" lon="12.007879950106144">
        <ele>47.0</ele>
        <time>2020-04-18T19:37:32.207Z</time>
      </trkpt>
      <trkpt lat="55.30847992748022" lon="12.006779992952943">
        <ele>46.0</ele>
        <time>2020-04-18T19:37:38.262Z</time>
      </trkpt>
      <trkpt lat="55.30845997855067" lon="12.006519986316562">
        <ele>45.0</ele>
        <time>2020-04-18T19:37:44.319Z</time>
      </trkpt>
      <trkpt lat="55.308379931375384" lon="12.006199965253472">
        <ele>44.0</ele>
        <time>2020-04-18T19:37:50.379Z</time>
      </trkpt>
      <trkpt lat="55.30812998302281" lon="12.005619937554002">
        <ele>44.0</ele>
        <time>2020-04-18T19:37:56.446Z</time>
      </trkpt>
      <trkpt lat="55.3080699685961" lon="12.005369989201427">
        <ele>45.0</ele>
        <time>2020-04-18T19:38:02.515Z</time>
      </trkpt>
      <trkpt lat="55.30793996527791" lon="12.004149919375777">
        <ele>45.0</ele>
        <time>2020-04-18T19:38:08.596Z</time>
      </trkpt>
      <trkpt lat="55.30784994363785" lon="12.003689920529723">
        <ele>46.0</ele>
        <time>2020-04-18T19:38:14.681Z</time>
      </trkpt>
      <trkpt lat="55.30777811072767" lon="12.003496466204524">
        <ele>47.0</ele>
        <time>2020-04-18T19:38:20.768Z</time>
      </trkpt>
      <trkpt lat="55.307778026908636" lon="12.003496214747429">
        <ele>49.0</ele>
        <time>2020-04-18T19:38:26.855Z</time>
      </trkpt>
      <trkpt lat="55.30771994031966" lon="12.003339976072311">
        <ele>52.0</ele>
        <time>2020-04-18T19:38:32.944Z</time>
      </trkpt>
      <trkpt lat="55.30754995532334" lon="12.003089943900704">
        <ele>54.0</ele>
        <time>2020-04-18T19:38:39.037Z</time>
      </trkpt>
      <trkpt lat="55.307239992544055" lon="12.002809988334775">
        <ele>56.0</ele>
        <time>2020-04-18T19:38:45.135Z</time>
      </trkpt>
      <trkpt lat="55.30717997811735" lon="12.002729941159487">
        <ele>58.0</ele>
        <time>2020-04-18T19:38:51.234Z</time>
      </trkpt>
      <trkpt lat="55.307089956477284" lon="12.002719966694713">
        <ele>60.0</ele>
        <time>2020-04-18T19:38:57.335Z</time>
      </trkpt>
      <trkpt lat="55.306789968162775" lon="12.002559956163168">
        <ele>62.0</ele>
        <time>2020-04-18T19:39:03.441Z</time>
      </trkpt>
      <trkpt lat="55.306619983166456" lon="12.002489967271686">
        <ele>64.0</ele>
        <time>2020-04-18T19:39:09.550Z</time>
      </trkpt>
      <trkpt lat="55.30425997450948" lon="12.00120996683836">
        <ele>66.0</ele>
        <time>2020-04-18T19:39:15.698Z</time>
      </trkpt>
      <trkpt lat="55.303349951282144" lon="12.000709986314178">
        <ele>68.0</ele>
        <time>2020-04-18T19:39:21.862Z</time>
      </trkpt>
      <trkpt lat="55.301849925890565" lon="11.999869951978326">
        <ele>69.0</ele>
        <time>2020-04-18T19:39:28.051Z</time>
      </trkpt>
      <trkpt lat="55.30090997926891" lon="11.999389920383692">
        <ele>70.0</ele>
        <time>2020-04-18T19:39:34.255Z</time>
      </trkpt>
      <trkpt lat="55.30054997652769" lon="11.999259917065501">
        <ele>72.0</ele>
        <time>2020-04-18T19:39:40.465Z</time>
      </trkpt>
      <trkpt lat="55.29983994551003" lon="11.999079957604408">
        <ele>72.0</ele>
        <time>2020-04-18T19:39:46.687Z</time>
      </trkpt>
      <trkpt lat="55.29889999888837" lon="11.998869990929961">
        <ele>73.0</ele>
        <time>2020-04-18T19:39:52.924Z</time>
      </trkpt>
      <trkpt lat="55.29877997003496" lon="11.998819950968027">
        <ele>73.0</ele>
        <time>2020-04-18T19:39:59.163Z</time>
      </trkpt>
      <trkpt lat="55.29869992285967" lon="11.998749962076545">
        <ele>73.0</ele>
        <time>2020-04-18T19:40:05.403Z</time>
      </trkpt>
      <trkpt lat="55.298629933968186" lon="11.998619958758354">
        <ele>73.0</ele>
        <time>2020-04-18T19:40:11.645Z</time>
      </trkpt>
      <trkpt lat="55.29841996729374" lon="11.998019982129335">
        <ele>72.0</ele>
        <time>2020-04-18T19:40:17.894Z</time>
      </trkpt>
      <trkpt lat="55.298259956762195" lon="11.998209999874234">
        <ele>72.0</ele>
        <time>2020-04-18T19:40:24.146Z</time>
      </trkpt>
      <trkpt lat="55.29816993512213" lon="11.997919986024499">
        <ele>71.0</ele>
        <time>2020-04-18T19:40:30.401Z</time>
      </trkpt>
      <trkpt lat="55.298129953444004" lon="11.997589990496635">
        <ele>70.0</ele>
        <time>2020-04-18T19:40:36.659Z</time>
      </trkpt>
      <trkpt lat="55.29817999340594" lon="11.997229987755418">
        <ele>69.0</ele>
        <time>2020-04-18T19:40:42.920Z</time>
      </trkpt>
      <trkpt lat="55.298389960080385" lon="11.996619952842593">
        <ele>67.0</ele>
        <time>2020-04-18T19:40:49.188Z</time>
      </trkpt>
      <trkpt lat="55.29847998172045" lon="11.996229942888021">
        <ele>66.0</ele>
        <time>2020-04-18T19:40:55.460Z</time>
      </trkpt>
      <trkpt lat="55.29865994118154" lon="11.995679922401905">
        <ele>65.0</ele>
        <time>2020-04-18T19:41:01.737Z</time>
      </trkpt>
      <trkpt lat="55.29886999167502" lon="11.99527993798256">
        <ele>64.0</ele>
        <time>2020-04-18T19:41:08.019Z</time>
      </trkpt>
      <trkpt lat="55.29918992891908" lon="11.994779957458377">
        <ele>63.0</ele>
        <time>2020-04-18T19:41:14.308Z</time>
      </trkpt>
      <trkpt lat="55.29963995330036" lon="11.994089959189296">
        <ele>63.0</ele>
        <time>2020-04-18T19:41:20.607Z</time>
      </trkpt>
      <trkpt lat="55.2999899815768" lon="11.992889922112226">
        <ele>62.0</ele>
        <time>2020-04-18T19:41:26.918Z</time>
      </trkpt>
      <trkpt lat="55.30008997768164" lon="11.992579959332943">
        <ele>62.0</ele>
        <time>2020-04-18T19:41:33.232Z</time>
      </trkpt>
      <trkpt lat="55.30020992271602" lon="11.992309978231788">
        <ele>61.0</ele>
        <time>2020-04-18T19:41:39.549Z</time>
      </trkpt>
      <trkpt lat="55.300475461408496" lon="11.991843106225133">
        <ele>61.0</ele>
        <time>2020-04-18T19:41:45.872Z</time>
      </trkpt>
      <trkpt lat="55.30047554522753" lon="11.991842854768038">
        <ele>60.0</ele>
        <time>2020-04-18T19:41:52.195Z</time>
      </trkpt>
      <trkpt lat="55.30049993656576" lon="11.9917999394238">
        <ele>60.0</ele>
        <time>2020-04-18T19:41:58.519Z</time>
      </trkpt>
      <trkpt lat="55.30061996541917" lon="11.991489976644516">
        <ele>60.0</ele>
        <time>2020-04-18T19:42:04.846Z</time>
      </trkpt>
      <trkpt lat="55.30086999759078" lon="11.990519938990474">
        <ele>60.0</ele>
        <time>2020-04-18T19:42:11.183Z</time>
      </trkpt>
      <trkpt lat="55.30106998980045" lon="11.989749977365136">
        <ele>60.0</ele>
        <time>2020-04-18T19:42:17.528Z</time>
      </trkpt>
      <trkpt lat="55.30135991983116" lon="11.988849928602576">
        <ele>59.0</ele>
        <time>2020-04-18T19:42:23.882Z</time>
      </trkpt>
      <trkpt lat="55.301589919254184" lon="11.987899923697114">
        <ele>59.0</ele>
        <time>2020-04-18T19:42:30.246Z</time>
      </trkpt>
      <trkpt lat="55.30182997696102" lon="11.986679937690496">
        <ele>59.0</ele>
        <time>2020-04-18T19:42:36.622Z</time>
      </trkpt>
      <trkpt lat="55.30193994753063" lon="11.985879968851805">
        <ele>59.0</ele>
        <time>2020-04-18T19:42:43.005Z</time>
      </trkpt>
      <trkpt lat="55.30192997306585" lon="11.985549973323941">
        <ele>59.0</ele>
        <time>2020-04-18T19:42:49.391Z</time>
      </trkpt>
      <trkpt lat="55.30183995142579" lon="11.984929963946342">
        <ele>59.0</ele>
        <time>2020-04-18T19:42:55.783Z</time>
      </trkpt>
      <trkpt lat="55.30181991867721" lon="11.984649924561381">
        <ele>59.0</ele>
        <time>2020-04-18T19:43:02.178Z</time>
      </trkpt>
      <trkpt lat="55.30185998417437" lon="11.98397995904088">
        <ele>60.0</ele>
        <time>2020-04-18T19:43:08.579Z</time>
      </trkpt>
      <trkpt lat="55.301979929208755" lon="11.98324997909367">
        <ele>60.0</ele>
        <time>2020-04-18T19:43:14.987Z</time>
      </trkpt>
      <trkpt lat="55.30198998749256" lon="11.98268998414278">
        <ele>60.0</ele>
        <time>2020-04-18T19:43:21.400Z</time>
      </trkpt>
      <trkpt lat="55.30195998027921" lon="11.982399970293045">
        <ele>60.0</ele>
        <time>2020-04-18T19:43:27.816Z</time>
      </trkpt>
      <trkpt lat="55.30182997696102" lon="11.981759928166866">
        <ele>60.0</ele>
        <time>2020-04-18T19:43:34.238Z</time>
      </trkpt>
      <trkpt lat="55.30177993699908" lon="11.98124997317791">
        <ele>60.0</ele>
        <time>2020-04-18T19:43:40.664Z</time>
      </trkpt>
      <trkpt lat="55.3016599919647" lon="11.980589982122183">
        <ele>60.0</ele>
        <time>2020-04-18T19:43:47.097Z</time>
      </trkpt>
      <trkpt lat="55.301549937576056" lon="11.980029987171292">
        <ele>60.0</ele>
        <time>2020-04-18T19:43:53.535Z</time>
      </trkpt>
      <trkpt lat="55.30152998864651" lon="11.979609970003366">
        <ele>61.0</ele>
        <time>2020-04-18T19:43:59.977Z</time>
      </trkpt>
      <trkpt lat="55.301569970324636" lon="11.979019967839122">
        <ele>61.0</ele>
        <time>2020-04-18T19:44:06.425Z</time>
      </trkpt>
      <trkpt lat="55.30135991983116" lon="11.978829950094223">
        <ele>61.0</ele>
        <time>2020-04-18T19:44:12.876Z</time>
      </trkpt>
      <trkpt lat="55.300109926611185" lon="11.977439979091287">
        <ele>62.0</ele>
        <time>2020-04-18T19:44:19.351Z</time>
      </trkpt>
      <trkpt lat="55.299079958349466" lon="11.97656993754208">
        <ele>63.0</ele>
        <time>2020-04-18T19:44:25.844Z</time>
      </trkpt>
      <trkpt lat="55.29834997840226" lon="11.976069957017899">
        <ele>63.0</ele>
        <time>2020-04-18T19:44:32.350Z</time>
      </trkpt>
      <trkpt lat="55.29710995964706" lon="11.975329918786883">
        <ele>64.0</ele>
        <time>2020-04-18T19:44:38.877Z</time>
      </trkpt>
      <trkpt lat="55.29646991752088" lon="11.97488995268941">
        <ele>65.0</ele>
        <time>2020-04-18T19:44:45.415Z</time>
      </trkpt>
      <trkpt lat="55.296219969168305" lon="11.974649978801608">
        <ele>66.0</ele>
        <time>2020-04-18T19:44:51.958Z</time>
      </trkpt>
      <trkpt lat="55.295079946517944" lon="11.973559996113181">
        <ele>67.0</ele>
        <time>2020-04-18T19:44:58.521Z</time>
      </trkpt>
      <trkpt lat="55.29458658769727" lon="11.973035708069801">
        <ele>68.0</ele>
        <time>2020-04-18T19:45:05.094Z</time>
      </trkpt>
      <trkpt lat="55.294586420059204" lon="11.973035540431738">
        <ele>68.0</ele>
        <time>2020-04-18T19:45:11.667Z</time>
      </trkpt>
      <trkpt lat="55.2944399882108" lon="11.972879972308874">
        <ele>69.0</ele>
        <time>2020-04-18T19:45:18.242Z</time>
      </trkpt>
      <trkpt lat="55.29383992776275" lon="11.972179999575019">
        <ele>69.0</ele>
        <time>2020-04-18T19:45:24.829Z</time>
      </trkpt>
      <trkpt lat="55.29358997941017" lon="11.971889985725284">
        <ele>69.0</ele>
        <time>2020-04-18T19:45:31.421Z</time>
      </trkpt>
      <trkpt lat="55.29280995950103" lon="11.971059925854206">
        <ele>69.0</ele>
        <time>2020-04-18T19:45:38.027Z</time>
      </trkpt>
      <trkpt lat="55.29211996123195" lon="11.970449974760413">
        <ele>68.0</ele>
        <time>2020-04-18T19:45:44.646Z</time>
      </trkpt>
      <trkpt lat="55.29179994016886" lon="11.970219975337386">
        <ele>68.0</ele>
        <time>2020-04-18T19:45:51.270Z</time>
      </trkpt>
      <trkpt lat="55.29052999801934" lon="11.969439955428243">
        <ele>67.0</ele>
        <time>2020-04-18T19:45:57.916Z</time>
      </trkpt>
      <trkpt lat="55.29026999138296" lon="11.969269970431924">
        <ele>66.0</ele>
        <time>2020-04-18T19:46:04.566Z</time>
      </trkpt>
      <trkpt lat="55.29014644213021" lon="11.969088837504387">
        <ele>65.0</ele>
        <time>2020-04-18T19:46:11.219Z</time>
      </trkpt>
      <trkpt lat="55.29015842825174" lon="11.969064697623253">
        <ele>64.0</ele>
        <time>2020-04-18T19:46:17.872Z</time>
      </trkpt>
      <trkpt lat="55.289849638938904" lon="11.968574523925781">
        <ele>63.0</ele>
        <time>2020-04-18T19:46:24.532Z</time>
      </trkpt>
      <trkpt lat="55.28965786099434" lon="11.968427170068026">
        <ele>61.0</ele>
        <time>2020-04-18T19:46:31.195Z</time>
      </trkpt>
      <trkpt lat="55.28947949409485" lon="11.968290125951171">
        <ele>60.0</ele>
        <time>2020-04-18T19:46:37.861Z</time>
      </trkpt>
      <trkpt lat="55.28913608752191" lon="11.968027353286743">
        <ele>58.0</ele>
        <time>2020-04-18T19:46:44.533Z</time>
      </trkpt>
      <trkpt lat="55.28893232345581" lon="11.967705404385924">
        <ele>55.0</ele>
        <time>2020-04-18T19:46:51.210Z</time>
      </trkpt>
      <trkpt lat="55.28876602649689" lon="11.967217242345214">
        <ele>53.0</ele>
        <time>2020-04-18T19:46:57.892Z</time>
      </trkpt>
      <trkpt lat="55.288572907447815" lon="11.966278553009033">
        <ele>52.0</ele>
        <time>2020-04-18T19:47:04.583Z</time>
      </trkpt>
      <trkpt lat="55.28857299126685" lon="11.966278553009033">
        <ele>50.0</ele>
        <time>2020-04-18T19:47:11.274Z</time>
      </trkpt>
      <trkpt lat="55.288288509473205" lon="11.965672289952636">
        <ele>48.0</ele>
        <time>2020-04-18T19:47:17.972Z</time>
      </trkpt>
      <trkpt lat="55.287816524505615" lon="11.965382695198059">
        <ele>47.0</ele>
        <time>2020-04-18T19:47:24.678Z</time>
      </trkpt>
      <trkpt lat="55.28660408221185" lon="11.96510910987854">
        <ele>45.0</ele>
        <time>2020-04-18T19:47:31.404Z</time>
      </trkpt>
      <trkpt lat="55.28600871562958" lon="11.96459949016571">
        <ele>44.0</ele>
        <time>2020-04-18T19:47:38.140Z</time>
      </trkpt>
      <trkpt lat="55.28574049472809" lon="11.964159607887268">
        <ele>43.0</ele>
        <time>2020-04-18T19:47:44.882Z</time>
      </trkpt>
      <trkpt lat="55.28448530472815" lon="11.9610910769552">
        <ele>42.0</ele>
        <time>2020-04-18T19:47:51.659Z</time>
      </trkpt>
      <trkpt lat="55.28428137302399" lon="11.960608279332519">
        <ele>42.0</ele>
        <time>2020-04-18T19:47:58.441Z</time>
      </trkpt>
      <trkpt lat="55.284039890393615" lon="11.959980642423034">
        <ele>43.0</ele>
        <time>2020-04-18T19:48:05.230Z</time>
      </trkpt>
      <trkpt lat="55.283819949254394" lon="11.959106242284179">
        <ele>43.0</ele>
        <time>2020-04-18T19:48:12.028Z</time>
      </trkpt>
      <trkpt lat="55.2836053725332" lon="11.958655714988708">
        <ele>44.0</ele>
        <time>2020-04-18T19:48:18.831Z</time>
      </trkpt>
      <trkpt lat="55.28366982936859" lon="11.958146095275879">
        <ele>46.0</ele>
        <time>2020-04-18T19:48:25.639Z</time>
      </trkpt>
      <trkpt lat="55.28363219462335" lon="11.954803979024291">
        <ele>47.0</ele>
        <time>2020-04-18T19:48:32.478Z</time>
      </trkpt>
      <trkpt lat="55.28390577994287" lon="11.94982043467462">
        <ele>49.0</ele>
        <time>2020-04-18T19:48:39.363Z</time>
      </trkpt>
      <trkpt lat="55.284007703885436" lon="11.948382770642638">
        <ele>51.0</ele>
        <time>2020-04-18T19:48:46.261Z</time>
      </trkpt>
      <trkpt lat="55.28426536358893" lon="11.946698343381286">
        <ele>53.0</ele>
        <time>2020-04-18T19:48:53.175Z</time>
      </trkpt>
      <trkpt lat="55.284619415178895" lon="11.944772601127625">
        <ele>55.0</ele>
        <time>2020-04-18T19:49:00.107Z</time>
      </trkpt>
      <trkpt lat="55.284817898646" lon="11.944289719685912">
        <ele>56.0</ele>
        <time>2020-04-18T19:49:07.045Z</time>
      </trkpt>
      <trkpt lat="55.284554874524474" lon="11.944230794906616">
        <ele>58.0</ele>
        <time>2020-04-18T19:49:13.987Z</time>
      </trkpt>
      <trkpt lat="55.284554958343506" lon="11.944230794906616">
        <ele>59.0</ele>
        <time>2020-04-18T19:49:20.929Z</time>
      </trkpt>
      <trkpt lat="55.28392195701599" lon="11.943823099136353">
        <ele>60.0</ele>
        <time>2020-04-18T19:49:27.882Z</time>
      </trkpt>
      <trkpt lat="55.283090472221375" lon="11.943490505218506">
        <ele>60.0</ele>
        <time>2020-04-18T19:49:34.849Z</time>
      </trkpt>
      <trkpt lat="55.282264268025756" lon="11.943351030349731">
        <ele>61.0</ele>
        <time>2020-04-18T19:49:41.829Z</time>
      </trkpt>
      <trkpt lat="55.28117009438574" lon="11.94386056624353">
        <ele>61.0</ele>
        <time>2020-04-18T19:49:48.827Z</time>
      </trkpt>
      <trkpt lat="55.28073012828827" lon="11.944053685292602">
        <ele>61.0</ele>
        <time>2020-04-18T19:49:55.832Z</time>
      </trkpt>
      <trkpt lat="55.2807302121073" lon="11.944053685292602">
        <ele>61.0</ele>
        <time>2020-04-18T19:50:02.837Z</time>
      </trkpt>
      <trkpt lat="55.27950167655945" lon="11.944627678021789">
        <ele>61.0</ele>
        <time>2020-04-18T19:50:09.863Z</time>
      </trkpt>
      <trkpt lat="55.278021013364196" lon="11.945856213569641">
        <ele>61.0</ele>
        <time>2020-04-18T19:50:16.915Z</time>
      </trkpt>
      <trkpt lat="55.27802109718323" lon="11.945856213569641">
        <ele>62.0</ele>
        <time>2020-04-18T19:50:23.967Z</time>
      </trkpt>
      <trkpt lat="55.27747392654419" lon="11.946446215733886">
        <ele>62.0</ele>
        <time>2020-04-18T19:50:31.029Z</time>
      </trkpt>
      <trkpt lat="55.27717879973352" lon="11.946757435798645">
        <ele>63.0</ele>
        <time>2020-04-18T19:50:38.097Z</time>
      </trkpt>
      <trkpt lat="55.276899933815" lon="11.94687008857727">
        <ele>64.0</ele>
        <time>2020-04-18T19:50:45.169Z</time>
      </trkpt>
      <trkpt lat="55.27570358477533" lon="11.946955919265747">
        <ele>65.0</ele>
        <time>2020-04-18T19:50:52.261Z</time>
      </trkpt>
      <trkpt lat="55.275097489356995" lon="11.946741258725524">
        <ele>66.0</ele>
        <time>2020-04-18T19:50:59.362Z</time>
      </trkpt>
      <trkpt lat="55.27448586188257" lon="11.946290647611022">
        <ele>68.0</ele>
        <time>2020-04-18T19:51:06.474Z</time>
      </trkpt>
      <trkpt lat="55.27352571487427" lon="11.945856213569641">
        <ele>69.0</ele>
        <time>2020-04-18T19:51:13.602Z</time>
      </trkpt>
      <trkpt lat="55.272576129063964" lon="11.945453882217407">
        <ele>71.0</ele>
        <time>2020-04-18T19:51:20.746Z</time>
      </trkpt>
      <trkpt lat="55.272576212882996" lon="11.945453882217407">
        <ele>72.0</ele>
        <time>2020-04-18T19:51:27.890Z</time>
      </trkpt>
      <trkpt lat="55.27224889956415" lon="11.945239305496216">
        <ele>74.0</ele>
        <time>2020-04-18T19:51:35.039Z</time>
      </trkpt>
      <trkpt lat="55.271857380867004" lon="11.944826245307922">
        <ele>75.0</ele>
        <time>2020-04-18T19:51:42.196Z</time>
      </trkpt>
      <trkpt lat="55.271572982892394" lon="11.94439172744751">
        <ele>77.0</ele>
        <time>2020-04-18T19:51:49.359Z</time>
      </trkpt>
      <trkpt lat="55.271057998761535" lon="11.943265115842223">
        <ele>78.0</ele>
        <time>2020-04-18T19:51:56.535Z</time>
      </trkpt>
      <trkpt lat="55.27061912231147" lon="11.943347929045558">
        <ele>80.0</ele>
        <time>2020-04-18T19:52:03.718Z</time>
      </trkpt>
      <trkpt lat="55.27061903849244" lon="11.94334801286459">
        <ele>81.0</ele>
        <time>2020-04-18T19:52:10.901Z</time>
      </trkpt>
      <trkpt lat="55.27061912231147" lon="11.943347929045558">
        <ele>80.0</ele>
        <time>2020-04-18T19:52:18.084Z</time>
      </trkpt>
      <trkpt lat="55.2710581663996" lon="11.943265115842223">
        <ele>84.0</ele>
        <time>2020-04-18T19:52:25.274Z</time>
      </trkpt>
      <trkpt lat="55.27096722275019" lon="11.942983902990818">
        <ele>86.0</ele>
        <time>2020-04-18T19:52:32.467Z</time>
      </trkpt>
      <trkpt lat="55.270602107048035" lon="11.941854357719421">
        <ele>88.0</ele>
        <time>2020-04-18T19:52:39.672Z</time>
      </trkpt>
      <trkpt lat="55.2704035397619" lon="11.940824389457703">
        <ele>90.0</ele>
        <time>2020-04-18T19:52:46.887Z</time>
      </trkpt>
      <trkpt lat="55.27032860554755" lon="11.938678622245789">
        <ele>91.0</ele>
        <time>2020-04-18T19:52:54.121Z</time>
      </trkpt>
      <trkpt lat="55.27034453116357" lon="11.936200261116028">
        <ele>93.0</ele>
        <time>2020-04-18T19:53:01.378Z</time>
      </trkpt>
      <trkpt lat="55.2701461315155" lon="11.933517968282104">
        <ele>95.0</ele>
        <time>2020-04-18T19:53:08.660Z</time>
      </trkpt>
      <trkpt lat="55.269336020573974" lon="11.929677044972777">
        <ele>96.0</ele>
        <time>2020-04-18T19:53:15.979Z</time>
      </trkpt>
      <trkpt lat="55.26916972361505" lon="11.92789077758789">
        <ele>97.0</ele>
        <time>2020-04-18T19:53:23.315Z</time>
      </trkpt>
      <trkpt lat="55.26916980743408" lon="11.92789077758789">
        <ele>98.0</ele>
        <time>2020-04-18T19:53:30.651Z</time>
      </trkpt>
      <trkpt lat="55.269062435254455" lon="11.926447749137878">
        <ele>98.0</ele>
        <time>2020-04-18T19:53:38.000Z</time>
      </trkpt>
      <trkpt lat="55.268912399187684" lon="11.925852298736572">
        <ele>99.0</ele>
        <time>2020-04-18T19:53:45.355Z</time>
      </trkpt>
      <trkpt lat="55.2681880351156" lon="11.924108862876892">
        <ele>99.0</ele>
        <time>2020-04-18T19:53:52.730Z</time>
      </trkpt>
      <trkpt lat="55.26776424609125" lon="11.922306418418884">
        <ele>98.0</ele>
        <time>2020-04-18T19:54:00.123Z</time>
      </trkpt>
      <trkpt lat="55.26762477122247" lon="11.921421205624938">
        <ele>97.0</ele>
        <time>2020-04-18T19:54:07.524Z</time>
      </trkpt>
      <trkpt lat="55.267624855041504" lon="11.921421205624938">
        <ele>97.0</ele>
        <time>2020-04-18T19:54:14.925Z</time>
      </trkpt>
      <trkpt lat="55.267345905303955" lon="11.919125318527222">
        <ele>96.0</ele>
        <time>2020-04-18T19:54:22.348Z</time>
      </trkpt>
      <trkpt lat="55.267120599746704" lon="11.91765010356903">
        <ele>95.0</ele>
        <time>2020-04-18T19:54:29.785Z</time>
      </trkpt>
      <trkpt lat="55.266879200935364" lon="11.916834712028503">
        <ele>93.0</ele>
        <time>2020-04-18T19:54:37.230Z</time>
      </trkpt>
      <trkpt lat="55.266594886779785" lon="11.916271448135376">
        <ele>92.0</ele>
        <time>2020-04-18T19:54:44.682Z</time>
      </trkpt>
      <trkpt lat="55.26530206203461" lon="11.914340173825622">
        <ele>91.0</ele>
        <time>2020-04-18T19:54:52.161Z</time>
      </trkpt>
      <trkpt lat="55.26151478290558" lon="11.91015592776239">
        <ele>90.0</ele>
        <time>2020-04-18T19:54:59.712Z</time>
      </trkpt>
      <trkpt lat="55.2598678227514" lon="11.90840712748468">
        <ele>89.0</ele>
        <time>2020-04-18T19:55:07.294Z</time>
      </trkpt>
      <trkpt lat="55.25971233844757" lon="11.908267652615905">
        <ele>88.0</ele>
        <time>2020-04-18T19:55:14.879Z</time>
      </trkpt>
      <trkpt lat="55.25928318500519" lon="11.90813354216516">
        <ele>88.0</ele>
        <time>2020-04-18T19:55:22.471Z</time>
      </trkpt>
      <trkpt lat="55.25928176008165" lon="11.908318866044283">
        <ele>88.0</ele>
        <time>2020-04-18T19:55:30.064Z</time>
      </trkpt>
      <trkpt lat="55.25928176008165" lon="11.908319117501378">
        <ele>89.0</ele>
        <time>2020-04-18T19:55:37.657Z</time>
      </trkpt>
      <trkpt lat="55.25927354581654" lon="11.909417482092977">
        <ele>90.0</ele>
        <time>2020-04-18T19:55:45.260Z</time>
      </trkpt>
      <trkpt lat="55.25926700793207" lon="11.910279393196106">
        <ele>92.0</ele>
        <time>2020-04-18T19:55:52.871Z</time>
      </trkpt>
      <trkpt lat="55.25895595550537" lon="11.917912876233459">
        <ele>94.0</ele>
        <time>2020-04-18T19:56:00.552Z</time>
      </trkpt>
      <trkpt lat="55.25897749699652" lon="11.919699311256409">
        <ele>96.0</ele>
        <time>2020-04-18T19:56:08.250Z</time>
      </trkpt>
      <trkpt lat="55.259186709299684" lon="11.921946918591857">
        <ele>99.0</ele>
        <time>2020-04-18T19:56:15.969Z</time>
      </trkpt>
      <trkpt lat="55.25918654166162" lon="11.921946918591857">
        <ele>101.0</ele>
        <time>2020-04-18T19:56:23.688Z</time>
      </trkpt>
      <trkpt lat="55.25970160961151" lon="11.925337314605713">
        <ele>105.0</ele>
        <time>2020-04-18T19:56:31.439Z</time>
      </trkpt>
      <trkpt lat="55.25975525379181" lon="11.925686001777649">
        <ele>107.0</ele>
        <time>2020-04-18T19:56:39.193Z</time>
      </trkpt>
      <trkpt lat="55.259830355644226" lon="11.926190173253417">
        <ele>110.0</ele>
        <time>2020-04-18T19:56:46.952Z</time>
      </trkpt>
      <trkpt lat="55.260393703356385" lon="11.929789697751403">
        <ele>112.0</ele>
        <time>2020-04-18T19:56:54.745Z</time>
      </trkpt>
      <trkpt lat="55.26043117046356" lon="11.930025732144713">
        <ele>114.0</ele>
        <time>2020-04-18T19:57:02.540Z</time>
      </trkpt>
      <trkpt lat="55.260656559839845" lon="11.931506395339966">
        <ele>116.0</ele>
        <time>2020-04-18T19:57:10.349Z</time>
      </trkpt>
      <trkpt lat="55.26065639220178" lon="11.931506395339966">
        <ele>117.0</ele>
        <time>2020-04-18T19:57:18.158Z</time>
      </trkpt>
      <trkpt lat="55.26075839996338" lon="11.932182228192687">
        <ele>118.0</ele>
        <time>2020-04-18T19:57:25.974Z</time>
      </trkpt>
      <trkpt lat="55.261139273643494" lon="11.934623122215271">
        <ele>118.0</ele>
        <time>2020-04-18T19:57:33.813Z</time>
      </trkpt>
      <trkpt lat="55.261150086298585" lon="11.934703588485718">
        <ele>117.0</ele>
        <time>2020-04-18T19:57:41.653Z</time>
      </trkpt>
      <trkpt lat="55.261386036872864" lon="11.936205541715026">
        <ele>116.0</ele>
        <time>2020-04-18T19:57:49.507Z</time>
      </trkpt>
      <trkpt lat="55.261836647987366" lon="11.939129149541259">
        <ele>115.0</ele>
        <time>2020-04-18T19:57:57.389Z</time>
      </trkpt>
      <trkpt lat="55.26190102100372" lon="11.939526116475463">
        <ele>113.0</ele>
        <time>2020-04-18T19:58:05.274Z</time>
      </trkpt>
      <trkpt lat="55.2625931147486" lon="11.94408050738275">
        <ele>111.0</ele>
        <time>2020-04-18T19:58:13.202Z</time>
      </trkpt>
      <trkpt lat="55.26298999786377" lon="11.947765946388245">
        <ele>109.0</ele>
        <time>2020-04-18T19:58:21.165Z</time>
      </trkpt>
      <trkpt lat="55.26306518353522" lon="11.948715448379517">
        <ele>106.0</ele>
        <time>2020-04-18T19:58:29.137Z</time>
      </trkpt>
      <trkpt lat="55.26306509971619" lon="11.948715448379517">
        <ele>103.0</ele>
        <time>2020-04-18T19:58:37.109Z</time>
      </trkpt>
      <trkpt lat="55.26327431201935" lon="11.952261328697205">
        <ele>100.0</ele>
        <time>2020-04-18T19:58:45.113Z</time>
      </trkpt>
      <trkpt lat="55.2634943369776" lon="11.957850968465209">
        <ele>97.0</ele>
        <time>2020-04-18T19:58:53.168Z</time>
      </trkpt>
      <trkpt lat="55.26353716850281" lon="11.959353005513549">
        <ele>93.0</ele>
        <time>2020-04-18T19:59:01.237Z</time>
      </trkpt>
      <trkpt lat="55.263537084683776" lon="11.959353005513549">
        <ele>90.0</ele>
        <time>2020-04-18T19:59:09.306Z</time>
      </trkpt>
      <trkpt lat="55.26353180408478" lon="11.960533261299133">
        <ele>86.0</ele>
        <time>2020-04-18T19:59:17.386Z</time>
      </trkpt>
      <trkpt lat="55.26350498199463" lon="11.963649904355407">
        <ele>81.0</ele>
        <time>2020-04-18T19:59:25.495Z</time>
      </trkpt>
      <trkpt lat="55.2635048981756" lon="11.963649904355407">
        <ele>77.0</ele>
        <time>2020-04-18T19:59:33.604Z</time>
      </trkpt>
      <trkpt lat="55.26342443190515" lon="11.97005501948297">
        <ele>73.0</ele>
        <time>2020-04-18T19:59:41.771Z</time>
      </trkpt>
      <trkpt lat="55.263134920969605" lon="11.972925066947937">
        <ele>69.0</ele>
        <time>2020-04-18T19:59:49.965Z</time>
      </trkpt>
      <trkpt lat="55.26285580359399" lon="11.974410926923156">
        <ele>64.0</ele>
        <time>2020-04-18T19:59:58.173Z</time>
      </trkpt>
      <trkpt lat="55.26245892047882" lon="11.975972056388855">
        <ele>61.0</ele>
        <time>2020-04-18T20:00:06.397Z</time>
      </trkpt>
      <trkpt lat="55.261600613594055" lon="11.978375315666199">
        <ele>57.0</ele>
        <time>2020-04-18T20:00:14.647Z</time>
      </trkpt>
      <trkpt lat="55.26047945022583" lon="11.981449127197266">
        <ele>54.0</ele>
        <time>2020-04-18T20:00:22.930Z</time>
      </trkpt>
      <trkpt lat="55.25975516997278" lon="11.984362006187439">
        <ele>51.0</ele>
        <time>2020-04-18T20:00:31.242Z</time>
      </trkpt>
      <trkpt lat="55.25959976948798" lon="11.985011100769043">
        <ele>49.0</ele>
        <time>2020-04-18T20:00:39.561Z</time>
      </trkpt>
      <trkpt lat="55.259599685668945" lon="11.985011100769043">
        <ele>47.0</ele>
        <time>2020-04-18T20:00:47.880Z</time>
      </trkpt>
      <trkpt lat="55.2588648442179" lon="11.988760745152831">
        <ele>45.0</ele>
        <time>2020-04-18T20:00:56.235Z</time>
      </trkpt>
      <trkpt lat="55.2585107088089" lon="11.990740215405822">
        <ele>44.0</ele>
        <time>2020-04-18T20:01:04.609Z</time>
      </trkpt>
      <trkpt lat="55.25839260779321" lon="11.990965520963073">
        <ele>43.0</ele>
        <time>2020-04-18T20:01:12.986Z</time>
      </trkpt>
      <trkpt lat="55.25829621590674" lon="11.991142630577087">
        <ele>43.0</ele>
        <time>2020-04-18T20:01:21.365Z</time>
      </trkpt>
      <trkpt lat="55.25816738605499" lon="11.99204913340509">
        <ele>42.0</ele>
        <time>2020-04-18T20:01:29.753Z</time>
      </trkpt>
      <trkpt lat="55.25824785232544" lon="11.992290616035461">
        <ele>42.0</ele>
        <time>2020-04-18T20:01:38.143Z</time>
      </trkpt>
      <trkpt lat="55.258306777104735" lon="11.992349540814757">
        <ele>42.0</ele>
        <time>2020-04-18T20:01:46.534Z</time>
      </trkpt>
      <trkpt lat="55.25825045071542" lon="11.992909703403711">
        <ele>43.0</ele>
        <time>2020-04-18T20:01:54.931Z</time>
      </trkpt>
      <trkpt lat="55.25825045071542" lon="11.992909535765648">
        <ele>43.0</ele>
        <time>2020-04-18T20:02:03.328Z</time>
      </trkpt>
      <trkpt lat="55.258141569793224" lon="11.993990633636713">
        <ele>44.0</ele>
        <time>2020-04-18T20:02:11.735Z</time>
      </trkpt>
      <trkpt lat="55.257936799898744" lon="11.99602416716516">
        <ele>45.0</ele>
        <time>2020-04-18T20:02:20.160Z</time>
      </trkpt>
      <trkpt lat="55.25793671607971" lon="11.99602416716516">
        <ele>46.0</ele>
        <time>2020-04-18T20:02:28.585Z</time>
      </trkpt>
      <trkpt lat="55.25790452957153" lon="11.996528506278992">
        <ele>48.0</ele>
        <time>2020-04-18T20:02:37.015Z</time>
      </trkpt>
      <trkpt lat="55.2570032235235" lon="11.995868599042296">
        <ele>49.0</ele>
        <time>2020-04-18T20:02:45.461Z</time>
      </trkpt>
      <trkpt lat="55.255898237228394" lon="11.995525360107422">
        <ele>51.0</ele>
        <time>2020-04-18T20:02:53.925Z</time>
      </trkpt>
      <trkpt lat="55.255898321047425" lon="11.995525360107422">
        <ele>53.0</ele>
        <time>2020-04-18T20:03:02.389Z</time>
      </trkpt>
      <trkpt lat="55.25578022003174" lon="11.995375072583556">
        <ele>54.0</ele>
        <time>2020-04-18T20:03:10.855Z</time>
      </trkpt>
      <trkpt lat="55.25550127029419" lon="11.99505865573883">
        <ele>56.0</ele>
        <time>2020-04-18T20:03:19.326Z</time>
      </trkpt>
      <trkpt lat="55.25547981262207" lon="11.995053207501769">
        <ele>58.0</ele>
        <time>2020-04-18T20:03:27.798Z</time>
      </trkpt>
      <trkpt lat="55.255367159843445" lon="11.99501565657556">
        <ele>60.0</ele>
        <time>2020-04-18T20:03:36.272Z</time>
      </trkpt>
      <trkpt lat="55.254648327827454" lon="11.994795799255371">
        <ele>62.0</ele>
        <time>2020-04-18T20:03:44.757Z</time>
      </trkpt>
      <trkpt lat="55.2541761752218" lon="11.994516849517822">
        <ele>64.0</ele>
        <time>2020-04-18T20:03:53.250Z</time>
      </trkpt>
      <trkpt lat="55.253543173894286" lon="11.994361197575927">
        <ele>67.0</ele>
        <time>2020-04-18T20:04:01.754Z</time>
      </trkpt>
      <trkpt lat="55.25330730713904" lon="11.994184255599976">
        <ele>69.0</ele>
        <time>2020-04-18T20:04:10.262Z</time>
      </trkpt>
      <trkpt lat="55.25286725722253" lon="11.9935941696167">
        <ele>71.0</ele>
        <time>2020-04-18T20:04:18.779Z</time>
      </trkpt>
      <trkpt lat="55.252287900075316" lon="11.99327222071588">
        <ele>74.0</ele>
        <time>2020-04-18T20:04:27.305Z</time>
      </trkpt>
      <trkpt lat="55.25198221206665" lon="11.993358051404357">
        <ele>76.0</ele>
        <time>2020-04-18T20:04:35.836Z</time>
      </trkpt>
      <trkpt lat="55.2512579318136" lon="11.994307553395629">
        <ele>79.0</ele>
        <time>2020-04-18T20:04:44.382Z</time>
      </trkpt>
      <trkpt lat="55.25103271007538" lon="11.994473850354552">
        <ele>82.0</ele>
        <time>2020-04-18T20:04:52.932Z</time>
      </trkpt>
      <trkpt lat="55.250351428985596" lon="11.994640147313476">
        <ele>84.0</ele>
        <time>2020-04-18T20:05:01.493Z</time>
      </trkpt>
      <trkpt lat="55.248876214027405" lon="11.994441747665405">
        <ele>87.0</ele>
        <time>2020-04-18T20:05:10.077Z</time>
      </trkpt>
      <trkpt lat="55.247594118118286" lon="11.993744289502501">
        <ele>90.0</ele>
        <time>2020-04-18T20:05:18.683Z</time>
      </trkpt>
      <trkpt lat="55.24691820144653" lon="11.993481516838074">
        <ele>92.0</ele>
        <time>2020-04-18T20:05:27.300Z</time>
      </trkpt>
      <trkpt lat="55.246918285265565" lon="11.993481516838074">
        <ele>94.0</ele>
        <time>2020-04-18T20:05:35.917Z</time>
      </trkpt>
      <trkpt lat="55.246644699946046" lon="11.993379592895508">
        <ele>95.0</ele>
        <time>2020-04-18T20:05:44.539Z</time>
      </trkpt>
      <trkpt lat="55.24523377418518" lon="11.992810880765319">
        <ele>97.0</ele>
        <time>2020-04-18T20:05:53.184Z</time>
      </trkpt>
      <trkpt lat="55.242615938186646" lon="11.991770267486572">
        <ele>98.0</ele>
        <time>2020-04-18T20:06:01.872Z</time>
      </trkpt>
      <trkpt lat="55.24261602200568" lon="11.991770267486572">
        <ele>99.0</ele>
        <time>2020-04-18T20:06:10.560Z</time>
      </trkpt>
      <trkpt lat="55.24220287799835" lon="11.991619979962707">
        <ele>100.0</ele>
        <time>2020-04-18T20:06:19.255Z</time>
      </trkpt>
      <trkpt lat="55.24047838523984" lon="11.991346143186092">
        <ele>101.0</ele>
        <time>2020-04-18T20:06:27.977Z</time>
      </trkpt>
      <trkpt lat="55.24027705192566" lon="11.991314208135009">
        <ele>102.0</ele>
        <time>2020-04-18T20:06:36.703Z</time>
      </trkpt>
      <trkpt lat="55.240132212638855" lon="11.991373216733336">
        <ele>103.0</ele>
        <time>2020-04-18T20:06:45.431Z</time>
      </trkpt>
      <trkpt lat="55.24013229645789" lon="11.991373216733336">
        <ele>103.0</ele>
        <time>2020-04-18T20:06:54.159Z</time>
      </trkpt>
      <trkpt lat="55.24004629813135" lon="11.99155569076538">
        <ele>104.0</ele>
        <time>2020-04-18T20:07:02.889Z</time>
      </trkpt>
      <trkpt lat="55.24000329896808" lon="11.9917877856642">
        <ele>105.0</ele>
        <time>2020-04-18T20:07:11.621Z</time>
      </trkpt>
      <trkpt lat="55.23904331959784" lon="11.996968388557434">
        <ele>106.0</ele>
        <time>2020-04-18T20:07:20.403Z</time>
      </trkpt>
      <trkpt lat="55.23897349834442" lon="11.997064864262938">
        <ele>107.0</ele>
        <time>2020-04-18T20:07:29.187Z</time>
      </trkpt>
      <trkpt lat="55.238860845565796" lon="11.997064864262938">
        <ele>108.0</ele>
        <time>2020-04-18T20:07:37.972Z</time>
      </trkpt>
      <trkpt lat="55.23648985661566" lon="11.995240962132812">
        <ele>109.0</ele>
        <time>2020-04-18T20:07:46.799Z</time>
      </trkpt>
      <trkpt lat="55.23617327213287" lon="11.99502638541162">
        <ele>110.0</ele>
        <time>2020-04-18T20:07:55.631Z</time>
      </trkpt>
      <trkpt lat="55.23557245731354" lon="11.994559681043029">
        <ele>111.0</ele>
        <time>2020-04-18T20:08:04.474Z</time>
      </trkpt>
      <trkpt lat="55.2350252866745" lon="11.994296908378601">
        <ele>111.0</ele>
        <time>2020-04-18T20:08:13.326Z</time>
      </trkpt>
      <trkpt lat="55.233405232429504" lon="11.993454694747925">
        <ele>111.0</ele>
        <time>2020-04-18T20:08:22.205Z</time>
      </trkpt>
      <trkpt lat="55.23221969604492" lon="11.997928535565734">
        <ele>111.0</ele>
        <time>2020-04-18T20:08:31.129Z</time>
      </trkpt>
      <trkpt lat="55.23116282187402" lon="12.001967942342162">
        <ele>111.0</ele>
        <time>2020-04-18T20:08:40.094Z</time>
      </trkpt>
      <trkpt lat="55.23085176944733" lon="12.003727471455932">
        <ele>110.0</ele>
        <time>2020-04-18T20:08:49.076Z</time>
      </trkpt>
      <trkpt lat="55.23081958293915" lon="12.005133032798767">
        <ele>109.0</ele>
        <time>2020-04-18T20:08:58.071Z</time>
      </trkpt>
      <trkpt lat="55.230637192726135" lon="12.007085597142577">
        <ele>108.0</ele>
        <time>2020-04-18T20:09:07.084Z</time>
      </trkpt>
      <trkpt lat="55.23047626018524" lon="12.007380640134215">
        <ele>107.0</ele>
        <time>2020-04-18T20:09:16.101Z</time>
      </trkpt>
      <trkpt lat="55.230170488357544" lon="12.007970809936523">
        <ele>106.0</ele>
        <time>2020-04-18T20:09:25.125Z</time>
      </trkpt>
      <trkpt lat="55.229177987203" lon="12.011956488713622">
        <ele>104.0</ele>
        <time>2020-04-18T20:09:34.189Z</time>
      </trkpt>
      <trkpt lat="55.229124426841736" lon="12.013179576024413">
        <ele>102.0</ele>
        <time>2020-04-18T20:09:43.264Z</time>
      </trkpt>
      <trkpt lat="55.229119062423706" lon="12.015631115064025">
        <ele>100.0</ele>
        <time>2020-04-18T20:09:52.361Z</time>
      </trkpt>
      <trkpt lat="55.22918335162103" lon="12.018452882766724">
        <ele>97.0</ele>
        <time>2020-04-18T20:10:01.484Z</time>
      </trkpt>
      <trkpt lat="55.229387283325195" lon="12.020389437675476">
        <ele>95.0</ele>
        <time>2020-04-18T20:10:10.625Z</time>
      </trkpt>
      <trkpt lat="55.22951611317694" lon="12.02148905955255">
        <ele>93.0</ele>
        <time>2020-04-18T20:10:19.777Z</time>
      </trkpt>
      <trkpt lat="55.22981643676758" lon="12.024080157279968">
        <ele>90.0</ele>
        <time>2020-04-18T20:10:28.953Z</time>
      </trkpt>
      <trkpt lat="55.230175852775574" lon="12.02625802718103">
        <ele>88.0</ele>
        <time>2020-04-18T20:10:38.150Z</time>
      </trkpt>
      <trkpt lat="55.230138301849365" lon="12.026773011311889">
        <ele>86.0</ele>
        <time>2020-04-18T20:10:47.351Z</time>
      </trkpt>
      <trkpt lat="55.2300416585058" lon="12.027121698483825">
        <ele>84.0</ele>
        <time>2020-04-18T20:10:56.556Z</time>
      </trkpt>
      <trkpt lat="55.229859268292785" lon="12.027567028999329">
        <ele>82.0</ele>
        <time>2020-04-18T20:11:05.766Z</time>
      </trkpt>
      <trkpt lat="55.229628682136536" lon="12.02776551246643">
        <ele>80.0</ele>
        <time>2020-04-18T20:11:14.980Z</time>
      </trkpt>
      <trkpt lat="55.22959121502936" lon="12.02803373336792">
        <ele>78.0</ele>
        <time>2020-04-18T20:11:24.197Z</time>
      </trkpt>
      <trkpt lat="55.23156523704529" lon="12.030839323997498">
        <ele>76.0</ele>
        <time>2020-04-18T20:11:33.454Z</time>
      </trkpt>
      <trkpt lat="55.23248800076544" lon="12.032539760693908">
        <ele>74.0</ele>
        <time>2020-04-18T20:11:42.733Z</time>
      </trkpt>
      <trkpt lat="55.23291162215173" lon="12.033414160832763">
        <ele>72.0</ele>
        <time>2020-04-18T20:11:52.022Z</time>
      </trkpt>
      <trkpt lat="55.23342669010162" lon="12.033923780545592">
        <ele>71.0</ele>
        <time>2020-04-18T20:12:01.321Z</time>
      </trkpt>
      <trkpt lat="55.234907269477844" lon="12.03496447764337">
        <ele>70.0</ele>
        <time>2020-04-18T20:12:10.645Z</time>
      </trkpt>
      <trkpt lat="55.234907353296876" lon="12.03496447764337">
        <ele>69.0</ele>
        <time>2020-04-18T20:12:19.969Z</time>
      </trkpt>
      <trkpt lat="55.23662396706641" lon="12.036198377609253">
        <ele>68.0</ele>
        <time>2020-04-18T20:12:29.323Z</time>
      </trkpt>
      <trkpt lat="55.238517355173826" lon="12.038349593058228">
        <ele>67.0</ele>
        <time>2020-04-18T20:12:38.713Z</time>
      </trkpt>
      <trkpt lat="55.238517271354795" lon="12.038349341601133">
        <ele>67.0</ele>
        <time>2020-04-18T20:12:48.103Z</time>
      </trkpt>
      <trkpt lat="55.23904222995043" lon="12.038945714011788">
        <ele>67.0</ele>
        <time>2020-04-18T20:12:57.503Z</time>
      </trkpt>
      <trkpt lat="55.23942410945892" lon="12.039379393681884">
        <ele>67.0</ele>
        <time>2020-04-18T20:13:06.911Z</time>
      </trkpt>
      <trkpt lat="55.24053454399109" lon="12.040425539016724">
        <ele>67.0</ele>
        <time>2020-04-18T20:13:16.339Z</time>
      </trkpt>
      <trkpt lat="55.24123191833496" lon="12.040961980819702">
        <ele>67.0</ele>
        <time>2020-04-18T20:13:25.779Z</time>
      </trkpt>
      <trkpt lat="55.24145714007318" lon="12.041176473721862">
        <ele>68.0</ele>
        <time>2020-04-18T20:13:35.223Z</time>
      </trkpt>
      <trkpt lat="55.24169862270355" lon="12.041771924123168">
        <ele>68.0</ele>
        <time>2020-04-18T20:13:44.674Z</time>
      </trkpt>
      <trkpt lat="55.24173080921173" lon="12.041863203048706">
        <ele>69.0</ele>
        <time>2020-04-18T20:13:54.126Z</time>
      </trkpt>
      <trkpt lat="55.24187573231757" lon="12.042276263237">
        <ele>70.0</ele>
        <time>2020-04-18T20:14:03.582Z</time>
      </trkpt>
      <trkpt lat="55.24220287799835" lon="12.043193494901061">
        <ele>70.0</ele>
        <time>2020-04-18T20:14:13.048Z</time>
      </trkpt>
      <trkpt lat="55.24280377663672" lon="12.042539035901427">
        <ele>71.0</ele>
        <time>2020-04-18T20:14:22.526Z</time>
      </trkpt>
      <trkpt lat="55.24280369281769" lon="12.042539035901427">
        <ele>72.0</ele>
        <time>2020-04-18T20:14:32.004Z</time>
      </trkpt>
      <trkpt lat="55.243694270029664" lon="12.041594982147217">
        <ele>73.0</ele>
        <time>2020-04-18T20:14:41.498Z</time>
      </trkpt>
      <trkpt lat="55.24373710155487" lon="12.041546618565917">
        <ele>73.0</ele>
        <time>2020-04-18T20:14:50.993Z</time>
      </trkpt>
      <trkpt lat="55.24427362717688" lon="12.04097799025476">
        <ele>73.0</ele>
        <time>2020-04-18T20:15:00.498Z</time>
      </trkpt>
      <trkpt lat="55.244590044021606" lon="12.040634751319885">
        <ele>74.0</ele>
        <time>2020-04-18T20:15:10.009Z</time>
      </trkpt>
      <trkpt lat="55.2448046207428" lon="12.040409361943603">
        <ele>74.0</ele>
        <time>2020-04-18T20:15:19.524Z</time>
      </trkpt>
      <trkpt lat="55.24549671448767" lon="12.039787089452147">
        <ele>73.0</ele>
        <time>2020-04-18T20:15:29.052Z</time>
      </trkpt>
      <trkpt lat="55.24549663066864" lon="12.039787089452147">
        <ele>73.0</ele>
        <time>2020-04-18T20:15:38.580Z</time>
      </trkpt>
      <trkpt lat="55.24647303856909" lon="12.039368664845824">
        <ele>72.0</ele>
        <time>2020-04-18T20:15:48.124Z</time>
      </trkpt>
      <trkpt lat="55.246821558102965" lon="12.039229273796082">
        <ele>70.0</ele>
        <time>2020-04-18T20:15:57.674Z</time>
      </trkpt>
      <trkpt lat="55.24691820144653" lon="12.040023123845458">
        <ele>69.0</ele>
        <time>2020-04-18T20:16:07.231Z</time>
      </trkpt>
      <trkpt lat="55.24743854999542" lon="12.04223326407373">
        <ele>66.0</ele>
        <time>2020-04-18T20:16:16.810Z</time>
      </trkpt>
      <trkpt lat="55.24747610092163" lon="12.043263232335448">
        <ele>64.0</ele>
        <time>2020-04-18T20:16:26.398Z</time>
      </trkpt>
      <trkpt lat="55.24752429686487" lon="12.043998157605529">
        <ele>62.0</ele>
        <time>2020-04-18T20:16:35.993Z</time>
      </trkpt>
      <trkpt lat="55.24770677089691" lon="12.044969201087952">
        <ele>59.0</ele>
        <time>2020-04-18T20:16:45.597Z</time>
      </trkpt>
      <trkpt lat="55.248076831921935" lon="12.046085000038147">
        <ele>57.0</ele>
        <time>2020-04-18T20:16:55.213Z</time>
      </trkpt>
      <trkpt lat="55.2485381718725" lon="12.047130977734923">
        <ele>54.0</ele>
        <time>2020-04-18T20:17:04.841Z</time>
      </trkpt>
      <trkpt lat="55.24872592650354" lon="12.047806978225708">
        <ele>52.0</ele>
        <time>2020-04-18T20:17:14.476Z</time>
      </trkpt>
      <trkpt lat="55.24893522262573" lon="12.049561059102416">
        <ele>50.0</ele>
        <time>2020-04-18T20:17:24.128Z</time>
      </trkpt>
      <trkpt lat="55.24903169833124" lon="12.04996339045465">
        <ele>48.0</ele>
        <time>2020-04-18T20:17:33.784Z</time>
      </trkpt>
      <trkpt lat="55.2490318659693" lon="12.04996339045465">
        <ele>46.0</ele>
        <time>2020-04-18T20:17:43.440Z</time>
      </trkpt>
      <trkpt lat="55.251671159639955" lon="12.052838802337646">
        <ele>45.0</ele>
        <time>2020-04-18T20:17:53.145Z</time>
      </trkpt>
      <trkpt lat="55.25297991000116" lon="12.05422818660736">
        <ele>44.0</ele>
        <time>2020-04-18T20:18:02.875Z</time>
      </trkpt>
      <trkpt lat="55.25298007763922" lon="12.05422818660736">
        <ele>43.0</ele>
        <time>2020-04-18T20:18:12.605Z</time>
      </trkpt>
      <trkpt lat="55.256327306851745" lon="12.057677423581481">
        <ele>42.0</ele>
        <time>2020-04-18T20:18:22.397Z</time>
      </trkpt>
      <trkpt lat="55.25649905204773" lon="12.057757889851928">
        <ele>41.0</ele>
        <time>2020-04-18T20:18:32.192Z</time>
      </trkpt>
      <trkpt lat="55.25647742673755" lon="12.060044389218092">
        <ele>41.0</ele>
        <time>2020-04-18T20:18:42.008Z</time>
      </trkpt>
      <trkpt lat="55.256475834175944" lon="12.060044892132282">
        <ele>41.0</ele>
        <time>2020-04-18T20:18:51.824Z</time>
      </trkpt>
      <trkpt lat="55.2564799413085" lon="12.0601199939847">
        <ele>41.0</ele>
        <time>2020-04-18T20:19:01.641Z</time>
      </trkpt>
      <trkpt lat="55.256457310169935" lon="12.061138227581978">
        <ele>42.0</ele>
        <time>2020-04-18T20:19:11.467Z</time>
      </trkpt>
      <trkpt lat="55.256449934095144" lon="12.061469983309507">
        <ele>42.0</ele>
        <time>2020-04-18T20:19:21.296Z</time>
      </trkpt>
      <trkpt lat="55.25639997795224" lon="12.062249919399619">
        <ele>42.0</ele>
        <time>2020-04-18T20:19:31.132Z</time>
      </trkpt>
      <trkpt lat="55.25632998906076" lon="12.062899935990572">
        <ele>43.0</ele>
        <time>2020-04-18T20:19:40.974Z</time>
      </trkpt>
      <trkpt lat="55.25643995963037" lon="12.062949975952506">
        <ele>43.0</ele>
        <time>2020-04-18T20:19:50.818Z</time>
      </trkpt>
      <trkpt lat="55.25886995717883" lon="12.064459975808859">
        <ele>44.0</ele>
        <time>2020-04-18T20:20:00.704Z</time>
      </trkpt>
      <trkpt lat="55.26027996093035" lon="12.065329933539033">
        <ele>44.0</ele>
        <time>2020-04-18T20:20:10.614Z</time>
      </trkpt>
      <trkpt lat="55.26169993914664" lon="12.066249931231141">
        <ele>45.0</ele>
        <time>2020-04-18T20:20:20.548Z</time>
      </trkpt>
      <trkpt lat="55.26189993135631" lon="12.066399967297912">
        <ele>45.0</ele>
        <time>2020-04-18T20:20:30.485Z</time>
      </trkpt>
      <trkpt lat="55.26198995299637" lon="12.06654991954565">
        <ele>46.0</ele>
        <time>2020-04-18T20:20:40.424Z</time>
      </trkpt>
      <trkpt lat="55.26204996742308" lon="12.066769944503903">
        <ele>46.0</ele>
        <time>2020-04-18T20:20:50.366Z</time>
      </trkpt>
      <trkpt lat="55.26206991635263" lon="12.067529931664467">
        <ele>46.0</ele>
        <time>2020-04-18T20:21:00.314Z</time>
      </trkpt>
      <trkpt lat="55.262059941887856" lon="12.06832998432219">
        <ele>46.0</ele>
        <time>2020-04-18T20:21:10.270Z</time>
      </trkpt>
      <trkpt lat="55.26198995299637" lon="12.069479981437325">
        <ele>46.0</ele>
        <time>2020-04-18T20:21:20.236Z</time>
      </trkpt>
      <trkpt lat="55.26196992024779" lon="12.070099990814924">
        <ele>46.0</ele>
        <time>2020-04-18T20:21:30.208Z</time>
      </trkpt>
      <trkpt lat="55.26198995299637" lon="12.070589996874332">
        <ele>46.0</ele>
        <time>2020-04-18T20:21:40.185Z</time>
      </trkpt>
      <trkpt lat="55.2622199524194" lon="12.072509955614805">
        <ele>46.0</ele>
        <time>2020-04-18T20:21:50.180Z</time>
      </trkpt>
      <trkpt lat="55.262399995699525" lon="12.073349989950657">
        <ele>46.0</ele>
        <time>2020-04-18T20:22:00.183Z</time>
      </trkpt>
      <trkpt lat="55.26258992962539" lon="12.073919959366322">
        <ele>46.0</ele>
        <time>2020-04-18T20:22:10.192Z</time>
      </trkpt>
      <trkpt lat="55.262699984014034" lon="12.074209973216057">
        <ele>47.0</ele>
        <time>2020-04-18T20:22:20.204Z</time>
      </trkpt>
      <trkpt lat="55.26286996901035" lon="12.074529994279146">
        <ele>47.0</ele>
        <time>2020-04-18T20:22:30.220Z</time>
      </trkpt>
      <trkpt lat="55.263312282040715" lon="12.07530221901834">
        <ele>47.0</ele>
        <time>2020-04-18T20:22:40.246Z</time>
      </trkpt>
      <trkpt lat="55.263499952852726" lon="12.075629951432347">
        <ele>48.0</ele>
        <time>2020-04-18T20:22:50.276Z</time>
      </trkpt>
      <trkpt lat="55.26384998112917" lon="12.076349956914783">
        <ele>48.0</ele>
        <time>2020-04-18T20:23:00.315Z</time>
      </trkpt>
      <trkpt lat="55.26416991837323" lon="12.07711991854012">
        <ele>49.0</ele>
        <time>2020-04-18T20:23:10.363Z</time>
      </trkpt>
      <trkpt lat="55.26477995328605" lon="12.078719940036535">
        <ele>50.0</ele>
        <time>2020-04-18T20:23:20.428Z</time>
      </trkpt>
      <trkpt lat="55.26504993438721" lon="12.079599956050515">
        <ele>50.0</ele>
        <time>2020-04-18T20:23:30.502Z</time>
      </trkpt>
      <trkpt lat="55.2651799377054" lon="12.080149976536632">
        <ele>51.0</ele>
        <time>2020-04-18T20:23:40.582Z</time>
      </trkpt>
      <trkpt lat="55.265239952132106" lon="12.080429932102561">
        <ele>52.0</ele>
        <time>2020-04-18T20:23:50.665Z</time>
      </trkpt>
      <trkpt lat="55.26550993323326" lon="12.080429932102561">
        <ele>52.0</ele>
        <time>2020-04-18T20:24:00.752Z</time>
      </trkpt>
      <trkpt lat="55.26648994535208" lon="12.080399924889207">
        <ele>53.0</ele>
        <time>2020-04-18T20:24:10.855Z</time>
      </trkpt>
      <trkpt lat="55.26670997031033" lon="12.080419957637787">
        <ele>54.0</ele>
        <time>2020-04-18T20:24:20.961Z</time>
      </trkpt>
      <trkpt lat="55.26717994362116" lon="12.080549960955977">
        <ele>54.0</ele>
        <time>2020-04-18T20:24:31.075Z</time>
      </trkpt>
      <trkpt lat="55.2673106174916" lon="12.080594468861818">
        <ele>54.0</ele>
        <time>2020-04-18T20:24:41.191Z</time>
      </trkpt>
      <trkpt lat="55.26731103658676" lon="12.080594636499882">
        <ele>54.0</ele>
        <time>2020-04-18T20:24:51.307Z</time>
      </trkpt>
      <trkpt lat="55.26805995963514" lon="12.080849949270487">
        <ele>54.0</ele>
        <time>2020-04-18T20:25:01.435Z</time>
      </trkpt>
      <trkpt lat="55.268419962376356" lon="12.081009959802032">
        <ele>54.0</ele>
        <time>2020-04-18T20:25:11.569Z</time>
      </trkpt>
      <trkpt lat="55.26953995227814" lon="12.081469958648086">
        <ele>53.0</ele>
        <time>2020-04-18T20:25:21.722Z</time>
      </trkpt>
      <trkpt lat="55.269639948382974" lon="12.081459984183311">
        <ele>53.0</ele>
        <time>2020-04-18T20:25:31.876Z</time>
      </trkpt>
      <trkpt lat="55.27140995487571" lon="12.081879917532206">
        <ele>52.0</ele>
        <time>2020-04-18T20:25:42.059Z</time>
      </trkpt>
      <trkpt lat="55.27173995040357" lon="12.081979997456074">
        <ele>51.0</ele>
        <time>2020-04-18T20:25:52.247Z</time>
      </trkpt>
      <trkpt lat="55.271939942613244" lon="12.081989971920848">
        <ele>50.0</ele>
        <time>2020-04-18T20:26:02.438Z</time>
      </trkpt>
      <trkpt lat="55.27209995314479" lon="12.081999946385622">
        <ele>49.0</ele>
        <time>2020-04-18T20:26:12.632Z</time>
      </trkpt>
      <trkpt lat="55.27295993641019" lon="12.081879917532206">
        <ele>48.0</ele>
        <time>2020-04-18T20:26:22.840Z</time>
      </trkpt>
      <trkpt lat="55.27308993972838" lon="12.08192995749414">
        <ele>46.0</ele>
        <time>2020-04-18T20:26:33.050Z</time>
      </trkpt>
      <trkpt lat="55.27434999123216" lon="12.082709977403283">
        <ele>45.0</ele>
        <time>2020-04-18T20:26:43.281Z</time>
      </trkpt>
      <trkpt lat="55.27897998690605" lon="12.085659988224506">
        <ele>43.0</ele>
        <time>2020-04-18T20:26:53.591Z</time>
      </trkpt>
      <trkpt lat="55.27993996627629" lon="12.086369935423136">
        <ele>42.0</ele>
        <time>2020-04-18T20:27:03.918Z</time>
      </trkpt>
      <trkpt lat="55.28011992573738" lon="12.08652994595468">
        <ele>41.0</ele>
        <time>2020-04-18T20:27:14.248Z</time>
      </trkpt>
      <trkpt lat="55.280279936268926" lon="12.086789952591062">
        <ele>40.0</ele>
        <time>2020-04-18T20:27:24.582Z</time>
      </trkpt>
      <trkpt lat="55.28060993179679" lon="12.087829979136586">
        <ele>40.0</ele>
        <time>2020-04-18T20:27:34.927Z</time>
      </trkpt>
      <trkpt lat="55.28080992400646" lon="12.088239938020706">
        <ele>40.0</ele>
        <time>2020-04-18T20:27:45.277Z</time>
      </trkpt>
      <trkpt lat="55.28099994175136" lon="12.088509919121861">
        <ele>40.0</ele>
        <time>2020-04-18T20:27:55.630Z</time>
      </trkpt>
      <trkpt lat="55.281309988349676" lon="12.088879980146885">
        <ele>40.0</ele>
        <time>2020-04-18T20:28:05.989Z</time>
      </trkpt>
      <trkpt lat="55.28146999888122" lon="12.089009983465075">
        <ele>40.0</ele>
        <time>2020-04-18T20:28:16.351Z</time>
      </trkpt>
      <trkpt lat="55.28167996555567" lon="12.089099921286106">
        <ele>40.0</ele>
        <time>2020-04-18T20:28:26.717Z</time>
      </trkpt>
      <trkpt lat="55.28163998387754" lon="12.089289939031005">
        <ele>40.0</ele>
        <time>2020-04-18T20:28:37.085Z</time>
      </trkpt>
      <trkpt lat="55.28157996945083" lon="12.08955992013216">
        <ele>40.0</ele>
        <time>2020-04-18T20:28:47.455Z</time>
      </trkpt>
      <trkpt lat="55.28156488202512" lon="12.08978614769876">
        <ele>40.0</ele>
        <time>2020-04-18T20:28:57.827Z</time>
      </trkpt>
      <trkpt lat="55.28156479820609" lon="12.089786902070045">
        <ele>40.0</ele>
        <time>2020-04-18T20:29:08.199Z</time>
      </trkpt>
      <trkpt lat="55.28156479820609" lon="12.089786818251014">
        <ele>39.0</ele>
        <time>2020-04-18T20:29:18.571Z</time>
      </trkpt>
      <trkpt lat="55.28155993670225" lon="12.089859992265701">
        <ele>39.0</ele>
        <time>2020-04-18T20:29:28.944Z</time>
      </trkpt>
      <trkpt lat="55.28154996223748" lon="12.090289983898401">
        <ele>39.0</ele>
        <time>2020-04-18T20:29:39.321Z</time>
      </trkpt>
      <trkpt lat="55.28168994002044" lon="12.091799983754754">
        <ele>38.0</ele>
        <time>2020-04-18T20:29:49.712Z</time>
      </trkpt>
      <trkpt lat="55.281741404905915" lon="12.092259479686618">
        <ele>38.0</ele>
        <time>2020-04-18T20:30:00.107Z</time>
      </trkpt>
      <trkpt lat="55.28174148872495" lon="12.092260401695967">
        <ele>37.0</ele>
        <time>2020-04-18T20:30:10.502Z</time>
      </trkpt>
      <trkpt lat="55.28174148872495" lon="12.092260317876935">
        <ele>37.0</ele>
        <time>2020-04-18T20:30:20.897Z</time>
      </trkpt>
      <trkpt lat="55.28184995055199" lon="12.093229936435819">
        <ele>36.0</ele>
        <time>2020-04-18T20:30:31.301Z</time>
      </trkpt>
      <trkpt lat="55.2819599211216" lon="12.093629920855165">
        <ele>36.0</ele>
        <time>2020-04-18T20:30:41.709Z</time>
      </trkpt>
      <trkpt lat="55.282079949975014" lon="12.093889927491546">
        <ele>36.0</ele>
        <time>2020-04-18T20:30:52.120Z</time>
      </trkpt>
      <trkpt lat="55.28219997882843" lon="12.094079945236444">
        <ele>36.0</ele>
        <time>2020-04-18T20:31:02.534Z</time>
      </trkpt>
      <trkpt lat="55.28197995387018" lon="12.094999942928553">
        <ele>36.0</ele>
        <time>2020-04-18T20:31:12.957Z</time>
      </trkpt>
      <trkpt lat="55.28174995444715" lon="12.095749955624342">
        <ele>36.0</ele>
        <time>2020-04-18T20:31:23.388Z</time>
      </trkpt>
      <trkpt lat="55.281219966709614" lon="12.09698997437954">
        <ele>37.0</ele>
        <time>2020-04-18T20:31:33.833Z</time>
      </trkpt>
      <trkpt lat="55.280769942328334" lon="12.097809975966811">
        <ele>37.0</ele>
        <time>2020-04-18T20:31:44.289Z</time>
      </trkpt>
      <trkpt lat="55.280319917947054" lon="12.098439959809184">
        <ele>38.0</ele>
        <time>2020-04-18T20:31:54.754Z</time>
      </trkpt>
      <trkpt lat="55.279909959062934" lon="12.098909933120012">
        <ele>39.0</ele>
        <time>2020-04-18T20:32:05.227Z</time>
      </trkpt>
      <trkpt lat="55.27963997796178" lon="12.099169939756393">
        <ele>40.0</ele>
        <time>2020-04-18T20:32:15.705Z</time>
      </trkpt>
      <trkpt lat="55.27922993525863" lon="12.099509993568063">
        <ele>41.0</ele>
        <time>2020-04-18T20:32:26.190Z</time>
      </trkpt>
      <trkpt lat="55.27792998589575" lon="12.100339969620109">
        <ele>43.0</ele>
        <time>2020-04-18T20:32:36.697Z</time>
      </trkpt>
      <trkpt lat="55.276899933815" lon="12.10100993514061">
        <ele>44.0</ele>
        <time>2020-04-18T20:32:47.222Z</time>
      </trkpt>
      <trkpt lat="55.27667999267578" lon="12.101119989529252">
        <ele>45.0</ele>
        <time>2020-04-18T20:32:57.750Z</time>
      </trkpt>
      <trkpt lat="55.27485994622111" lon="12.101819962263107">
        <ele>46.0</ele>
        <time>2020-04-18T20:33:08.308Z</time>
      </trkpt>
      <trkpt lat="55.27223993092775" lon="12.102849930524826">
        <ele>47.0</ele>
        <time>2020-04-18T20:33:18.909Z</time>
      </trkpt>
      <trkpt lat="55.271209962666035" lon="12.103269947692752">
        <ele>48.0</ele>
        <time>2020-04-18T20:33:29.527Z</time>
      </trkpt>
      <trkpt lat="55.2708699926734" lon="12.103499947115779">
        <ele>48.0</ele>
        <time>2020-04-18T20:33:40.151Z</time>
      </trkpt>
      <trkpt lat="55.27037998661399" lon="12.10405994206667">
        <ele>49.0</ele>
        <time>2020-04-18T20:33:50.784Z</time>
      </trkpt>
      <trkpt lat="55.269899955019355" lon="12.104649944230914">
        <ele>49.0</ele>
        <time>2020-04-18T20:34:01.427Z</time>
      </trkpt>
      <trkpt lat="55.26956995949149" lon="12.104929983615875">
        <ele>49.0</ele>
        <time>2020-04-18T20:34:12.076Z</time>
      </trkpt>
      <trkpt lat="55.26889999397099" lon="12.10534991696477">
        <ele>48.0</ele>
        <time>2020-04-18T20:34:22.736Z</time>
      </trkpt>
      <trkpt lat="55.26863998733461" lon="12.105549992993474">
        <ele>48.0</ele>
        <time>2020-04-18T20:34:33.401Z</time>
      </trkpt>
      <trkpt lat="55.26842993684113" lon="12.105859955772758">
        <ele>48.0</ele>
        <time>2020-04-18T20:34:44.070Z</time>
      </trkpt>
      <trkpt lat="55.268029952421784" lon="12.106579961255193">
        <ele>48.0</ele>
        <time>2020-04-18T20:34:54.748Z</time>
      </trkpt>
      <trkpt lat="55.26722998358309" lon="12.108109993860126">
        <ele>48.0</ele>
        <time>2020-04-18T20:35:05.445Z</time>
      </trkpt>
      <trkpt lat="55.26607998646796" lon="12.110129948705435">
        <ele>48.0</ele>
        <time>2020-04-18T20:35:16.168Z</time>
      </trkpt>
      <trkpt lat="55.26578997261822" lon="12.1106999181211">
        <ele>48.0</ele>
        <time>2020-04-18T20:35:26.898Z</time>
      </trkpt>
      <trkpt lat="55.2651899959892" lon="12.11213992908597">
        <ele>48.0</ele>
        <time>2020-04-18T20:35:37.645Z</time>
      </trkpt>
      <trkpt lat="55.26501992717385" lon="12.112499931827188">
        <ele>49.0</ele>
        <time>2020-04-18T20:35:48.396Z</time>
      </trkpt>
      <trkpt lat="55.26487994939089" lon="12.11271995678544">
        <ele>49.0</ele>
        <time>2020-04-18T20:35:59.150Z</time>
      </trkpt>
      <trkpt lat="55.26395995169878" lon="12.113859979435802">
        <ele>49.0</ele>
        <time>2020-04-18T20:36:09.922Z</time>
      </trkpt>
      <trkpt lat="55.263449996709824" lon="12.114559952169657">
        <ele>50.0</ele>
        <time>2020-04-18T20:36:20.704Z</time>
      </trkpt>
      <trkpt lat="55.263089993968606" lon="12.115119947120547">
        <ele>51.0</ele>
        <time>2020-04-18T20:36:31.494Z</time>
      </trkpt>
      <trkpt lat="55.26287994347513" lon="12.115539964288473">
        <ele>51.0</ele>
        <time>2020-04-18T20:36:42.289Z</time>
      </trkpt>
      <trkpt lat="55.262549947947264" lon="12.116299951449037">
        <ele>52.0</ele>
        <time>2020-04-18T20:36:53.093Z</time>
      </trkpt>
      <trkpt lat="55.2624599263072" lon="12.116439929232001">
        <ele>53.0</ele>
        <time>2020-04-18T20:37:03.899Z</time>
      </trkpt>
      <trkpt lat="55.26214996352792" lon="12.116859946399927">
        <ele>54.0</ele>
        <time>2020-04-18T20:37:14.711Z</time>
      </trkpt>
      <trkpt lat="55.26188995689154" lon="12.117119953036308">
        <ele>55.0</ele>
        <time>2020-04-18T20:37:25.528Z</time>
      </trkpt>
      <trkpt lat="55.26147999800742" lon="12.117409966886044">
        <ele>56.0</ele>
        <time>2020-04-18T20:37:36.352Z</time>
      </trkpt>
      <trkpt lat="55.261219991371036" lon="12.117609959095716">
        <ele>57.0</ele>
        <time>2020-04-18T20:37:47.181Z</time>
      </trkpt>
      <trkpt lat="55.26110993698239" lon="12.117649940773845">
        <ele>58.0</ele>
        <time>2020-04-18T20:37:58.011Z</time>
      </trkpt>
      <trkpt lat="55.2609799336642" lon="12.117669973522425">
        <ele>59.0</ele>
        <time>2020-04-18T20:38:08.844Z</time>
      </trkpt>
      <trkpt lat="55.2609799336642" lon="12.117729987949133">
        <ele>60.0</ele>
        <time>2020-04-18T20:38:19.677Z</time>
      </trkpt>
      <trkpt lat="55.26094992645085" lon="12.117859991267323">
        <ele>61.0</ele>
        <time>2020-04-18T20:38:30.511Z</time>
      </trkpt>
      <trkpt lat="55.26084993034601" lon="12.117999969050288">
        <ele>62.0</ele>
        <time>2020-04-18T20:38:41.347Z</time>
      </trkpt>
      <trkpt lat="55.26038993149996" lon="12.11825997568667">
        <ele>63.0</ele>
        <time>2020-04-18T20:38:52.191Z</time>
      </trkpt>
      <trkpt lat="55.26019999757409" lon="12.11838997900486">
        <ele>64.0</ele>
        <time>2020-04-18T20:39:03.038Z</time>
      </trkpt>
      <trkpt lat="55.259889950975776" lon="12.118679992854595">
        <ele>65.0</ele>
        <time>2020-04-18T20:39:13.891Z</time>
      </trkpt>
      <trkpt lat="55.25955995544791" lon="12.119089951738715">
        <ele>66.0</ele>
        <time>2020-04-18T20:39:24.751Z</time>
      </trkpt>
      <trkpt lat="55.259329956024885" lon="12.119299918413162">
        <ele>67.0</ele>
        <time>2020-04-18T20:39:35.615Z</time>
      </trkpt>
      <trkpt lat="55.25918997824192" lon="12.11939999833703">
        <ele>68.0</ele>
        <time>2020-04-18T20:39:46.481Z</time>
      </trkpt>
      <trkpt lat="55.259029967710376" lon="12.119449954479933">
        <ele>68.0</ele>
        <time>2020-04-18T20:39:57.350Z</time>
      </trkpt>
      <trkpt lat="55.25886995717883" lon="12.119459928944707">
        <ele>69.0</ele>
        <time>2020-04-18T20:40:08.221Z</time>
      </trkpt>
      <trkpt lat="55.25847994722426" lon="12.119419947266579">
        <ele>69.0</ele>
        <time>2020-04-18T20:40:19.099Z</time>
      </trkpt>
      <trkpt lat="55.25828992947936" lon="12.119459928944707">
        <ele>70.0</ele>
        <time>2020-04-18T20:40:29.980Z</time>
      </trkpt>
      <trkpt lat="55.25815992616117" lon="12.119539976119995">
        <ele>70.0</ele>
        <time>2020-04-18T20:40:40.863Z</time>
      </trkpt>
      <trkpt lat="55.25793998502195" lon="12.119799982756376">
        <ele>70.0</ele>
        <time>2020-04-18T20:40:51.750Z</time>
      </trkpt>
      <trkpt lat="55.257629938423634" lon="12.120209941640496">
        <ele>71.0</ele>
        <time>2020-04-18T20:41:02.643Z</time>
      </trkpt>
      <trkpt lat="55.25744997896254" lon="12.120309937745333">
        <ele>71.0</ele>
        <time>2020-04-18T20:41:13.539Z</time>
      </trkpt>
      <trkpt lat="55.25692996568978" lon="12.120569944381714">
        <ele>71.0</ele>
        <time>2020-04-18T20:41:24.444Z</time>
      </trkpt>
      <trkpt lat="55.25680993683636" lon="12.12055996991694">
        <ele>71.0</ele>
        <time>2020-04-18T20:41:35.351Z</time>
      </trkpt>
      <trkpt lat="55.25621993467212" lon="12.120359977707267">
        <ele>72.0</ele>
        <time>2020-04-18T20:41:46.268Z</time>
      </trkpt>
      <trkpt lat="55.256169978529215" lon="12.120319996029139">
        <ele>72.0</ele>
        <time>2020-04-18T20:41:57.185Z</time>
      </trkpt>
      <trkpt lat="55.25612999685109" lon="12.120249923318624">
        <ele>72.0</ele>
        <time>2020-04-18T20:42:08.103Z</time>
      </trkpt>
      <trkpt lat="55.2560499496758" lon="12.120059989392757">
        <ele>72.0</ele>
        <time>2020-04-18T20:42:19.024Z</time>
      </trkpt>
      <trkpt lat="55.25593997910619" lon="12.119839964434505">
        <ele>72.0</ele>
        <time>2020-04-18T20:42:29.947Z</time>
      </trkpt>
      <trkpt lat="55.25587996467948" lon="12.119719935581088">
        <ele>72.0</ele>
        <time>2020-04-18T20:42:40.872Z</time>
      </trkpt>
      <trkpt lat="55.25579991750419" lon="12.119649946689606">
        <ele>73.0</ele>
        <time>2020-04-18T20:42:51.798Z</time>
      </trkpt>
      <trkpt lat="55.25563923642039" lon="12.119566379114985">
        <ele>72.0</ele>
        <time>2020-04-18T20:43:02.727Z</time>
      </trkpt>
      <trkpt lat="55.2556387335062" lon="12.11956612765789">
        <ele>72.0</ele>
        <time>2020-04-18T20:43:13.656Z</time>
      </trkpt>
      <trkpt lat="55.255549969151616" lon="12.119519943371415">
        <ele>72.0</ele>
        <time>2020-04-18T20:43:24.586Z</time>
      </trkpt>
      <trkpt lat="55.255479980260134" lon="12.119509968906641">
        <ele>71.0</ele>
        <time>2020-04-18T20:43:35.517Z</time>
      </trkpt>
      <trkpt lat="55.25529993698001" lon="12.11956998333335">
        <ele>71.0</ele>
        <time>2020-04-18T20:43:46.451Z</time>
      </trkpt>
      <trkpt lat="55.25444992817938" lon="12.11982998996973">
        <ele>70.0</ele>
        <time>2020-04-18T20:43:57.399Z</time>
      </trkpt>
      <trkpt lat="55.25463994592428" lon="12.119779950007796">
        <ele>69.0</ele>
        <time>2020-04-18T20:44:08.350Z</time>
      </trkpt>
      <trkpt lat="55.25436996482313" lon="12.122189998626709">
        <ele>68.0</ele>
        <time>2020-04-18T20:44:19.324Z</time>
      </trkpt>
      <trkpt lat="55.25426996871829" lon="12.123079989105463">
        <ele>67.0</ele>
        <time>2020-04-18T20:44:30.306Z</time>
      </trkpt>
      <trkpt lat="55.254219928756356" lon="12.123299930244684">
        <ele>65.0</ele>
        <time>2020-04-18T20:44:41.290Z</time>
      </trkpt>
      <trkpt lat="55.253829918801785" lon="12.124199979007244">
        <ele>64.0</ele>
        <time>2020-04-18T20:44:52.285Z</time>
      </trkpt>
      <trkpt lat="55.25357997044921" lon="12.12461999617517">
        <ele>63.0</ele>
        <time>2020-04-18T20:45:03.285Z</time>
      </trkpt>
      <trkpt lat="55.253359945490956" lon="12.125099943950772">
        <ele>61.0</ele>
        <time>2020-04-18T20:45:14.291Z</time>
      </trkpt>
      <trkpt lat="55.253359945490956" lon="12.125289961695671">
        <ele>59.0</ele>
        <time>2020-04-18T20:45:25.298Z</time>
      </trkpt>
      <trkpt lat="55.25288997218013" lon="12.129469932988286">
        <ele>57.0</ele>
        <time>2020-04-18T20:45:36.345Z</time>
      </trkpt>
      <trkpt lat="55.25257992558181" lon="12.13091991841793">
        <ele>56.0</ele>
        <time>2020-04-18T20:45:47.406Z</time>
      </trkpt>
      <trkpt lat="55.252129985019565" lon="12.133019920438528">
        <ele>54.0</ele>
        <time>2020-04-18T20:45:58.487Z</time>
      </trkpt>
      <trkpt lat="55.252089919522405" lon="12.133369948714972">
        <ele>52.0</ele>
        <time>2020-04-18T20:46:09.571Z</time>
      </trkpt>
      <trkpt lat="55.251999981701374" lon="12.134369993582368">
        <ele>50.0</ele>
        <time>2020-04-18T20:46:20.665Z</time>
      </trkpt>
      <trkpt lat="55.251939967274666" lon="12.135109947994351">
        <ele>48.0</ele>
        <time>2020-04-18T20:46:31.766Z</time>
      </trkpt>
      <trkpt lat="55.2517999894917" lon="12.136299926787615">
        <ele>46.0</ele>
        <time>2020-04-18T20:46:42.878Z</time>
      </trkpt>
      <trkpt lat="55.25138994678855" lon="12.138839978724718">
        <ele>44.0</ele>
        <time>2020-04-18T20:46:54.014Z</time>
      </trkpt>
      <trkpt lat="55.25127997621894" lon="12.139259995892644">
        <ele>42.0</ele>
        <time>2020-04-18T20:47:05.154Z</time>
      </trkpt>
      <trkpt lat="55.25041999295354" lon="12.141669960692525">
        <ele>40.0</ele>
        <time>2020-04-18T20:47:16.320Z</time>
      </trkpt>
      <trkpt lat="55.25005999021232" lon="12.142589958384633">
        <ele>38.0</ele>
        <time>2020-04-18T20:47:27.496Z</time>
      </trkpt>
      <trkpt lat="55.25016996078193" lon="12.14292992837727">
        <ele>36.0</ele>
        <time>2020-04-18T20:47:38.676Z</time>
      </trkpt>
      <trkpt lat="55.250259982421994" lon="12.143319938331842">
        <ele>35.0</ele>
        <time>2020-04-18T20:47:49.860Z</time>
      </trkpt>
      <trkpt lat="55.25032997131348" lon="12.143509956076741">
        <ele>33.0</ele>
        <time>2020-04-18T20:48:01.046Z</time>
      </trkpt>
      <trkpt lat="55.25040993466973" lon="12.143659992143512">
        <ele>32.0</ele>
        <time>2020-04-18T20:48:12.234Z</time>
      </trkpt>
      <trkpt lat="55.25050993077457" lon="12.143769962713122">
        <ele>32.0</ele>
        <time>2020-04-18T20:48:23.424Z</time>
      </trkpt>
      <trkpt lat="55.25110999122262" lon="12.144249994307756">
        <ele>31.0</ele>
        <time>2020-04-18T20:48:34.624Z</time>
      </trkpt>
      <trkpt lat="55.2514199540019" lon="12.14444998651743">
        <ele>31.0</ele>
        <time>2020-04-18T20:48:45.830Z</time>
      </trkpt>
      <trkpt lat="55.25177995674312" lon="12.144589964300394">
        <ele>30.0</ele>
        <time>2020-04-18T20:48:57.041Z</time>
      </trkpt>
      <trkpt lat="55.25215999223292" lon="12.14468996040523">
        <ele>30.0</ele>
        <time>2020-04-18T20:49:08.259Z</time>
      </trkpt>
      <trkpt lat="55.252539943903685" lon="12.144809989258647">
        <ele>30.0</ele>
        <time>2020-04-18T20:49:19.483Z</time>
      </trkpt>
      <trkpt lat="55.25272996164858" lon="12.144829938188195">
        <ele>30.0</ele>
        <time>2020-04-18T20:49:30.710Z</time>
      </trkpt>
      <trkpt lat="55.253289956599474" lon="12.144749974831939">
        <ele>30.0</ele>
        <time>2020-04-18T20:49:41.946Z</time>
      </trkpt>
      <trkpt lat="55.25362992659211" lon="12.144779982045293">
        <ele>31.0</ele>
        <time>2020-04-18T20:49:53.187Z</time>
      </trkpt>
      <trkpt lat="55.25383997708559" lon="12.144849970936775">
        <ele>31.0</ele>
        <time>2020-04-18T20:50:04.432Z</time>
      </trkpt>
      <trkpt lat="55.254329983145" lon="12.14509991928935">
        <ele>31.0</ele>
        <time>2020-04-18T20:50:15.685Z</time>
      </trkpt>
      <trkpt lat="55.254539949819446" lon="12.145209973677993">
        <ele>32.0</ele>
        <time>2020-04-18T20:50:26.941Z</time>
      </trkpt>
      <trkpt lat="55.25481998920441" lon="12.14530996978283">
        <ele>32.0</ele>
        <time>2020-04-18T20:50:38.202Z</time>
      </trkpt>
      <trkpt lat="55.25501277297735" lon="12.145385406911373">
        <ele>32.0</ele>
        <time>2020-04-18T20:50:49.466Z</time>
      </trkpt>
      <trkpt lat="55.255013359710574" lon="12.145385658368468">
        <ele>32.0</ele>
        <time>2020-04-18T20:51:00.730Z</time>
      </trkpt>
      <trkpt lat="55.25527998805046" lon="12.145489929243922">
        <ele>32.0</ele>
        <time>2020-04-18T20:51:11.999Z</time>
      </trkpt>
      <trkpt lat="55.25618992745876" lon="12.146139945834875">
        <ele>32.0</ele>
        <time>2020-04-18T20:51:23.283Z</time>
      </trkpt>
      <trkpt lat="55.25641992688179" lon="12.14627992361784">
        <ele>31.0</ele>
        <time>2020-04-18T20:51:34.571Z</time>
      </trkpt>
      <trkpt lat="55.256299981847405" lon="12.147239986807108">
        <ele>31.0</ele>
        <time>2020-04-18T20:51:45.868Z</time>
      </trkpt>
      <trkpt lat="55.2560499496758" lon="12.149379970505834">
        <ele>31.0</ele>
        <time>2020-04-18T20:51:57.185Z</time>
      </trkpt>
      <trkpt lat="55.255959928035736" lon="12.149879951030016">
        <ele>30.0</ele>
        <time>2020-04-18T20:52:08.507Z</time>
      </trkpt>
      <trkpt lat="55.255719954147935" lon="12.150979992002249">
        <ele>30.0</ele>
        <time>2020-04-18T20:52:19.840Z</time>
      </trkpt>
      <trkpt lat="55.25553999468684" lon="12.151829916983843">
        <ele>29.0</ele>
        <time>2020-04-18T20:52:31.181Z</time>
      </trkpt>
      <trkpt lat="55.25544997304678" lon="12.15222998522222">
        <ele>28.0</ele>
        <time>2020-04-18T20:52:42.526Z</time>
      </trkpt>
      <trkpt lat="55.25534997694194" lon="12.15280992910266">
        <ele>28.0</ele>
        <time>2020-04-18T20:52:53.877Z</time>
      </trkpt>
      <trkpt lat="55.25503993034363" lon="12.156059928238392">
        <ele>27.0</ele>
        <time>2020-04-18T20:53:05.258Z</time>
      </trkpt>
      <trkpt lat="55.254839938133955" lon="12.15787997469306">
        <ele>26.0</ele>
        <time>2020-04-18T20:53:16.656Z</time>
      </trkpt>
      <trkpt lat="55.25473994202912" lon="12.158839954063296">
        <ele>25.0</ele>
        <time>2020-04-18T20:53:28.063Z</time>
      </trkpt>
      <trkpt lat="55.25467992760241" lon="12.15916994959116">
        <ele>24.0</ele>
        <time>2020-04-18T20:53:39.473Z</time>
      </trkpt>
      <trkpt lat="55.254519917070866" lon="12.159799933433533">
        <ele>23.0</ele>
        <time>2020-04-18T20:53:50.889Z</time>
      </trkpt>
      <trkpt lat="55.253979954868555" lon="12.161849979311228">
        <ele>22.0</ele>
        <time>2020-04-18T20:54:02.326Z</time>
      </trkpt>
      <trkpt lat="55.25381994433701" lon="12.162529919296503">
        <ele>22.0</ele>
        <time>2020-04-18T20:54:13.770Z</time>
      </trkpt>
      <trkpt lat="55.25333999656141" lon="12.165589984506369">
        <ele>21.0</ele>
        <time>2020-04-18T20:54:25.243Z</time>
      </trkpt>
      <trkpt lat="55.25272996164858" lon="12.169669959694147">
        <ele>20.0</ele>
        <time>2020-04-18T20:54:36.754Z</time>
      </trkpt>
      <trkpt lat="55.2527099289" lon="12.17001998797059">
        <ele>20.0</ele>
        <time>2020-04-18T20:54:48.268Z</time>
      </trkpt>
      <trkpt lat="55.25272996164858" lon="12.170149991288781">
        <ele>19.0</ele>
        <time>2020-04-18T20:54:59.784Z</time>
      </trkpt>
      <trkpt lat="55.25276994332671" lon="12.170229954645038">
        <ele>19.0</ele>
        <time>2020-04-18T20:55:11.301Z</time>
      </trkpt>
      <trkpt lat="55.252819983288646" lon="12.170309918001294">
        <ele>18.0</ele>
        <time>2020-04-18T20:55:22.819Z</time>
      </trkpt>
      <trkpt lat="55.25347997434437" lon="12.170679979026318">
        <ele>18.0</ele>
        <time>2020-04-18T20:55:34.348Z</time>
      </trkpt>
      <trkpt lat="55.2541399654001" lon="12.170939985662699">
        <ele>18.0</ele>
        <time>2020-04-18T20:55:45.888Z</time>
      </trkpt>
      <trkpt lat="55.25428991764784" lon="12.170989941805601">
        <ele>17.0</ele>
        <time>2020-04-18T20:55:57.430Z</time>
      </trkpt>
      <trkpt lat="55.25439997203648" lon="12.171079963445663">
        <ele>17.0</ele>
        <time>2020-04-18T20:56:08.974Z</time>
      </trkpt>
      <trkpt lat="55.25447993539274" lon="12.171219941228628">
        <ele>17.0</ele>
        <time>2020-04-18T20:56:20.520Z</time>
      </trkpt>
      <trkpt lat="55.254539949819446" lon="12.171379951760173">
        <ele>18.0</ele>
        <time>2020-04-18T20:56:32.068Z</time>
      </trkpt>
      <trkpt lat="55.254599964246154" lon="12.1720399428159">
        <ele>18.0</ele>
        <time>2020-04-18T20:56:43.622Z</time>
      </trkpt>
      <trkpt lat="55.25463994592428" lon="12.173569975420833">
        <ele>18.0</ele>
        <time>2020-04-18T20:56:55.190Z</time>
      </trkpt>
      <trkpt lat="55.254649920389056" lon="12.174879983067513">
        <ele>19.0</ele>
        <time>2020-04-18T20:57:06.770Z</time>
      </trkpt>
      <trkpt lat="55.25471999309957" lon="12.17566997744143">
        <ele>19.0</ele>
        <time>2020-04-18T20:57:18.357Z</time>
      </trkpt>
      <trkpt lat="55.25471999309957" lon="12.176059987396002">
        <ele>19.0</ele>
        <time>2020-04-18T20:57:29.948Z</time>
      </trkpt>
      <trkpt lat="55.25454992428422" lon="12.17770996503532">
        <ele>20.0</ele>
        <time>2020-04-18T20:57:41.554Z</time>
      </trkpt>
      <trkpt lat="55.25452997535467" lon="12.177909957244992">
        <ele>20.0</ele>
        <time>2020-04-18T20:57:53.162Z</time>
      </trkpt>
      <trkpt lat="55.25450994260609" lon="12.178079942241311">
        <ele>20.0</ele>
        <time>2020-04-18T20:58:04.771Z</time>
      </trkpt>
      <trkpt lat="55.25445998646319" lon="12.178109949454665">
        <ele>20.0</ele>
        <time>2020-04-18T20:58:16.381Z</time>
      </trkpt>
      <trkpt lat="55.25439997203648" lon="12.17811992391944">
        <ele>20.0</ele>
        <time>2020-04-18T20:58:27.992Z</time>
      </trkpt>
      <trkpt lat="55.25392999872565" lon="12.178109949454665">
        <ele>20.0</ele>
        <time>2020-04-18T20:58:39.611Z</time>
      </trkpt>
      <trkpt lat="55.253529930487275" lon="12.178039960563183">
        <ele>20.0</ele>
        <time>2020-04-18T20:58:51.236Z</time>
      </trkpt>
      <trkpt lat="55.252909921109676" lon="12.17781993560493">
        <ele>19.0</ele>
        <time>2020-04-18T20:59:02.871Z</time>
      </trkpt>
      <trkpt lat="55.251369997859" lon="12.177549954503775">
        <ele>19.0</ele>
        <time>2020-04-18T20:59:14.531Z</time>
      </trkpt>
      <trkpt lat="55.25072157382965" lon="12.177430847659707">
        <ele>19.0</ele>
        <time>2020-04-18T20:59:26.202Z</time>
      </trkpt>
      <trkpt lat="55.2507209032774" lon="12.177430763840675">
        <ele>19.0</ele>
        <time>2020-04-18T20:59:37.873Z</time>
      </trkpt>
      <trkpt lat="55.24989997968078" lon="12.17727997340262">
        <ele>18.0</ele>
        <time>2020-04-18T20:59:49.557Z</time>
      </trkpt>
      <trkpt lat="55.24958993308246" lon="12.177239991724491">
        <ele>18.0</ele>
        <time>2020-04-18T21:00:01.246Z</time>
      </trkpt>
      <trkpt lat="55.24952991865575" lon="12.177539980039">
        <ele>17.0</ele>
        <time>2020-04-18T21:00:12.938Z</time>
      </trkpt>
      <trkpt lat="55.2466799877584" lon="12.192069925367832">
        <ele>17.0</ele>
        <time>2020-04-18T21:00:24.771Z</time>
      </trkpt>
      <trkpt lat="55.246439930051565" lon="12.193379933014512">
        <ele>17.0</ele>
        <time>2020-04-18T21:00:36.616Z</time>
      </trkpt>
      <trkpt lat="55.24635996669531" lon="12.193849990144372">
        <ele>17.0</ele>
        <time>2020-04-18T21:00:48.466Z</time>
      </trkpt>
      <trkpt lat="55.2459199167788" lon="12.195769948884845">
        <ele>16.0</ele>
        <time>2020-04-18T21:01:00.335Z</time>
      </trkpt>
      <trkpt lat="55.24584992788732" lon="12.19605996273458">
        <ele>16.0</ele>
        <time>2020-04-18T21:01:12.206Z</time>
      </trkpt>
      <trkpt lat="55.245689917355776" lon="12.196479979902506">
        <ele>16.0</ele>
        <time>2020-04-18T21:01:24.082Z</time>
      </trkpt>
      <trkpt lat="55.24520996958017" lon="12.197729973122478">
        <ele>16.0</ele>
        <time>2020-04-18T21:01:35.972Z</time>
      </trkpt>
      <trkpt lat="55.24511994794011" lon="12.198089975863695">
        <ele>16.0</ele>
        <time>2020-04-18T21:01:47.865Z</time>
      </trkpt>
      <trkpt lat="55.24493998847902" lon="12.199099995195866">
        <ele>16.0</ele>
        <time>2020-04-18T21:01:59.768Z</time>
      </trkpt>
      <trkpt lat="55.244479989632964" lon="12.201649937778711">
        <ele>16.0</ele>
        <time>2020-04-18T21:02:11.696Z</time>
      </trkpt>
      <trkpt lat="55.24446993134916" lon="12.202369943261147">
        <ele>16.0</ele>
        <time>2020-04-18T21:02:23.630Z</time>
      </trkpt>
      <trkpt lat="55.24442994967103" lon="12.2036899253726">
        <ele>16.0</ele>
        <time>2020-04-18T21:02:35.576Z</time>
      </trkpt>
      <trkpt lat="55.244459956884384" lon="12.204259978607297">
        <ele>16.0</ele>
        <time>2020-04-18T21:02:47.528Z</time>
      </trkpt>
      <trkpt lat="55.24451997131109" lon="12.204639930278063">
        <ele>16.0</ele>
        <time>2020-04-18T21:02:59.483Z</time>
      </trkpt>
      <trkpt lat="55.2458699606359" lon="12.209459943696856">
        <ele>16.0</ele>
        <time>2020-04-18T21:03:11.487Z</time>
      </trkpt>
      <trkpt lat="55.246199956163764" lon="12.210569959133863">
        <ele>16.0</ele>
        <time>2020-04-18T21:03:23.503Z</time>
      </trkpt>
      <trkpt lat="55.24646993726492" lon="12.211109921336174">
        <ele>15.0</ele>
        <time>2020-04-18T21:03:35.525Z</time>
      </trkpt>
      <trkpt lat="55.24747995659709" lon="12.212739950045943">
        <ele>15.0</ele>
        <time>2020-04-18T21:03:47.569Z</time>
      </trkpt>
      <trkpt lat="55.24785999208689" lon="12.21339994110167">
        <ele>15.0</ele>
        <time>2020-04-18T21:03:59.622Z</time>
      </trkpt>
      <trkpt lat="55.24893991649151" lon="12.215359965339303">
        <ele>15.0</ele>
        <time>2020-04-18T21:04:11.700Z</time>
      </trkpt>
      <trkpt lat="55.24904997088015" lon="12.215689960867167">
        <ele>14.0</ele>
        <time>2020-04-18T21:04:23.781Z</time>
      </trkpt>
      <trkpt lat="55.2492599375546" lon="12.217149920761585">
        <ele>14.0</ele>
        <time>2020-04-18T21:04:35.876Z</time>
      </trkpt>
      <trkpt lat="55.24956998415291" lon="12.218849938362837">
        <ele>13.0</ele>
        <time>2020-04-18T21:04:47.988Z</time>
      </trkpt>
      <trkpt lat="55.24971993640065" lon="12.219259981065989">
        <ele>13.0</ele>
        <time>2020-04-18T21:05:00.104Z</time>
      </trkpt>
      <trkpt lat="55.250499956309795" lon="12.220759922638535">
        <ele>12.0</ele>
        <time>2020-04-18T21:05:12.239Z</time>
      </trkpt>
      <trkpt lat="55.25065996684134" lon="12.221109950914979">
        <ele>12.0</ele>
        <time>2020-04-18T21:05:24.378Z</time>
      </trkpt>
      <trkpt lat="55.25078997015953" lon="12.221599956974387">
        <ele>12.0</ele>
        <time>2020-04-18T21:05:36.522Z</time>
      </trkpt>
      <trkpt lat="55.251079984009266" lon="12.222989927977324">
        <ele>11.0</ele>
        <time>2020-04-18T21:05:48.679Z</time>
      </trkpt>
      <trkpt lat="55.25142992846668" lon="12.223229985684156">
        <ele>11.0</ele>
        <time>2020-04-18T21:06:00.842Z</time>
      </trkpt>
      <trkpt lat="55.252779917791486" lon="12.224089968949556">
        <ele>11.0</ele>
        <time>2020-04-18T21:06:13.028Z</time>
      </trkpt>
      <trkpt lat="55.253099938854575" lon="12.224279986694455">
        <ele>11.0</ele>
        <time>2020-04-18T21:06:25.220Z</time>
      </trkpt>
      <trkpt lat="55.25362992659211" lon="12.224509986117482">
        <ele>12.0</ele>
        <time>2020-04-18T21:06:37.420Z</time>
      </trkpt>
      <trkpt lat="55.25383997708559" lon="12.224559942260385">
        <ele>12.0</ele>
        <time>2020-04-18T21:06:49.624Z</time>
      </trkpt>
      <trkpt lat="55.25392999872565" lon="12.224489953368902">
        <ele>12.0</ele>
        <time>2020-04-18T21:07:01.829Z</time>
      </trkpt>
      <trkpt lat="55.25398992933333" lon="12.224329942837358">
        <ele>12.0</ele>
        <time>2020-04-18T21:07:14.036Z</time>
      </trkpt>
      <trkpt lat="55.254129990935326" lon="12.22342997789383">
        <ele>13.0</ele>
        <time>2020-04-18T21:07:26.252Z</time>
      </trkpt>
      <trkpt lat="55.254169972613454" lon="12.223369963467121">
        <ele>14.0</ele>
        <time>2020-04-18T21:07:38.469Z</time>
      </trkpt>
      <trkpt lat="55.254279943183064" lon="12.223279941827059">
        <ele>14.0</ele>
        <time>2020-04-18T21:07:50.687Z</time>
      </trkpt>
      <trkpt lat="55.256409952417016" lon="12.223139964044094">
        <ele>15.0</ele>
        <time>2020-04-18T21:08:02.940Z</time>
      </trkpt>
      <trkpt lat="55.25780998170376" lon="12.223019935190678">
        <ele>16.0</ele>
        <time>2020-04-18T21:08:15.215Z</time>
      </trkpt>
      <trkpt lat="55.25893994607031" lon="12.22295992076397">
        <ele>17.0</ele>
        <time>2020-04-18T21:08:27.508Z</time>
      </trkpt>
      <trkpt lat="55.25929994881153" lon="12.222939971834421">
        <ele>18.0</ele>
        <time>2020-04-18T21:08:39.807Z</time>
      </trkpt>
      <trkpt lat="55.25961787439883" lon="12.22296142950654">
        <ele>18.0</ele>
        <time>2020-04-18T21:08:52.111Z</time>
      </trkpt>
      <trkpt lat="55.25961862877011" lon="12.22296142950654">
        <ele>19.0</ele>
        <time>2020-04-18T21:09:04.415Z</time>
      </trkpt>
      <trkpt lat="55.25961854495108" lon="12.22296142950654">
        <ele>19.0</ele>
        <time>2020-04-18T21:09:16.719Z</time>
      </trkpt>
      <trkpt lat="55.260189939290285" lon="12.22299998626113">
        <ele>20.0</ele>
        <time>2020-04-18T21:09:29.032Z</time>
      </trkpt>
      <trkpt lat="55.26101999916136" lon="12.223059916868806">
        <ele>20.0</ele>
        <time>2020-04-18T21:09:41.359Z</time>
      </trkpt>
      <trkpt lat="55.261499946936965" lon="12.22312998957932">
        <ele>20.0</ele>
        <time>2020-04-18T21:09:53.693Z</time>
      </trkpt>
      <trkpt lat="55.26189993135631" lon="12.223299974575639">
        <ele>19.0</ele>
        <time>2020-04-18T21:10:06.034Z</time>
      </trkpt>
      <trkpt lat="55.262529999017715" lon="12.223619995638728">
        <ele>19.0</ele>
        <time>2020-04-18T21:10:18.385Z</time>
      </trkpt>
      <trkpt lat="55.26287994347513" lon="12.223769947886467">
        <ele>18.0</ele>
        <time>2020-04-18T21:10:30.742Z</time>
      </trkpt>
      <trkpt lat="55.26303995400667" lon="12.223879918456078">
        <ele>18.0</ele>
        <time>2020-04-18T21:10:43.102Z</time>
      </trkpt>
      <trkpt lat="55.263429963961244" lon="12.224209997802973">
        <ele>17.0</ele>
        <time>2020-04-18T21:10:55.469Z</time>
      </trkpt>
      <trkpt lat="55.2635099273175" lon="12.224279986694455">
        <ele>17.0</ele>
        <time>2020-04-18T21:11:07.837Z</time>
      </trkpt>
      <trkpt lat="55.26358997449279" lon="12.22428996115923">
        <ele>16.0</ele>
        <time>2020-04-18T21:11:20.207Z</time>
      </trkpt>
      <trkpt lat="55.263669937849045" lon="12.22428996115923">
        <ele>15.0</ele>
        <time>2020-04-18T21:11:32.578Z</time>
      </trkpt>
      <trkpt lat="55.26378996670246" lon="12.224239921197295">
        <ele>15.0</ele>
        <time>2020-04-18T21:11:44.951Z</time>
      </trkpt>
      <trkpt lat="55.26425994001329" lon="12.224049987271428">
        <ele>14.0</ele>
        <time>2020-04-18T21:11:57.332Z</time>
      </trkpt>
      <trkpt lat="55.264399917796254" lon="12.224039928987622">
        <ele>14.0</ele>
        <time>2020-04-18T21:12:09.715Z</time>
      </trkpt>
      <trkpt lat="55.26668993756175" lon="12.224349975585938">
        <ele>14.0</ele>
        <time>2020-04-18T21:12:22.135Z</time>
      </trkpt>
      <trkpt lat="55.26718991808593" lon="12.224409990012646">
        <ele>14.0</ele>
        <time>2020-04-18T21:12:34.563Z</time>
      </trkpt>
      <trkpt lat="55.26736996136606" lon="12.22439993172884">
        <ele>14.0</ele>
        <time>2020-04-18T21:12:46.994Z</time>
      </trkpt>
      <trkpt lat="55.268759932368994" lon="12.224139925092459">
        <ele>14.0</ele>
        <time>2020-04-18T21:12:59.447Z</time>
      </trkpt>
      <trkpt lat="55.26894995011389" lon="12.224069936200976">
        <ele>14.0</ele>
        <time>2020-04-18T21:13:11.903Z</time>
      </trkpt>
      <trkpt lat="55.26904994621873" lon="12.223999947309494">
        <ele>14.0</ele>
        <time>2020-04-18T21:13:24.361Z</time>
      </trkpt>
      <trkpt lat="55.26910996064544" lon="12.224139925092459">
        <ele>14.0</ele>
        <time>2020-04-18T21:13:36.820Z</time>
      </trkpt>
      <trkpt lat="55.269209956750274" lon="12.22426992841065">
        <ele>14.0</ele>
        <time>2020-04-18T21:13:49.281Z</time>
      </trkpt>
      <trkpt lat="55.26947993785143" lon="12.224599923938513">
        <ele>14.0</ele>
        <time>2020-04-18T21:14:01.748Z</time>
      </trkpt>
      <trkpt lat="55.26958999224007" lon="12.224629931151867">
        <ele>14.0</ele>
        <time>2020-04-18T21:14:14.217Z</time>
      </trkpt>
      <trkpt lat="55.269709937274456" lon="12.224659938365221">
        <ele>14.0</ele>
        <time>2020-04-18T21:14:26.687Z</time>
      </trkpt>
      <trkpt lat="55.26990992948413" lon="12.224619956687093">
        <ele>14.0</ele>
        <time>2020-04-18T21:14:39.161Z</time>
      </trkpt>
      <trkpt lat="55.27030999772251" lon="12.224469920620322">
        <ele>14.0</ele>
        <time>2020-04-18T21:14:51.641Z</time>
      </trkpt>
      <trkpt lat="55.270479982718825" lon="12.224479978904128">
        <ele>14.0</ele>
        <time>2020-04-18T21:15:04.124Z</time>
      </trkpt>
      <trkpt lat="55.270649967715144" lon="12.224569916725159">
        <ele>14.0</ele>
        <time>2020-04-18T21:15:16.610Z</time>
      </trkpt>
      <trkpt lat="55.270779971033335" lon="12.224749960005283">
        <ele>14.0</ele>
        <time>2020-04-18T21:15:29.099Z</time>
      </trkpt>
      <trkpt lat="55.2709199488163" lon="12.225089929997921">
        <ele>14.0</ele>
        <time>2020-04-18T21:15:41.591Z</time>
      </trkpt>
      <trkpt lat="55.27108993381262" lon="12.225929964333773">
        <ele>13.0</ele>
        <time>2020-04-18T21:15:54.092Z</time>
      </trkpt>
      <trkpt lat="55.27112999930978" lon="12.226129956543446">
        <ele>13.0</ele>
        <time>2020-04-18T21:16:06.594Z</time>
      </trkpt>
      <trkpt lat="55.271189929917455" lon="12.22626993432641">
        <ele>13.0</ele>
        <time>2020-04-18T21:16:19.098Z</time>
      </trkpt>
      <trkpt lat="55.27139998041093" lon="12.226519966498017">
        <ele>13.0</ele>
        <time>2020-04-18T21:16:31.606Z</time>
      </trkpt>
      <trkpt lat="55.271469969302416" lon="12.226549973711371">
        <ele>12.0</ele>
        <time>2020-04-18T21:16:44.115Z</time>
      </trkpt>
      <trkpt lat="55.27168999426067" lon="12.226559948176146">
        <ele>12.0</ele>
        <time>2020-04-18T21:16:56.628Z</time>
      </trkpt>
      <trkpt lat="55.271899960935116" lon="12.2265899553895">
        <ele>12.0</ele>
        <time>2020-04-18T21:17:09.144Z</time>
      </trkpt>
      <trkpt lat="55.272199949249625" lon="12.226799922063947">
        <ele>12.0</ele>
        <time>2020-04-18T21:17:21.665Z</time>
      </trkpt>
      <trkpt lat="55.272459955886006" lon="12.226859936490655">
        <ele>11.0</ele>
        <time>2020-04-18T21:17:34.191Z</time>
      </trkpt>
      <trkpt lat="55.27268995530903" lon="12.226889943704009">
        <ele>11.0</ele>
        <time>2020-04-18T21:17:46.720Z</time>
      </trkpt>
      <trkpt lat="55.27299991808832" lon="12.22686999477446">
        <ele>11.0</ele>
        <time>2020-04-18T21:17:59.254Z</time>
      </trkpt>
      <trkpt lat="55.273209968581796" lon="12.22686999477446">
        <ele>11.0</ele>
        <time>2020-04-18T21:18:11.792Z</time>
      </trkpt>
      <trkpt lat="55.27328993193805" lon="12.226889943704009">
        <ele>11.0</ele>
        <time>2020-04-18T21:18:24.331Z</time>
      </trkpt>
      <trkpt lat="55.27328993193805" lon="12.22703997977078">
        <ele>10.0</ele>
        <time>2020-04-18T21:18:36.871Z</time>
      </trkpt>
      <trkpt lat="55.27332999743521" lon="12.227509953081608">
        <ele>10.0</ele>
        <time>2020-04-18T21:18:49.416Z</time>
      </trkpt>
      <trkpt lat="55.27355999685824" lon="12.228409918025136">
        <ele>10.0</ele>
        <time>2020-04-18T21:19:01.970Z</time>
      </trkpt>
      <trkpt lat="55.27359997853637" lon="12.22858996130526">
        <ele>10.0</ele>
        <time>2020-04-18T21:19:14.525Z</time>
      </trkpt>
      <trkpt lat="55.273619927465916" lon="12.22886991687119">
        <ele>9.0</ele>
        <time>2020-04-18T21:19:27.083Z</time>
      </trkpt>
      <trkpt lat="55.27373995631933" lon="12.229009978473186">
        <ele>9.0</ele>
        <time>2020-04-18T21:19:39.643Z</time>
      </trkpt>
      <trkpt lat="55.274129966273904" lon="12.229379955679178">
        <ele>9.0</ele>
        <time>2020-04-18T21:19:52.210Z</time>
      </trkpt>
      <trkpt lat="55.275439973920584" lon="12.230589967221022">
        <ele>9.0</ele>
        <time>2020-04-18T21:20:04.801Z</time>
      </trkpt>
      <trkpt lat="55.27574993669987" lon="12.230809992179275">
        <ele>9.0</ele>
        <time>2020-04-18T21:20:17.398Z</time>
      </trkpt>
      <trkpt lat="55.276539931073785" lon="12.231429917737842">
        <ele>8.0</ele>
        <time>2020-04-18T21:20:30.008Z</time>
      </trkpt>
      <trkpt lat="55.276839919388294" lon="12.231629993766546">
        <ele>9.0</ele>
        <time>2020-04-18T21:20:42.624Z</time>
      </trkpt>
      <trkpt lat="55.27750996872783" lon="12.231979938223958">
        <ele>9.0</ele>
        <time>2020-04-18T21:20:55.251Z</time>
      </trkpt>
      <trkpt lat="55.27819996699691" lon="12.232319992035627">
        <ele>9.0</ele>
        <time>2020-04-18T21:21:07.889Z</time>
      </trkpt>
      <trkpt lat="55.27867999859154" lon="12.2325199842453">
        <ele>9.0</ele>
        <time>2020-04-18T21:21:20.535Z</time>
      </trkpt>
      <trkpt lat="55.279439985752106" lon="12.232909994199872">
        <ele>10.0</ele>
        <time>2020-04-18T21:21:33.194Z</time>
      </trkpt>
      <trkpt lat="55.279859919101" lon="12.233129935339093">
        <ele>10.0</ele>
        <time>2020-04-18T21:21:45.860Z</time>
      </trkpt>
      <trkpt lat="55.28006996959448" lon="12.233189949765801">
        <ele>10.0</ele>
        <time>2020-04-18T21:21:58.529Z</time>
      </trkpt>
      <trkpt lat="55.280279936268926" lon="12.233149968087673">
        <ele>11.0</ele>
        <time>2020-04-18T21:22:11.202Z</time>
      </trkpt>
      <trkpt lat="55.281239999458194" lon="12.232719976454973">
        <ele>11.0</ele>
        <time>2020-04-18T21:22:23.891Z</time>
      </trkpt>
      <trkpt lat="55.282019935548306" lon="12.232439937070012">
        <ele>12.0</ele>
        <time>2020-04-18T21:22:36.592Z</time>
      </trkpt>
      <trkpt lat="55.28212998993695" lon="12.232439937070012">
        <ele>13.0</ele>
        <time>2020-04-18T21:22:49.295Z</time>
      </trkpt>
      <trkpt lat="55.282209953293204" lon="12.23238998092711">
        <ele>13.0</ele>
        <time>2020-04-18T21:23:01.999Z</time>
      </trkpt>
      <trkpt lat="55.282619995996356" lon="12.232249919325113">
        <ele>14.0</ele>
        <time>2020-04-18T21:23:14.710Z</time>
      </trkpt>
      <trkpt lat="55.28274999931455" lon="12.232169955968857">
        <ele>14.0</ele>
        <time>2020-04-18T21:23:27.423Z</time>
      </trkpt>
      <trkpt lat="55.28286064043641" lon="12.232075072824955">
        <ele>14.0</ele>
        <time>2020-04-18T21:23:40.138Z</time>
      </trkpt>
      <trkpt lat="55.28309994377196" lon="12.231869967654347">
        <ele>15.0</ele>
        <time>2020-04-18T21:23:52.858Z</time>
      </trkpt>
      <trkpt lat="55.28324997983873" lon="12.23178992047906">
        <ele>15.0</ele>
        <time>2020-04-18T21:24:05.580Z</time>
      </trkpt>
      <trkpt lat="55.28343999758363" lon="12.231759997084737">
        <ele>15.0</ele>
        <time>2020-04-18T21:24:18.305Z</time>
      </trkpt>
      <trkpt lat="55.28357997536659" lon="12.231779946014285">
        <ele>15.0</ele>
        <time>2020-04-18T21:24:31.032Z</time>
      </trkpt>
      <trkpt lat="55.28367997147143" lon="12.231739964336157">
        <ele>15.0</ele>
        <time>2020-04-18T21:24:43.761Z</time>
      </trkpt>
      <trkpt lat="55.28424994088709" lon="12.231609961017966">
        <ele>16.0</ele>
        <time>2020-04-18T21:24:56.499Z</time>
      </trkpt>
      <trkpt lat="55.28432998806238" lon="12.231689924374223">
        <ele>16.0</ele>
        <time>2020-04-18T21:25:09.239Z</time>
      </trkpt>
      <trkpt lat="55.284359995275736" lon="12.231859993189573">
        <ele>16.0</ele>
        <time>2020-04-18T21:25:21.980Z</time>
      </trkpt>
      <trkpt lat="55.284399976953864" lon="12.233099928125739">
        <ele>16.0</ele>
        <time>2020-04-18T21:25:34.733Z</time>
      </trkpt>
      <trkpt lat="55.28442998416722" lon="12.234079940244555">
        <ele>16.0</ele>
        <time>2020-04-18T21:25:47.495Z</time>
      </trkpt>
      <trkpt lat="55.284639950841665" lon="12.234139954671264">
        <ele>16.0</ele>
        <time>2020-04-18T21:26:00.260Z</time>
      </trkpt>
      <trkpt lat="55.285089975222945" lon="12.234329972416162">
        <ele>17.0</ele>
        <time>2020-04-18T21:26:13.033Z</time>
      </trkpt>
      <trkpt lat="55.28542994521558" lon="12.234469950199127">
        <ele>17.0</ele>
        <time>2020-04-18T21:26:25.811Z</time>
      </trkpt>
      <trkpt lat="55.28548995964229" lon="12.234729956835508">
        <ele>17.0</ele>
        <time>2020-04-18T21:26:38.592Z</time>
      </trkpt>
      <trkpt lat="55.28557998128235" lon="12.235689936205745">
        <ele>18.0</ele>
        <time>2020-04-18T21:26:51.382Z</time>
      </trkpt>
      <trkpt lat="55.28565994463861" lon="12.23584994673729">
        <ele>18.0</ele>
        <time>2020-04-18T21:27:04.174Z</time>
      </trkpt>
      <trkpt lat="55.28576999902725" lon="12.235889928415418">
        <ele>18.0</ele>
        <time>2020-04-18T21:27:16.967Z</time>
      </trkpt>
      <trkpt lat="55.293299965560436" lon="12.233499996364117">
        <ele>19.0</ele>
        <time>2020-04-18T21:27:29.883Z</time>
      </trkpt>
      <trkpt lat="55.29401997104287" lon="12.233279971405864">
        <ele>19.0</ele>
        <time>2020-04-18T21:27:42.811Z</time>
      </trkpt>
      <trkpt lat="55.294089959934354" lon="12.233219956979156">
        <ele>20.0</ele>
        <time>2020-04-18T21:27:55.740Z</time>
      </trkpt>
      <trkpt lat="55.29411996714771" lon="12.23307997919619">
        <ele>20.0</ele>
        <time>2020-04-18T21:28:08.670Z</time>
      </trkpt>
      <trkpt lat="55.294089959934354" lon="12.232709918171167">
        <ele>20.0</ele>
        <time>2020-04-18T21:28:21.604Z</time>
      </trkpt>
      <trkpt lat="55.294109992682934" lon="12.232549991458654">
        <ele>20.0</ele>
        <time>2020-04-18T21:28:34.539Z</time>
      </trkpt>
      <trkpt lat="55.294179981574416" lon="12.232409929856658">
        <ele>20.0</ele>
        <time>2020-04-18T21:28:47.476Z</time>
      </trkpt>
      <trkpt lat="55.29426991939545" lon="12.232349999248981">
        <ele>20.0</ele>
        <time>2020-04-18T21:29:00.415Z</time>
      </trkpt>
      <trkpt lat="55.29493996873498" lon="12.23223994486034">
        <ele>20.0</ele>
        <time>2020-04-18T21:29:13.364Z</time>
      </trkpt>
      <trkpt lat="55.296259950846434" lon="12.232119999825954">
        <ele>20.0</ele>
        <time>2020-04-18T21:29:26.335Z</time>
      </trkpt>
      <trkpt lat="55.29645994305611" lon="12.232059985399246">
        <ele>19.0</ele>
        <time>2020-04-18T21:29:39.309Z</time>
      </trkpt>
      <trkpt lat="55.29660997912288" lon="12.231909949332476">
        <ele>19.0</ele>
        <time>2020-04-18T21:29:52.286Z</time>
      </trkpt>
      <trkpt lat="55.29761999845505" lon="12.230549985542893">
        <ele>18.0</ele>
        <time>2020-04-18T21:30:05.283Z</time>
      </trkpt>
      <trkpt lat="55.29775997623801" lon="12.230229964479804">
        <ele>17.0</ele>
        <time>2020-04-18T21:30:18.284Z</time>
      </trkpt>
      <trkpt lat="55.29930995777249" lon="12.22613993100822">
        <ele>16.0</ele>
        <time>2020-04-18T21:30:31.330Z</time>
      </trkpt>
      <trkpt lat="55.299459993839264" lon="12.225799961015582">
        <ele>16.0</ele>
        <time>2020-04-18T21:30:44.380Z</time>
      </trkpt>
      <trkpt lat="55.30088994652033" lon="12.227499978616834">
        <ele>15.0</ele>
        <time>2020-04-18T21:30:57.457Z</time>
      </trkpt>
      <trkpt lat="55.30134994536638" lon="12.227979926392436">
        <ele>14.0</ele>
        <time>2020-04-18T21:31:10.543Z</time>
      </trkpt>
      <trkpt lat="55.30247999355197" lon="12.229069992899895">
        <ele>13.0</ele>
        <time>2020-04-18T21:31:23.649Z</time>
      </trkpt>
      <trkpt lat="55.30266992747784" lon="12.22920997068286">
        <ele>12.0</ele>
        <time>2020-04-18T21:31:36.759Z</time>
      </trkpt>
      <trkpt lat="55.30385999009013" lon="12.23006995394826">
        <ele>12.0</ele>
        <time>2020-04-18T21:31:49.889Z</time>
      </trkpt>
      <trkpt lat="55.30394992791116" lon="12.230119993910193">
        <ele>11.0</ele>
        <time>2020-04-18T21:32:03.021Z</time>
      </trkpt>
      <trkpt lat="55.30396996065974" lon="12.230259971693158">
        <ele>11.0</ele>
        <time>2020-04-18T21:32:16.154Z</time>
      </trkpt>
      <trkpt lat="55.30436893925071" lon="12.231768798083067">
        <ele>10.0</ele>
        <time>2020-04-18T21:32:29.302Z</time>
      </trkpt>
      <trkpt lat="55.304369274526834" lon="12.231769971549511">
        <ele>10.0</ele>
        <time>2020-04-18T21:32:42.450Z</time>
      </trkpt>
      <trkpt lat="55.30451998114586" lon="12.232339940965176">
        <ele>10.0</ele>
        <time>2020-04-18T21:32:55.604Z</time>
      </trkpt>
      <trkpt lat="55.30497997999191" lon="12.234079940244555">
        <ele>10.0</ele>
        <time>2020-04-18T21:33:08.776Z</time>
      </trkpt>
      <trkpt lat="55.30525993555784" lon="12.235149974003434">
        <ele>11.0</ele>
        <time>2020-04-18T21:33:21.959Z</time>
      </trkpt>
      <trkpt lat="55.30538993887603" lon="12.235469995066524">
        <ele>11.0</ele>
        <time>2020-04-18T21:33:35.145Z</time>
      </trkpt>
      <trkpt lat="55.30548993498087" lon="12.235579965636134">
        <ele>12.0</ele>
        <time>2020-04-18T21:33:48.333Z</time>
      </trkpt>
      <trkpt lat="55.30746999196708" lon="12.236219923943281">
        <ele>13.0</ele>
        <time>2020-04-18T21:34:01.553Z</time>
      </trkpt>
      <trkpt lat="55.307929990813136" lon="12.236379934474826">
        <ele>13.0</ele>
        <time>2020-04-18T21:34:14.781Z</time>
      </trkpt>
      <trkpt lat="55.30834992416203" lon="12.23653994500637">
        <ele>14.0</ele>
        <time>2020-04-18T21:34:28.016Z</time>
      </trkpt>
      <trkpt lat="55.310679925605655" lon="12.237329939380288">
        <ele>15.0</ele>
        <time>2020-04-18T21:34:41.289Z</time>
      </trkpt>
      <trkpt lat="55.31116993166506" lon="12.237479975447059">
        <ele>16.0</ele>
        <time>2020-04-18T21:34:54.570Z</time>
      </trkpt>
      <trkpt lat="55.312439957633615" lon="12.237929999828339">
        <ele>16.0</ele>
        <time>2020-04-18T21:35:07.871Z</time>
      </trkpt>
      <trkpt lat="55.31330999918282" lon="12.238289918750525">
        <ele>17.0</ele>
        <time>2020-04-18T21:35:21.187Z</time>
      </trkpt>
      <trkpt lat="55.315039940178394" lon="12.239119978621602">
        <ele>17.0</ele>
        <time>2020-04-18T21:35:34.532Z</time>
      </trkpt>
      <trkpt lat="55.317489970475435" lon="12.240259917452931">
        <ele>18.0</ele>
        <time>2020-04-18T21:35:47.917Z</time>
      </trkpt>
      <trkpt lat="55.31785994768143" lon="12.240419927984476">
        <ele>18.0</ele>
        <time>2020-04-18T21:36:01.308Z</time>
      </trkpt>
      <trkpt lat="55.31792993657291" lon="12.240539956837893">
        <ele>18.0</ele>
        <time>2020-04-18T21:36:14.701Z</time>
      </trkpt>
      <trkpt lat="55.31795994378626" lon="12.24074992351234">
        <ele>18.0</ele>
        <time>2020-04-18T21:36:28.096Z</time>
      </trkpt>
      <trkpt lat="55.317809991538525" lon="12.242929972708225">
        <ele>19.0</ele>
        <time>2020-04-18T21:36:41.511Z</time>
      </trkpt>
      <trkpt lat="55.31775995157659" lon="12.243329957127571">
        <ele>19.0</ele>
        <time>2020-04-18T21:36:54.930Z</time>
      </trkpt>
      <trkpt lat="55.317659955471754" lon="12.243789955973625">
        <ele>19.0</ele>
        <time>2020-04-18T21:37:08.353Z</time>
      </trkpt>
      <trkpt lat="55.31766992993653" lon="12.243959940969944">
        <ele>19.0</ele>
        <time>2020-04-18T21:37:21.778Z</time>
      </trkpt>
      <trkpt lat="55.317769926041365" lon="12.244089944288135">
        <ele>19.0</ele>
        <time>2020-04-18T21:37:35.205Z</time>
      </trkpt>
      <trkpt lat="55.32052991911769" lon="12.245339937508106">
        <ele>19.0</ele>
        <time>2020-04-18T21:37:48.677Z</time>
      </trkpt>
      <trkpt lat="55.32373993657529" lon="12.246739966794848">
        <ele>19.0</ele>
        <time>2020-04-18T21:38:02.202Z</time>
      </trkpt>
      <trkpt lat="55.3240399248898" lon="12.246849937364459">
        <ele>19.0</ele>
        <time>2020-04-18T21:38:15.732Z</time>
      </trkpt>
      <trkpt lat="55.32611997798085" lon="12.247159983962774">
        <ele>18.0</ele>
        <time>2020-04-18T21:38:29.296Z</time>
      </trkpt>
      <trkpt lat="55.32691818661988" lon="12.247278839349747">
        <ele>18.0</ele>
        <time>2020-04-18T21:38:42.873Z</time>
      </trkpt>
      <trkpt lat="55.32691894099116" lon="12.247278923168778">
        <ele>18.0</ele>
        <time>2020-04-18T21:38:56.450Z</time>
      </trkpt>
      <trkpt lat="55.32705992460251" lon="12.247299961745739">
        <ele>18.0</ele>
        <time>2020-04-18T21:39:10.029Z</time>
      </trkpt>
      <trkpt lat="55.32746996730566" lon="12.247329968959093">
        <ele>17.0</ele>
        <time>2020-04-18T21:39:23.615Z</time>
      </trkpt>
      <trkpt lat="55.32765998505056" lon="12.247309936210513">
        <ele>17.0</ele>
        <time>2020-04-18T21:39:37.204Z</time>
      </trkpt>
      <trkpt lat="55.32800992950797" lon="12.247229972854257">
        <ele>17.0</ele>
        <time>2020-04-18T21:39:50.798Z</time>
      </trkpt>
      <trkpt lat="55.32840999774635" lon="12.247149925678968">
        <ele>17.0</ele>
        <time>2020-04-18T21:40:04.399Z</time>
      </trkpt>
      <trkpt lat="55.32881995663047" lon="12.247049929574132">
        <ele>17.0</ele>
        <time>2020-04-18T21:40:18.006Z</time>
      </trkpt>
      <trkpt lat="55.32881995663047" lon="12.247819975018501">
        <ele>17.0</ele>
        <time>2020-04-18T21:40:31.620Z</time>
      </trkpt>
      <trkpt lat="55.3288599383086" lon="12.248199926689267">
        <ele>17.0</ele>
        <time>2020-04-18T21:40:45.238Z</time>
      </trkpt>
      <trkpt lat="55.32903998158872" lon="12.248219959437847">
        <ele>17.0</ele>
        <time>2020-04-18T21:40:58.859Z</time>
      </trkpt>
      <trkpt lat="55.329589918255806" lon="12.248349962756038">
        <ele>17.0</ele>
        <time>2020-04-18T21:41:12.489Z</time>
      </trkpt>
      <trkpt lat="55.32985998317599" lon="12.248509973287582">
        <ele>17.0</ele>
        <time>2020-04-18T21:41:26.123Z</time>
      </trkpt>
      <trkpt lat="55.330249993130565" lon="12.248689932748675">
        <ele>17.0</ele>
        <time>2020-04-18T21:41:39.764Z</time>
      </trkpt>
      <trkpt lat="55.330659952014685" lon="12.248819936066866">
        <ele>17.0</ele>
        <time>2020-04-18T21:41:53.411Z</time>
      </trkpt>
      <trkpt lat="55.33079992979765" lon="12.248819936066866">
        <ele>17.0</ele>
        <time>2020-04-18T21:42:07.061Z</time>
      </trkpt>
      <trkpt lat="55.330899925902486" lon="12.248829994350672">
        <ele>17.0</ele>
        <time>2020-04-18T21:42:20.712Z</time>
      </trkpt>
      <trkpt lat="55.33098994754255" lon="12.248799987137318">
        <ele>16.0</ele>
        <time>2020-04-18T21:42:34.365Z</time>
      </trkpt>
      <trkpt lat="55.33260991796851" lon="12.248019967228174">
        <ele>16.0</ele>
        <time>2020-04-18T21:42:48.045Z</time>
      </trkpt>
      <trkpt lat="55.332829942926764" lon="12.248019967228174">
        <ele>16.0</ele>
        <time>2020-04-18T21:43:01.728Z</time>
      </trkpt>
      <trkpt lat="55.33301996067166" lon="12.248089956119657">
        <ele>15.0</ele>
        <time>2020-04-18T21:43:15.414Z</time>
      </trkpt>
      <trkpt lat="55.333239985629916" lon="12.248239992186427">
        <ele>15.0</ele>
        <time>2020-04-18T21:43:29.104Z</time>
      </trkpt>
      <trkpt lat="55.333729991689324" lon="12.248699991032481">
        <ele>14.0</ele>
        <time>2020-04-18T21:43:42.803Z</time>
      </trkpt>
      <trkpt lat="55.334959952160716" lon="12.249919977039099">
        <ele>14.0</ele>
        <time>2020-04-18T21:43:56.525Z</time>
      </trkpt>
      <trkpt lat="55.335449958220124" lon="12.250439990311861">
        <ele>13.0</ele>
        <time>2020-04-18T21:44:10.256Z</time>
      </trkpt>
      <trkpt lat="55.336759965866804" lon="12.251889975741506">
        <ele>13.0</ele>
        <time>2020-04-18T21:44:24.012Z</time>
      </trkpt>
      <trkpt lat="55.33703992143273" lon="12.252229945734143">
        <ele>12.0</ele>
        <time>2020-04-18T21:44:37.773Z</time>
      </trkpt>
      <trkpt lat="55.33732993528247" lon="12.252619955688715">
        <ele>12.0</ele>
        <time>2020-04-18T21:44:51.540Z</time>
      </trkpt>
      <trkpt lat="55.337879955768585" lon="12.253299979493022">
        <ele>11.0</ele>
        <time>2020-04-18T21:45:05.318Z</time>
      </trkpt>
      <trkpt lat="55.337999984622" lon="12.253539953380823">
        <ele>11.0</ele>
        <time>2020-04-18T21:45:19.099Z</time>
      </trkpt>
      <trkpt lat="55.339059960097075" lon="12.256549978628755">
        <ele>10.0</ele>
        <time>2020-04-18T21:45:32.912Z</time>
      </trkpt>
      <trkpt lat="55.339939976111054" lon="12.259689923375845">
        <ele>10.0</ele>
        <time>2020-04-18T21:45:46.757Z</time>
      </trkpt>
      <trkpt lat="55.340499971061945" lon="12.261689929291606">
        <ele>10.0</ele>
        <time>2020-04-18T21:46:00.622Z</time>
      </trkpt>
      <trkpt lat="55.34050994552672" lon="12.261989917606115">
        <ele>10.0</ele>
        <time>2020-04-18T21:46:14.490Z</time>
      </trkpt>
      <trkpt lat="55.34044993110001" lon="12.263409979641438">
        <ele>10.0</ele>
        <time>2020-04-18T21:46:28.371Z</time>
      </trkpt>
      <trkpt lat="55.34045998938382" lon="12.263829996809363">
        <ele>10.0</ele>
        <time>2020-04-18T21:46:42.256Z</time>
      </trkpt>
      <trkpt lat="55.34061999991536" lon="12.26652997545898">
        <ele>10.0</ele>
        <time>2020-04-18T21:46:56.166Z</time>
      </trkpt>
      <trkpt lat="55.34070993773639" lon="12.266809931024909">
        <ele>10.0</ele>
        <time>2020-04-18T21:47:10.079Z</time>
      </trkpt>
      <trkpt lat="55.34112995490432" lon="12.267659939825535">
        <ele>9.0</ele>
        <time>2020-04-18T21:47:24.002Z</time>
      </trkpt>
      <trkpt lat="55.34131997264922" lon="12.267889939248562">
        <ele>9.0</ele>
        <time>2020-04-18T21:47:37.929Z</time>
      </trkpt>
      <trkpt lat="55.34141996875405" lon="12.26794995367527">
        <ele>9.0</ele>
        <time>2020-04-18T21:47:51.857Z</time>
      </trkpt>
      <trkpt lat="55.341639993712306" lon="12.268029917031527">
        <ele>9.0</ele>
        <time>2020-04-18T21:48:05.789Z</time>
      </trkpt>
      <trkpt lat="55.34252998419106" lon="12.268419926986098">
        <ele>9.0</ele>
        <time>2020-04-18T21:48:19.736Z</time>
      </trkpt>
      <trkpt lat="55.34460995346308" lon="12.269569924101233">
        <ele>9.0</ele>
        <time>2020-04-18T21:48:33.718Z</time>
      </trkpt>
      <trkpt lat="55.349345142021775" lon="12.272173846140504">
        <ele>9.0</ele>
        <time>2020-04-18T21:48:47.779Z</time>
      </trkpt>
      <trkpt lat="55.34934598021209" lon="12.272174265235662">
        <ele>9.0</ele>
        <time>2020-04-18T21:49:01.840Z</time>
      </trkpt>
      <trkpt lat="55.34934589639306" lon="12.272174265235662">
        <ele>8.0</ele>
        <time>2020-04-18T21:49:15.901Z</time>
      </trkpt>
      <trkpt lat="55.35071994177997" lon="12.272929977625608">
        <ele>8.0</ele>
        <time>2020-04-18T21:49:29.985Z</time>
      </trkpt>
      <trkpt lat="55.3507099673152" lon="12.273119995370507">
        <ele>8.0</ele>
        <time>2020-04-18T21:49:44.071Z</time>
      </trkpt>
      <trkpt lat="55.35115999169648" lon="12.267689947038889">
        <ele>7.0</ele>
        <time>2020-04-18T21:49:58.207Z</time>
      </trkpt>
      <trkpt lat="55.351179940626025" lon="12.266989974305034">
        <ele>6.0</ele>
        <time>2020-04-18T21:50:12.350Z</time>
      </trkpt>
      <trkpt lat="55.35111992619932" lon="12.266279943287373">
        <ele>6.0</ele>
        <time>2020-04-18T21:50:26.499Z</time>
      </trkpt>
      <trkpt lat="55.35101993009448" lon="12.265649959445">
        <ele>5.0</ele>
        <time>2020-04-18T21:50:40.654Z</time>
      </trkpt>
      <trkpt lat="55.35081993788481" lon="12.264719987288117">
        <ele>5.0</ele>
        <time>2020-04-18T21:50:54.818Z</time>
      </trkpt>
      <trkpt lat="55.35064995288849" lon="12.263629920780659">
        <ele>5.0</ele>
        <time>2020-04-18T21:51:08.992Z</time>
      </trkpt>
      <trkpt lat="55.350469993427396" lon="12.261269995942712">
        <ele>5.0</ele>
        <time>2020-04-18T21:51:23.188Z</time>
      </trkpt>
      <trkpt lat="55.35043998621404" lon="12.26057999767363">
        <ele>5.0</ele>
        <time>2020-04-18T21:51:37.391Z</time>
      </trkpt>
      <trkpt lat="55.35047996789217" lon="12.260069958865643">
        <ele>6.0</ele>
        <time>2020-04-18T21:51:51.598Z</time>
      </trkpt>
      <trkpt lat="55.35069999285042" lon="12.259209975600243">
        <ele>6.0</ele>
        <time>2020-04-18T21:52:05.814Z</time>
      </trkpt>
      <trkpt lat="55.35140994004905" lon="12.256419975310564">
        <ele>7.0</ele>
        <time>2020-04-18T21:52:20.058Z</time>
      </trkpt>
      <trkpt lat="55.35214997828007" lon="12.253499971702695">
        <ele>8.0</ele>
        <time>2020-04-18T21:52:34.331Z</time>
      </trkpt>
      <trkpt lat="55.35221996717155" lon="12.25303997285664">
        <ele>9.0</ele>
        <time>2020-04-18T21:52:48.608Z</time>
      </trkpt>
      <trkpt lat="55.352167412638664" lon="12.251438442617655">
        <ele>9.0</ele>
        <time>2020-04-18T21:53:02.900Z</time>
      </trkpt>
      <trkpt lat="55.352167412638664" lon="12.251436933875084">
        <ele>10.0</ele>
        <time>2020-04-18T21:53:17.192Z</time>
      </trkpt>
      <trkpt lat="55.35215995274484" lon="12.251209951937199">
        <ele>11.0</ele>
        <time>2020-04-18T21:53:31.486Z</time>
      </trkpt>
      <trkpt lat="55.35213991999626" lon="12.250579968094826">
        <ele>11.0</ele>
        <time>2020-04-18T21:53:45.786Z</time>
      </trkpt>
      <trkpt lat="55.352229941636324" lon="12.248929990455508">
        <ele>11.0</ele>
        <time>2020-04-18T21:54:00.101Z</time>
      </trkpt>
      <trkpt lat="55.352229941636324" lon="12.248809961602092">
        <ele>11.0</ele>
        <time>2020-04-18T21:54:14.417Z</time>
      </trkpt>
      <trkpt lat="55.35225994884968" lon="12.248649951070547">
        <ele>11.0</ele>
        <time>2020-04-18T21:54:28.735Z</time>
      </trkpt>
      <trkpt lat="55.35230998881161" lon="12.248489940539002">
        <ele>11.0</ele>
        <time>2020-04-18T21:54:43.054Z</time>
      </trkpt>
      <trkpt lat="55.35232993774116" lon="12.2484399843961">
        <ele>11.0</ele>
        <time>2020-04-18T21:54:57.374Z</time>
      </trkpt>
      <trkpt lat="55.352359944954515" lon="12.24830998107791">
        <ele>11.0</ele>
        <time>2020-04-18T21:55:11.695Z</time>
      </trkpt>
      <trkpt lat="55.35234997048974" lon="12.248159945011139">
        <ele>11.0</ele>
        <time>2020-04-18T21:55:26.017Z</time>
      </trkpt>
      <trkpt lat="55.35228995606303" lon="12.248059948906302">
        <ele>11.0</ele>
        <time>2020-04-18T21:55:40.341Z</time>
      </trkpt>
      <trkpt lat="55.35225994884968" lon="12.247459972277284">
        <ele>11.0</ele>
        <time>2020-04-18T21:55:54.670Z</time>
      </trkpt>
      <trkpt lat="55.35227998159826" lon="12.246859995648265">
        <ele>11.0</ele>
        <time>2020-04-18T21:56:09.005Z</time>
      </trkpt>
      <trkpt lat="55.35226992331445" lon="12.246419945731759">
        <ele>12.0</ele>
        <time>2020-04-18T21:56:23.344Z</time>
      </trkpt>
      <trkpt lat="55.35221996717155" lon="12.245959946885705">
        <ele>12.0</ele>
        <time>2020-04-18T21:56:37.687Z</time>
      </trkpt>
      <trkpt lat="55.35214997828007" lon="12.245529955253005">
        <ele>12.0</ele>
        <time>2020-04-18T21:56:52.034Z</time>
      </trkpt>
      <trkpt lat="55.3519999422133" lon="12.244989993050694">
        <ele>12.0</ele>
        <time>2020-04-18T21:57:06.387Z</time>
      </trkpt>
      <trkpt lat="55.35183993168175" lon="12.244479954242706">
        <ele>13.0</ele>
        <time>2020-04-18T21:57:20.745Z</time>
      </trkpt>
      <trkpt lat="55.35172996111214" lon="12.243909984827042">
        <ele>13.0</ele>
        <time>2020-04-18T21:57:35.108Z</time>
      </trkpt>
      <trkpt lat="55.35166994668543" lon="12.243459960445762">
        <ele>13.0</ele>
        <time>2020-04-18T21:57:49.476Z</time>
      </trkpt>
      <trkpt lat="55.351649997755885" lon="12.242809943854809">
        <ele>14.0</ele>
        <time>2020-04-18T21:58:03.850Z</time>
      </trkpt>
      <trkpt lat="55.35169995389879" lon="12.242149952799082">
        <ele>14.0</ele>
        <time>2020-04-18T21:58:18.230Z</time>
      </trkpt>
      <trkpt lat="55.351799950003624" lon="12.241539917886257">
        <ele>14.0</ele>
        <time>2020-04-18T21:58:32.616Z</time>
      </trkpt>
      <trkpt lat="55.352039923891425" lon="12.240639952942729">
        <ele>14.0</ele>
        <time>2020-04-18T21:58:47.011Z</time>
      </trkpt>
      <trkpt lat="55.35213991999626" lon="12.239949954673648">
        <ele>15.0</ele>
        <time>2020-04-18T21:59:01.412Z</time>
      </trkpt>
      <trkpt lat="55.352169927209616" lon="12.239219974726439">
        <ele>15.0</ele>
        <time>2020-04-18T21:59:15.820Z</time>
      </trkpt>
      <trkpt lat="55.35213991999626" lon="12.238839939236641">
        <ele>15.0</ele>
        <time>2020-04-18T21:59:30.231Z</time>
      </trkpt>
      <trkpt lat="55.352138075977564" lon="12.238825187087059">
        <ele>16.0</ele>
        <time>2020-04-18T21:59:44.642Z</time>
      </trkpt>
      <trkpt lat="55.3521379083395" lon="12.238823678344488">
        <ele>16.0</ele>
        <time>2020-04-18T21:59:59.053Z</time>
      </trkpt>
      <trkpt lat="55.352079989388585" lon="12.238369965925813">
        <ele>17.0</ele>
        <time>2020-04-18T22:00:13.469Z</time>
      </trkpt>
      <trkpt lat="55.35200991667807" lon="12.238009963184595">
        <ele>17.0</ele>
        <time>2020-04-18T22:00:27.888Z</time>
      </trkpt>
      <trkpt lat="55.351949986070395" lon="12.237509982660413">
        <ele>17.0</ele>
        <time>2020-04-18T22:00:42.312Z</time>
      </trkpt>
      <trkpt lat="55.35191997885704" lon="12.236869940534234">
        <ele>18.0</ele>
        <time>2020-04-18T22:00:56.742Z</time>
      </trkpt>
      <trkpt lat="55.35191997885704" lon="12.236189916729927">
        <ele>18.0</ele>
        <time>2020-04-18T22:01:11.178Z</time>
      </trkpt>
      <trkpt lat="55.351929953321815" lon="12.236049938946962">
        <ele>18.0</ele>
        <time>2020-04-18T22:01:25.615Z</time>
      </trkpt>
      <trkpt lat="55.35193992778659" lon="12.235929993912578">
        <ele>18.0</ele>
        <time>2020-04-18T22:01:40.053Z</time>
      </trkpt>
      <trkpt lat="55.35202994942665" lon="12.235969975590706">
        <ele>18.0</ele>
        <time>2020-04-18T22:01:54.493Z</time>
      </trkpt>
      <trkpt lat="55.35209993831813" lon="12.23597995005548">
        <ele>19.0</ele>
        <time>2020-04-18T22:02:08.934Z</time>
      </trkpt>
      <trkpt lat="55.35228995606303" lon="12.23584994673729">
        <ele>19.0</ele>
        <time>2020-04-18T22:02:23.378Z</time>
      </trkpt>
      <trkpt lat="55.353179946541786" lon="12.235149974003434">
        <ele>19.0</ele>
        <time>2020-04-18T22:02:37.838Z</time>
      </trkpt>
      <trkpt lat="55.3574999794364" lon="12.231709957122803">
        <ele>19.0</ele>
        <time>2020-04-18T22:02:52.374Z</time>
      </trkpt>
      <trkpt lat="55.36122992634773" lon="12.228729939088225">
        <ele>19.0</ele>
        <time>2020-04-18T22:03:06.976Z</time>
      </trkpt>
      <trkpt lat="55.36132992245257" lon="12.228629942983389">
        <ele>19.0</ele>
        <time>2020-04-18T22:03:21.579Z</time>
      </trkpt>
      <trkpt lat="55.361449951305985" lon="12.22843992523849">
        <ele>19.0</ele>
        <time>2020-04-18T22:03:36.185Z</time>
      </trkpt>
      <trkpt lat="55.361899975687265" lon="12.227489920333028">
        <ele>19.0</ele>
        <time>2020-04-18T22:03:50.802Z</time>
      </trkpt>
      <trkpt lat="55.362009946256876" lon="12.227329993620515">
        <ele>19.0</ele>
        <time>2020-04-18T22:04:05.422Z</time>
      </trkpt>
      <trkpt lat="55.36216995678842" lon="12.227229997515678">
        <ele>19.0</ele>
        <time>2020-04-18T22:04:20.044Z</time>
      </trkpt>
      <trkpt lat="55.36244999617338" lon="12.227309960871935">
        <ele>19.0</ele>
        <time>2020-04-18T22:04:34.671Z</time>
      </trkpt>
      <trkpt lat="55.362759958952665" lon="12.227479945868254">
        <ele>20.0</ele>
        <time>2020-04-18T22:04:49.303Z</time>
      </trkpt>
      <trkpt lat="55.36381993442774" lon="12.227939944714308">
        <ele>20.0</ele>
        <time>2020-04-18T22:05:03.953Z</time>
      </trkpt>
      <trkpt lat="55.36499993875623" lon="12.228469932451844">
        <ele>20.0</ele>
        <time>2020-04-18T22:05:18.622Z</time>
      </trkpt>
      <trkpt lat="55.365119967609644" lon="12.228499939665198">
        <ele>20.0</ele>
        <time>2020-04-18T22:05:33.293Z</time>
      </trkpt>
      <trkpt lat="55.365249970927835" lon="12.22847999073565">
        <ele>20.0</ele>
        <time>2020-04-18T22:05:47.966Z</time>
      </trkpt>
      <trkpt lat="55.36716992966831" lon="12.227849923074245">
        <ele>20.0</ele>
        <time>2020-04-18T22:06:02.670Z</time>
      </trkpt>
      <trkpt lat="55.36813996732235" lon="12.227389924228191">
        <ele>20.0</ele>
        <time>2020-04-18T22:06:17.391Z</time>
      </trkpt>
      <trkpt lat="55.36824993789196" lon="12.227329993620515">
        <ele>19.0</ele>
        <time>2020-04-18T22:06:32.113Z</time>
      </trkpt>
      <trkpt lat="55.3683499339968" lon="12.227189932018518">
        <ele>19.0</ele>
        <time>2020-04-18T22:06:46.837Z</time>
      </trkpt>
      <trkpt lat="55.36845998838544" lon="12.226939983665943">
        <ele>19.0</ele>
        <time>2020-04-18T22:07:01.564Z</time>
      </trkpt>
      <trkpt lat="55.368519918993115" lon="12.226709984242916">
        <ele>19.0</ele>
        <time>2020-04-18T22:07:16.294Z</time>
      </trkpt>
      <trkpt lat="55.36863994784653" lon="12.226229952648282">
        <ele>18.0</ele>
        <time>2020-04-18T22:07:31.028Z</time>
      </trkpt>
      <trkpt lat="55.368689987808466" lon="12.226119982078671">
        <ele>18.0</ele>
        <time>2020-04-18T22:07:45.764Z</time>
      </trkpt>
      <trkpt lat="55.3687899839133" lon="12.225979920476675">
        <ele>18.0</ele>
        <time>2020-04-18T22:08:00.502Z</time>
      </trkpt>
      <trkpt lat="55.36889995448291" lon="12.225879924371839">
        <ele>18.0</ele>
        <time>2020-04-18T22:08:15.242Z</time>
      </trkpt>
      <trkpt lat="55.36906993947923" lon="12.22583994269371">
        <ele>18.0</ele>
        <time>2020-04-18T22:08:29.984Z</time>
      </trkpt>
      <trkpt lat="55.37144998088479" lon="12.225459991022944">
        <ele>18.0</ele>
        <time>2020-04-18T22:08:44.765Z</time>
      </trkpt>
      <trkpt lat="55.37172993645072" lon="12.22542998380959">
        <ele>18.0</ele>
        <time>2020-04-18T22:08:59.550Z</time>
      </trkpt>
      <trkpt lat="55.37194996140897" lon="12.225459991022944">
        <ele>18.0</ele>
        <time>2020-04-18T22:09:14.339Z</time>
      </trkpt>
      <trkpt lat="55.37209999747574" lon="12.225509947165847">
        <ele>19.0</ele>
        <time>2020-04-18T22:09:29.130Z</time>
      </trkpt>
      <trkpt lat="55.37260601297021" lon="12.225659061223269">
        <ele>19.0</ele>
        <time>2020-04-18T22:09:43.930Z</time>
      </trkpt>
      <trkpt lat="55.372606851160526" lon="12.225659396499395">
        <ele>19.0</ele>
        <time>2020-04-18T22:09:58.730Z</time>
      </trkpt>
      <trkpt lat="55.373999923467636" lon="12.226069942116737">
        <ele>21.0</ele>
        <time>2020-04-18T22:10:13.552Z</time>
      </trkpt>
      <trkpt lat="55.37406999617815" lon="12.22602996043861">
        <ele>21.0</ele>
        <time>2020-04-18T22:10:28.375Z</time>
      </trkpt>
      <trkpt lat="55.37402993068099" lon="12.226209919899702">
        <ele>21.0</ele>
        <time>2020-04-18T22:10:43.200Z</time>
      </trkpt>
      <trkpt lat="55.373999923467636" lon="12.226299941539764">
        <ele>22.0</ele>
        <time>2020-04-18T22:10:58.026Z</time>
      </trkpt>
      <trkpt lat="55.37406999617815" lon="12.22602996043861">
        <ele>21.0</ele>
        <time>2020-04-18T22:11:12.855Z</time>
      </trkpt>
      <trkpt lat="55.37413998506963" lon="12.22583994269371">
        <ele>22.0</ele>
        <time>2020-04-18T22:11:27.686Z</time>
      </trkpt>
      <trkpt lat="55.374189941212535" lon="12.225619917735457">
        <ele>22.0</ele>
        <time>2020-04-18T22:11:42.519Z</time>
      </trkpt>
      <trkpt lat="55.37422992289066" lon="12.225059922784567">
        <ele>22.0</ele>
        <time>2020-04-18T22:11:57.357Z</time>
      </trkpt>
      <trkpt lat="55.37423998117447" lon="12.224359950050712">
        <ele>22.0</ele>
        <time>2020-04-18T22:12:12.202Z</time>
      </trkpt>
      <trkpt lat="55.3742799628526" lon="12.223919983953238">
        <ele>22.0</ele>
        <time>2020-04-18T22:12:27.051Z</time>
      </trkpt>
      <trkpt lat="55.37441994063556" lon="12.223139964044094">
        <ele>22.0</ele>
        <time>2020-04-18T22:12:41.907Z</time>
      </trkpt>
      <trkpt lat="55.37445992231369" lon="12.222719946876168">
        <ele>22.0</ele>
        <time>2020-04-18T22:12:56.767Z</time>
      </trkpt>
      <trkpt lat="55.37445992231369" lon="12.222159951925278">
        <ele>22.0</ele>
        <time>2020-04-18T22:13:11.632Z</time>
      </trkpt>
      <trkpt lat="55.37438993342221" lon="12.221079943701625">
        <ele>21.0</ele>
        <time>2020-04-18T22:13:26.507Z</time>
      </trkpt>
      <trkpt lat="55.374379958957434" lon="12.220579963177443">
        <ele>21.0</ele>
        <time>2020-04-18T22:13:41.387Z</time>
      </trkpt>
      <trkpt lat="55.374399991706014" lon="12.219839924946427">
        <ele>21.0</ele>
        <time>2020-04-18T22:13:56.273Z</time>
      </trkpt>
      <trkpt lat="55.37430997006595" lon="12.218469986692071">
        <ele>21.0</ele>
        <time>2020-04-18T22:14:11.172Z</time>
      </trkpt>
      <trkpt lat="55.37430997006595" lon="12.218239987269044">
        <ele>21.0</ele>
        <time>2020-04-18T22:14:26.073Z</time>
      </trkpt>
      <trkpt lat="55.37434995174408" lon="12.217879984527826">
        <ele>21.0</ele>
        <time>2020-04-18T22:14:40.977Z</time>
      </trkpt>
      <trkpt lat="55.374469980597496" lon="12.217129971832037">
        <ele>21.0</ele>
        <time>2020-04-18T22:14:55.888Z</time>
      </trkpt>
      <trkpt lat="55.374899972230196" lon="12.214199993759394">
        <ele>22.0</ele>
        <time>2020-04-18T22:15:10.827Z</time>
      </trkpt>
      <trkpt lat="55.37505998276174" lon="12.21298998221755">
        <ele>22.0</ele>
        <time>2020-04-18T22:15:25.777Z</time>
      </trkpt>
      <trkpt lat="55.375239942222834" lon="12.211879966780543">
        <ele>23.0</ele>
        <time>2020-04-18T22:15:40.738Z</time>
      </trkpt>
      <trkpt lat="55.375369945541024" lon="12.211569920182228">
        <ele>24.0</ele>
        <time>2020-04-18T22:15:55.703Z</time>
      </trkpt>
      <trkpt lat="55.37582994438708" lon="12.21081999130547">
        <ele>24.0</ele>
        <time>2020-04-18T22:16:10.678Z</time>
      </trkpt>
      <trkpt lat="55.377239948138595" lon="12.208589985966682">
        <ele>25.0</ele>
        <time>2020-04-18T22:16:25.683Z</time>
      </trkpt>
      <trkpt lat="55.38050998002291" lon="12.203339980915189">
        <ele>26.0</ele>
        <time>2020-04-18T22:16:40.759Z</time>
      </trkpt>
      <trkpt lat="55.38182996213436" lon="12.200199952349067">
        <ele>27.0</ele>
        <time>2020-04-18T22:16:55.871Z</time>
      </trkpt>
      <trkpt lat="55.38190992549062" lon="12.199869956821203">
        <ele>28.0</ele>
        <time>2020-04-18T22:17:10.986Z</time>
      </trkpt>
      <trkpt lat="55.38267997093499" lon="12.20052994787693">
        <ele>28.0</ele>
        <time>2020-04-18T22:17:26.115Z</time>
      </trkpt>
      <trkpt lat="55.38330995477736" lon="12.201019953936338">
        <ele>28.0</ele>
        <time>2020-04-18T22:17:41.255Z</time>
      </trkpt>
      <trkpt lat="55.38486999459565" lon="12.20213994383812">
        <ele>29.0</ele>
        <time>2020-04-18T22:17:56.422Z</time>
      </trkpt>
      <trkpt lat="55.38570994511247" lon="12.202779985964298">
        <ele>29.0</ele>
        <time>2020-04-18T22:18:11.603Z</time>
      </trkpt>
      <trkpt lat="55.38579996675253" lon="12.202819967642426">
        <ele>29.0</ele>
        <time>2020-04-18T22:18:26.786Z</time>
      </trkpt>
      <trkpt lat="55.385939944535494" lon="12.2028299421072">
        <ele>29.0</ele>
        <time>2020-04-18T22:18:41.971Z</time>
      </trkpt>
      <trkpt lat="55.38641997613013" lon="12.2025899682194">
        <ele>29.0</ele>
        <time>2020-04-18T22:18:57.164Z</time>
      </trkpt>
      <trkpt lat="55.386759946122766" lon="12.202369943261147">
        <ele>29.0</ele>
        <time>2020-04-18T22:19:12.363Z</time>
      </trkpt>
      <trkpt lat="55.386889949440956" lon="12.202329961583018">
        <ele>29.0</ele>
        <time>2020-04-18T22:19:27.564Z</time>
      </trkpt>
      <trkpt lat="55.386969996616244" lon="12.202299954369664">
        <ele>28.0</ele>
        <time>2020-04-18T22:19:42.766Z</time>
      </trkpt>
      <trkpt lat="55.388559959828854" lon="12.202229965478182">
        <ele>27.0</ele>
        <time>2020-04-18T22:19:57.994Z</time>
      </trkpt>
      <trkpt lat="55.3893899358809" lon="12.202199958264828">
        <ele>27.0</ele>
        <time>2020-04-18T22:20:13.235Z</time>
      </trkpt>
      <trkpt lat="55.3897699713707" lon="12.202209932729602">
        <ele>26.0</ele>
        <time>2020-04-18T22:20:28.482Z</time>
      </trkpt>
      <trkpt lat="55.389959989115596" lon="12.202239939942956">
        <ele>25.0</ele>
        <time>2020-04-18T22:20:43.732Z</time>
      </trkpt>
      <trkpt lat="55.393289951607585" lon="12.202879982069135">
        <ele>24.0</ele>
        <time>2020-04-18T22:20:59.036Z</time>
      </trkpt>
      <trkpt lat="55.397546365857124" lon="12.203723955899477">
        <ele>23.0</ele>
        <time>2020-04-18T22:21:14.409Z</time>
      </trkpt>
      <trkpt lat="55.39754728786647" lon="12.20372412353754">
        <ele>22.0</ele>
        <time>2020-04-18T22:21:29.782Z</time>
      </trkpt>
      <trkpt lat="55.39797996170819" lon="12.203809954226017">
        <ele>21.0</ele>
        <time>2020-04-18T22:21:45.162Z</time>
      </trkpt>
      <trkpt lat="55.39924998767674" lon="12.20402997918427">
        <ele>20.0</ele>
        <time>2020-04-18T22:22:00.562Z</time>
      </trkpt>
      <trkpt lat="55.40016604587436" lon="12.204193007200956">
        <ele>20.0</ele>
        <time>2020-04-18T22:22:15.977Z</time>
      </trkpt>
      <trkpt lat="55.40042999200523" lon="12.204239945858717">
        <ele>19.0</ele>
        <time>2020-04-18T22:22:31.396Z</time>
      </trkpt>
      <trkpt lat="55.40036997757852" lon="12.206039959564805">
        <ele>19.0</ele>
        <time>2020-04-18T22:22:46.832Z</time>
      </trkpt>
      <trkpt lat="55.40012991987169" lon="12.208589985966682">
        <ele>18.0</ele>
        <time>2020-04-18T22:23:02.291Z</time>
      </trkpt>
      <trkpt lat="55.399969993159175" lon="12.210189923644066">
        <ele>18.0</ele>
        <time>2020-04-18T22:23:17.765Z</time>
      </trkpt>
      <trkpt lat="55.40001994930208" lon="12.210299978032708">
        <ele>18.0</ele>
        <time>2020-04-18T22:23:33.240Z</time>
      </trkpt>
      <trkpt lat="55.40060995146632" lon="12.210489995777607">
        <ele>18.0</ele>
        <time>2020-04-18T22:23:48.725Z</time>
      </trkpt>
      <trkpt lat="55.40116994641721" lon="12.21064992249012">
        <ele>18.0</ele>
        <time>2020-04-18T22:24:04.219Z</time>
      </trkpt>
      <trkpt lat="55.40115997195244" lon="12.21227995119989">
        <ele>18.0</ele>
        <time>2020-04-18T22:24:19.728Z</time>
      </trkpt>
      <trkpt lat="55.40116994641721" lon="12.213369933888316">
        <ele>18.0</ele>
        <time>2020-04-18T22:24:35.247Z</time>
      </trkpt>
      <trkpt lat="55.401819963008165" lon="12.213609991595149">
        <ele>18.0</ele>
        <time>2020-04-18T22:24:50.776Z</time>
      </trkpt>
      <trkpt lat="55.401989948004484" lon="12.213689954951406">
        <ele>18.0</ele>
        <time>2020-04-18T22:25:06.308Z</time>
      </trkpt>
      <trkpt lat="55.40206999517977" lon="12.213749969378114">
        <ele>18.0</ele>
        <time>2020-04-18T22:25:21.842Z</time>
      </trkpt>
      <trkpt lat="55.4022999946028" lon="12.214159928262234">
        <ele>18.0</ele>
        <time>2020-04-18T22:25:37.381Z</time>
      </trkpt>
      <trkpt lat="55.40238993242383" lon="12.214269982650876">
        <ele>18.0</ele>
        <time>2020-04-18T22:25:52.922Z</time>
      </trkpt>
      <trkpt lat="55.40249998681247" lon="12.214329997077584">
        <ele>19.0</ele>
        <time>2020-04-18T22:26:08.465Z</time>
      </trkpt>
      <trkpt lat="55.40274993516505" lon="12.214349946007133">
        <ele>19.0</ele>
        <time>2020-04-18T22:26:24.012Z</time>
      </trkpt>
      <trkpt lat="55.40332996286452" lon="12.214329997077584">
        <ele>19.0</ele>
        <time>2020-04-18T22:26:39.568Z</time>
      </trkpt>
      <trkpt lat="55.40350992232561" lon="12.21427995711565">
        <ele>20.0</ele>
        <time>2020-04-18T22:26:55.127Z</time>
      </trkpt>
      <trkpt lat="55.40361997671425" lon="12.214199993759394">
        <ele>20.0</ele>
        <time>2020-04-18T22:27:10.688Z</time>
      </trkpt>
      <trkpt lat="55.403859950602055" lon="12.21395993605256">
        <ele>20.0</ele>
        <time>2020-04-18T22:27:26.253Z</time>
      </trkpt>
      <trkpt lat="55.404119957238436" lon="12.213639998808503">
        <ele>20.0</ele>
        <time>2020-04-18T22:27:41.823Z</time>
      </trkpt>
      <trkpt lat="55.404999973252416" lon="12.21240995451808">
        <ele>20.0</ele>
        <time>2020-04-18T22:27:57.411Z</time>
      </trkpt>
      <trkpt lat="55.40508999489248" lon="12.212309958413243">
        <ele>20.0</ele>
        <time>2020-04-18T22:28:13.001Z</time>
      </trkpt>
      <trkpt lat="55.40520993992686" lon="12.212229995056987">
        <ele>20.0</ele>
        <time>2020-04-18T22:28:28.593Z</time>
      </trkpt>
      <trkpt lat="55.40538998320699" lon="12.212169980630279">
        <ele>20.0</ele>
        <time>2020-04-18T22:28:44.188Z</time>
      </trkpt>
      <trkpt lat="55.40614007972181" lon="12.211987925693393">
        <ele>20.0</ele>
        <time>2020-04-18T22:28:59.795Z</time>
      </trkpt>
      <trkpt lat="55.40614100173116" lon="12.211987674236298">
        <ele>20.0</ele>
        <time>2020-04-18T22:29:15.402Z</time>
      </trkpt>
      <trkpt lat="55.40614100173116" lon="12.21198775805533">
        <ele>20.0</ele>
        <time>2020-04-18T22:29:31.009Z</time>
      </trkpt>
      <trkpt lat="55.40674994699657" lon="12.211839985102415">
        <ele>20.0</ele>
        <time>2020-04-18T22:29:46.626Z</time>
      </trkpt>
      <trkpt lat="55.40700995363295" lon="12.211839985102415">
        <ele>20.0</ele>
        <time>2020-04-18T22:30:02.247Z</time>
      </trkpt>
      <trkpt lat="55.40737993083894" lon="12.21199999563396">
        <ele>20.0</ele>
        <time>2020-04-18T22:30:17.874Z</time>
      </trkpt>
      <trkpt lat="55.407839929685" lon="12.212219936773181">
        <ele>20.0</ele>
        <time>2020-04-18T22:30:33.509Z</time>
      </trkpt>
      <trkpt lat="55.40954992175102" lon="12.213069945573807">
        <ele>20.0</ele>
        <time>2020-04-18T22:30:49.172Z</time>
      </trkpt>
      <trkpt lat="55.4098099283874" lon="12.213189974427223">
        <ele>20.0</ele>
        <time>2020-04-18T22:31:04.840Z</time>
      </trkpt>
      <trkpt lat="55.40990992449224" lon="12.213209923356771">
        <ele>20.0</ele>
        <time>2020-04-18T22:31:20.509Z</time>
      </trkpt>
      <trkpt lat="55.41014998219907" lon="12.213159967213869">
        <ele>20.0</ele>
        <time>2020-04-18T22:31:36.182Z</time>
      </trkpt>
      <trkpt lat="55.41074995882809" lon="12.21296994946897">
        <ele>20.0</ele>
        <time>2020-04-18T22:31:51.865Z</time>
      </trkpt>
      <trkpt lat="55.4129099752754" lon="12.212479943409562">
        <ele>20.0</ele>
        <time>2020-04-18T22:32:07.583Z</time>
      </trkpt>
      <trkpt lat="55.414019990712404" lon="12.212289925664663">
        <ele>19.0</ele>
        <time>2020-04-18T22:32:23.319Z</time>
      </trkpt>
      <trkpt lat="55.41441997513175" lon="12.212179955095053">
        <ele>19.0</ele>
        <time>2020-04-18T22:32:39.061Z</time>
      </trkpt>
      <trkpt lat="55.41509999893606" lon="12.21184995956719">
        <ele>18.0</ele>
        <time>2020-04-18T22:32:54.815Z</time>
      </trkpt>
      <trkpt lat="55.41536998003721" lon="12.211619960144162">
        <ele>18.0</ele>
        <time>2020-04-18T22:33:10.573Z</time>
      </trkpt>
      <trkpt lat="55.416259970515966" lon="12.21079995855689">
        <ele>17.0</ele>
        <time>2020-04-18T22:33:26.347Z</time>
      </trkpt>
      <trkpt lat="55.41819996200502" lon="12.20881998538971">
        <ele>16.0</ele>
        <time>2020-04-18T22:33:42.157Z</time>
      </trkpt>
      <trkpt lat="55.41967995464802" lon="12.207409981638193">
        <ele>15.0</ele>
        <time>2020-04-18T22:33:57.994Z</time>
      </trkpt>
      <trkpt lat="55.42127997614443" lon="12.205829992890358">
        <ele>14.0</ele>
        <time>2020-04-18T22:34:13.861Z</time>
      </trkpt>
      <trkpt lat="55.42335994541645" lon="12.203739965334535">
        <ele>14.0</ele>
        <time>2020-04-18T22:34:29.766Z</time>
      </trkpt>
      <trkpt lat="55.42438865639269" lon="12.20277906395495">
        <ele>13.0</ele>
        <time>2020-04-18T22:34:45.690Z</time>
      </trkpt>
      <trkpt lat="55.42438949458301" lon="12.202778309583664">
        <ele>12.0</ele>
        <time>2020-04-18T22:35:01.614Z</time>
      </trkpt>
      <trkpt lat="55.42593997903168" lon="12.201329916715622">
        <ele>12.0</ele>
        <time>2020-04-18T22:35:17.566Z</time>
      </trkpt>
      <trkpt lat="55.426109964028" lon="12.201179964467883">
        <ele>12.0</ele>
        <time>2020-04-18T22:35:33.521Z</time>
      </trkpt>
      <trkpt lat="55.425799917429686" lon="12.199859982356429">
        <ele>12.0</ele>
        <time>2020-04-18T22:35:49.489Z</time>
      </trkpt>
      <trkpt lat="55.42502995580435" lon="12.196699921041727">
        <ele>12.0</ele>
        <time>2020-04-18T22:36:05.488Z</time>
      </trkpt>
      <trkpt lat="55.424189921468496" lon="12.192389946430922">
        <ele>12.0</ele>
        <time>2020-04-18T22:36:21.529Z</time>
      </trkpt>
      <trkpt lat="55.42373998090625" lon="12.190039996057749">
        <ele>13.0</ele>
        <time>2020-04-18T22:36:37.593Z</time>
      </trkpt>
      <trkpt lat="55.423239916563034" lon="12.187489969655871">
        <ele>13.0</ele>
        <time>2020-04-18T22:36:53.681Z</time>
      </trkpt>
      <trkpt lat="55.42302994988859" lon="12.186299990862608">
        <ele>14.0</ele>
        <time>2020-04-18T22:37:09.781Z</time>
      </trkpt>
      <trkpt lat="55.422919979318976" lon="12.185579985380173">
        <ele>15.0</ele>
        <time>2020-04-18T22:37:25.887Z</time>
      </trkpt>
      <trkpt lat="55.42284437455237" lon="12.184885879978538">
        <ele>16.0</ele>
        <time>2020-04-18T22:37:42.000Z</time>
      </trkpt>
      <trkpt lat="55.422844206914306" lon="12.184884203597903">
        <ele>17.0</ele>
        <time>2020-04-18T22:37:58.113Z</time>
      </trkpt>
      <trkpt lat="55.42264999821782" lon="12.183099947869778">
        <ele>17.0</ele>
        <time>2020-04-18T22:38:14.242Z</time>
      </trkpt>
      <trkpt lat="55.422529969364405" lon="12.181779965758324">
        <ele>18.0</ele>
        <time>2020-04-18T22:38:30.384Z</time>
      </trkpt>
      <trkpt lat="55.422529969364405" lon="12.181699918583035">
        <ele>18.0</ele>
        <time>2020-04-18T22:38:46.526Z</time>
      </trkpt>
      <trkpt lat="55.42254991829395" lon="12.181699918583035">
        <ele>19.0</ele>
        <time>2020-04-18T22:39:02.669Z</time>
      </trkpt>
      <trkpt lat="55.42257992550731" lon="12.181679969653487">
        <ele>19.0</ele>
        <time>2020-04-18T22:39:18.812Z</time>
      </trkpt>
      <trkpt lat="55.42262996546924" lon="12.181619955226779">
        <ele>19.0</ele>
        <time>2020-04-18T22:39:34.956Z</time>
      </trkpt>
      <trkpt lat="55.422639939934015" lon="12.18155994080007">
        <ele>19.0</ele>
        <time>2020-04-18T22:39:51.101Z</time>
      </trkpt>
      <trkpt lat="55.42296993546188" lon="12.181689944118261">
        <ele>19.0</ele>
        <time>2020-04-18T22:40:07.251Z</time>
      </trkpt>
      <trkpt lat="55.42337997816503" lon="12.181849954649806">
        <ele>18.0</ele>
        <time>2020-04-18T22:40:23.408Z</time>
      </trkpt>
      <trkpt lat="55.423669992014766" lon="12.181929918006063">
        <ele>18.0</ele>
        <time>2020-04-18T22:40:39.570Z</time>
      </trkpt>
      <trkpt lat="55.42395992204547" lon="12.181979957967997">
        <ele>17.0</ele>
        <time>2020-04-18T22:40:55.736Z</time>
      </trkpt>
      <trkpt lat="55.42425999417901" lon="12.181999990716577">
        <ele>16.0</ele>
        <time>2020-04-18T22:41:11.907Z</time>
      </trkpt>
      <trkpt lat="55.42472996748984" lon="12.18200996518135">
        <ele>15.0</ele>
        <time>2020-04-18T22:41:28.086Z</time>
      </trkpt>
      <trkpt lat="55.42605992406607" lon="12.18198993243277">
        <ele>14.0</ele>
        <time>2020-04-18T22:41:44.286Z</time>
      </trkpt>
      <trkpt lat="55.42764997109771" lon="12.18198993243277">
        <ele>13.0</ele>
        <time>2020-04-18T22:42:00.511Z</time>
      </trkpt>
      <trkpt lat="55.42874992825091" lon="12.182049946859479">
        <ele>11.0</ele>
        <time>2020-04-18T22:42:16.754Z</time>
      </trkpt>
      <trkpt lat="55.433229971677065" lon="12.182379942387342">
        <ele>10.0</ele>
        <time>2020-04-18T22:42:33.069Z</time>
      </trkpt>
      <trkpt lat="55.43370991945267" lon="12.182389916852117">
        <ele>9.0</ele>
        <time>2020-04-18T22:42:49.392Z</time>
      </trkpt>
      <trkpt lat="55.434109987691045" lon="12.182269971817732">
        <ele>8.0</ele>
        <time>2020-04-18T22:43:05.721Z</time>
      </trkpt>
      <trkpt lat="55.4344299249351" lon="12.18202999792993">
        <ele>7.0</ele>
        <time>2020-04-18T22:43:22.056Z</time>
      </trkpt>
      <trkpt lat="55.43503995984793" lon="12.181509984657168">
        <ele>7.0</ele>
        <time>2020-04-18T22:43:38.402Z</time>
      </trkpt>
      <trkpt lat="55.43538998812437" lon="12.181279985234141">
        <ele>6.0</ele>
        <time>2020-04-18T22:43:54.754Z</time>
      </trkpt>
      <trkpt lat="55.43601997196674" lon="12.180989971384406">
        <ele>6.0</ele>
        <time>2020-04-18T22:44:11.116Z</time>
      </trkpt>
      <trkpt lat="55.437869941815734" lon="12.180179944261909">
        <ele>6.0</ele>
        <time>2020-04-18T22:44:27.509Z</time>
      </trkpt>
      <trkpt lat="55.4386299289763" lon="12.179869981482625">
        <ele>6.0</ele>
        <time>2020-04-18T22:44:43.914Z</time>
      </trkpt>
      <trkpt lat="55.43922998942435" lon="12.179659930989146">
        <ele>6.0</ele>
        <time>2020-04-18T22:45:00.329Z</time>
      </trkpt>
      <trkpt lat="55.439999951049685" lon="12.17942993156612">
        <ele>6.0</ele>
        <time>2020-04-18T22:45:16.756Z</time>
      </trkpt>
      <trkpt lat="55.441869953647256" lon="12.179029947146773">
        <ele>6.0</ele>
        <time>2020-04-18T22:45:33.214Z</time>
      </trkpt>
      <trkpt lat="55.44234998524189" lon="12.17899993993342">
        <ele>6.0</ele>
        <time>2020-04-18T22:45:49.679Z</time>
      </trkpt>
      <trkpt lat="55.44299991801381" lon="12.178949983790517">
        <ele>7.0</ele>
        <time>2020-04-18T22:46:06.155Z</time>
      </trkpt>
      <trkpt lat="55.44308993965387" lon="12.178919976577163">
        <ele>7.0</ele>
        <time>2020-04-18T22:46:22.632Z</time>
      </trkpt>
      <trkpt lat="55.444599939510226" lon="12.178059993311763">
        <ele>7.0</ele>
        <time>2020-04-18T22:46:39.135Z</time>
      </trkpt>
      <trkpt lat="55.44511995278299" lon="12.177749946713448">
        <ele>7.0</ele>
        <time>2020-04-18T22:46:55.646Z</time>
      </trkpt>
      <trkpt lat="55.445349952206016" lon="12.177659925073385">
        <ele>6.0</ele>
        <time>2020-04-18T22:47:12.161Z</time>
      </trkpt>
      <trkpt lat="55.4460399504751" lon="12.17751994729042">
        <ele>6.0</ele>
        <time>2020-04-18T22:47:28.687Z</time>
      </trkpt>
      <trkpt lat="55.44642996042967" lon="12.177569987252355">
        <ele>6.0</ele>
        <time>2020-04-18T22:47:45.220Z</time>
      </trkpt>
      <trkpt lat="55.446849977597594" lon="12.177669983357191">
        <ele>6.0</ele>
        <time>2020-04-18T22:48:01.759Z</time>
      </trkpt>
      <trkpt lat="55.447297068312764" lon="12.177799986675382">
        <ele>6.0</ele>
        <time>2020-04-18T22:48:18.306Z</time>
      </trkpt>
      <trkpt lat="55.44729799032211" lon="12.177800321951509">
        <ele>6.0</ele>
        <time>2020-04-18T22:48:34.853Z</time>
      </trkpt>
      <trkpt lat="55.44849995523691" lon="12.178149931132793">
        <ele>6.0</ele>
        <time>2020-04-18T22:48:51.419Z</time>
      </trkpt>
      <trkpt lat="55.449089957401156" lon="12.178369956091046">
        <ele>6.0</ele>
        <time>2020-04-18T22:49:07.995Z</time>
      </trkpt>
      <trkpt lat="55.44922993518412" lon="12.17841999605298">
        <ele>6.0</ele>
        <time>2020-04-18T22:49:24.573Z</time>
      </trkpt>
      <trkpt lat="55.44936999678612" lon="12.177039999514818">
        <ele>6.0</ele>
        <time>2020-04-18T22:49:41.164Z</time>
      </trkpt>
      <trkpt lat="55.44952992349863" lon="12.175769973546267">
        <ele>6.0</ele>
        <time>2020-04-18T22:49:57.767Z</time>
      </trkpt>
      <trkpt lat="55.449599996209145" lon="12.174719972535968">
        <ele>6.0</ele>
        <time>2020-04-18T22:50:14.379Z</time>
      </trkpt>
      <trkpt lat="55.45016996562481" lon="12.174699939787388">
        <ele>6.0</ele>
        <time>2020-04-18T22:50:31.001Z</time>
      </trkpt>
      <trkpt lat="55.45050993561745" lon="12.174649983644485">
        <ele>7.0</ele>
        <time>2020-04-18T22:50:47.628Z</time>
      </trkpt>
      <trkpt lat="55.45074999332428" lon="12.174589969217777">
        <ele>7.0</ele>
        <time>2020-04-18T22:51:04.259Z</time>
      </trkpt>
      <trkpt lat="55.451149977743626" lon="12.174439933151007">
        <ele>7.0</ele>
        <time>2020-04-18T22:51:20.896Z</time>
      </trkpt>
      <trkpt lat="55.451989928260446" lon="12.174029974266887">
        <ele>7.0</ele>
        <time>2020-04-18T22:51:37.547Z</time>
      </trkpt>
      <trkpt lat="55.45276994816959" lon="12.173619931563735">
        <ele>7.0</ele>
        <time>2020-04-18T22:51:54.212Z</time>
      </trkpt>
      <trkpt lat="55.45357997529209" lon="12.173259928822517">
        <ele>7.0</ele>
        <time>2020-04-18T22:52:10.890Z</time>
      </trkpt>
      <trkpt lat="55.45407995581627" lon="12.17306999489665">
        <ele>6.0</ele>
        <time>2020-04-18T22:52:27.576Z</time>
      </trkpt>
      <trkpt lat="55.45459996908903" lon="12.172949966043234">
        <ele>6.0</ele>
        <time>2020-04-18T22:52:44.271Z</time>
      </trkpt>
      <trkpt lat="55.45506994239986" lon="12.1728999260813">
        <ele>6.0</ele>
        <time>2020-04-18T22:53:00.973Z</time>
      </trkpt>
      <trkpt lat="55.45549993403256" lon="12.17293999157846">
        <ele>6.0</ele>
        <time>2020-04-18T22:53:17.682Z</time>
      </trkpt>
      <trkpt lat="55.45599999837577" lon="12.173079969361424">
        <ele>5.0</ele>
        <time>2020-04-18T22:53:34.399Z</time>
      </trkpt>
      <trkpt lat="55.456559993326664" lon="12.173379957675934">
        <ele>5.0</ele>
        <time>2020-04-18T22:53:51.125Z</time>
      </trkpt>
      <trkpt lat="55.4583299998194" lon="12.17433993704617">
        <ele>5.0</ele>
        <time>2020-04-18T22:54:07.881Z</time>
      </trkpt>
      <trkpt lat="55.45925997197628" lon="12.174889957532287">
        <ele>4.0</ele>
        <time>2020-04-18T22:54:24.653Z</time>
      </trkpt>
      <trkpt lat="55.46005994081497" lon="12.175299916416407">
        <ele>4.0</ele>
        <time>2020-04-18T22:54:41.438Z</time>
      </trkpt>
      <trkpt lat="55.46083099208772" lon="12.175740553066134">
        <ele>4.0</ele>
        <time>2020-04-18T22:54:58.236Z</time>
      </trkpt>
      <trkpt lat="55.46083191409707" lon="12.175741055980325">
        <ele>4.0</ele>
        <time>2020-04-18T22:55:15.034Z</time>
      </trkpt>
      <trkpt lat="55.46131999231875" lon="12.176019921898842">
        <ele>4.0</ele>
        <time>2020-04-18T22:55:31.840Z</time>
      </trkpt>
      <trkpt lat="55.4613399412483" lon="12.175879944115877">
        <ele>4.0</ele>
        <time>2020-04-18T22:55:48.648Z</time>
      </trkpt>
      <trkpt lat="55.4613499995321" lon="12.175809955224395">
        <ele>4.0</ele>
        <time>2020-04-18T22:56:05.456Z</time>
      </trkpt>
      <trkpt lat="55.461719976738095" lon="12.175999972969294">
        <ele>4.0</ele>
        <time>2020-04-18T22:56:22.271Z</time>
      </trkpt>
      <trkpt lat="55.46208995394409" lon="12.17622997239232">
        <ele>4.0</ele>
        <time>2020-04-18T22:56:39.092Z</time>
      </trkpt>
      <trkpt lat="55.46249999664724" lon="12.176479920744896">
        <ele>4.0</ele>
        <time>2020-04-18T22:56:55.920Z</time>
      </trkpt>
      <trkpt lat="55.46249999664724" lon="12.176469946280122">
        <ele>4.0</ele>
        <time>2020-04-18T22:57:12.748Z</time>
      </trkpt>
      <trkpt lat="55.46193991787732" lon="12.176139950752258">
        <ele>4.0</ele>
        <time>2020-04-18T22:57:29.585Z</time>
      </trkpt>
      <trkpt lat="55.4613499995321" lon="12.175809955224395">
        <ele>4.0</ele>
        <time>2020-04-18T22:57:46.432Z</time>
      </trkpt>
      <trkpt lat="55.46123994514346" lon="12.175749940797687">
        <ele>4.0</ele>
        <time>2020-04-18T22:58:03.281Z</time>
      </trkpt>
      <trkpt lat="55.46122997067869" lon="12.175809955224395">
        <ele>4.0</ele>
        <time>2020-04-18T22:58:20.131Z</time>
      </trkpt>
      <trkpt lat="55.46120993793011" lon="12.17596996575594">
        <ele>4.0</ele>
        <time>2020-04-18T22:58:36.982Z</time>
      </trkpt>
      <trkpt lat="55.46390991657972" lon="12.177489940077066">
        <ele>4.0</ele>
        <time>2020-04-18T22:58:53.879Z</time>
      </trkpt>
      <trkpt lat="55.46531992033124" lon="12.178279934450984">
        <ele>4.0</ele>
        <time>2020-04-18T22:59:10.799Z</time>
      </trkpt>
      <trkpt lat="55.467519918456674" lon="12.179499920457602">
        <ele>4.0</ele>
        <time>2020-04-18T22:59:27.756Z</time>
      </trkpt>
      <trkpt lat="55.46799995005131" lon="12.179789934307337">
        <ele>4.0</ele>
        <time>2020-04-18T22:59:44.722Z</time>
      </trkpt>
      <trkpt lat="55.468619959428906" lon="12.180179944261909">
        <ele>4.0</ele>
        <time>2020-04-18T23:00:01.698Z</time>
      </trkpt>
      <trkpt lat="55.46972997486591" lon="12.180729964748025">
        <ele>4.0</ele>
        <time>2020-04-18T23:00:18.693Z</time>
      </trkpt>
      <trkpt lat="55.47115992754698" lon="12.181419963017106">
        <ele>4.0</ele>
        <time>2020-04-18T23:00:35.711Z</time>
      </trkpt>
      <trkpt lat="55.472459960728884" lon="12.182049946859479">
        <ele>4.0</ele>
        <time>2020-04-18T23:00:52.751Z</time>
      </trkpt>
      <trkpt lat="55.47377994284034" lon="12.182679930701852">
        <ele>4.0</ele>
        <time>2020-04-18T23:01:09.813Z</time>
      </trkpt>
      <trkpt lat="55.47420993447304" lon="12.182879922911525">
        <ele>4.0</ele>
        <time>2020-04-18T23:01:26.882Z</time>
      </trkpt>
      <trkpt lat="55.47459994442761" lon="12.18307999894023">
        <ele>3.0</ele>
        <time>2020-04-18T23:01:43.958Z</time>
      </trkpt>
      <trkpt lat="55.475969966501" lon="12.18372993171215">
        <ele>3.0</ele>
        <time>2020-04-18T23:02:01.056Z</time>
      </trkpt>
      <trkpt lat="55.47845997847617" lon="12.184949917718768">
        <ele>3.0</ele>
        <time>2020-04-18T23:02:18.196Z</time>
      </trkpt>
      <trkpt lat="55.47933999449015" lon="12.185349985957146">
        <ele>3.0</ele>
        <time>2020-04-18T23:02:35.350Z</time>
      </trkpt>
      <trkpt lat="55.47986998222768" lon="12.185559952631593">
        <ele>4.0</ele>
        <time>2020-04-18T23:02:52.513Z</time>
      </trkpt>
      <trkpt lat="55.48069995827973" lon="12.185999918729067">
        <ele>4.0</ele>
        <time>2020-04-18T23:03:09.690Z</time>
      </trkpt>
      <trkpt lat="55.481829922646284" lon="12.18651993200183">
        <ele>4.0</ele>
        <time>2020-04-18T23:03:26.886Z</time>
      </trkpt>
      <trkpt lat="55.482409950345755" lon="12.186809945851564">
        <ele>4.0</ele>
        <time>2020-04-18T23:03:44.091Z</time>
      </trkpt>
      <trkpt lat="55.48443996347487" lon="12.187749976292253">
        <ele>4.0</ele>
        <time>2020-04-18T23:04:01.330Z</time>
      </trkpt>
      <trkpt lat="55.485699931159616" lon="12.188349952921271">
        <ele>4.0</ele>
        <time>2020-04-18T23:04:18.590Z</time>
      </trkpt>
      <trkpt lat="55.48728997819126" lon="12.189109940081835">
        <ele>4.0</ele>
        <time>2020-04-18T23:04:35.876Z</time>
      </trkpt>
      <trkpt lat="55.48864994198084" lon="12.189729949459434">
        <ele>4.0</ele>
        <time>2020-04-18T23:04:53.185Z</time>
      </trkpt>
      <trkpt lat="55.49315999262035" lon="12.191899940371513">
        <ele>4.0</ele>
        <time>2020-04-18T23:05:10.569Z</time>
      </trkpt>
      <trkpt lat="55.49537993967533" lon="12.192979948595166">
        <ele>4.0</ele>
        <time>2020-04-18T23:05:27.990Z</time>
      </trkpt>
      <trkpt lat="55.49586994573474" lon="12.193219922482967">
        <ele>4.0</ele>
        <time>2020-04-18T23:05:45.419Z</time>
      </trkpt>
      <trkpt lat="55.49668994732201" lon="12.193709928542376">
        <ele>4.0</ele>
        <time>2020-04-18T23:06:02.862Z</time>
      </trkpt>
      <trkpt lat="55.49720996059477" lon="12.194049982354045">
        <ele>4.0</ele>
        <time>2020-04-18T23:06:20.314Z</time>
      </trkpt>
      <trkpt lat="55.49861996434629" lon="12.195119932293892">
        <ele>4.0</ele>
        <time>2020-04-18T23:06:37.790Z</time>
      </trkpt>
      <trkpt lat="55.49923997372389" lon="12.195579931139946">
        <ele>4.0</ele>
        <time>2020-04-18T23:06:55.277Z</time>
      </trkpt>
      <trkpt lat="55.49960995092988" lon="12.195879919454455">
        <ele>4.0</ele>
        <time>2020-04-18T23:07:12.771Z</time>
      </trkpt>
      <trkpt lat="55.50098994746804" lon="12.196909971535206">
        <ele>5.0</ele>
        <time>2020-04-18T23:07:30.289Z</time>
      </trkpt>
      <trkpt lat="55.50140996463597" lon="12.197199985384941">
        <ele>5.0</ele>
        <time>2020-04-18T23:07:47.814Z</time>
      </trkpt>
      <trkpt lat="55.50237991847098" lon="12.19792996533215">
        <ele>5.0</ele>
        <time>2020-04-18T23:08:05.356Z</time>
      </trkpt>
      <trkpt lat="55.50342991948128" lon="12.198739992454648">
        <ele>5.0</ele>
        <time>2020-04-18T23:08:22.916Z</time>
      </trkpt>
      <trkpt lat="55.503829987719655" lon="12.199059929698706">
        <ele>5.0</ele>
        <time>2020-04-18T23:08:40.483Z</time>
      </trkpt>
      <trkpt lat="55.50595999695361" lon="12.200709991157055">
        <ele>5.0</ele>
        <time>2020-04-18T23:08:58.087Z</time>
      </trkpt>
      <trkpt lat="55.5069499835372" lon="12.201499985530972">
        <ele>5.0</ele>
        <time>2020-04-18T23:09:15.709Z</time>
      </trkpt>
      <trkpt lat="55.507849948480725" lon="12.202199958264828">
        <ele>5.0</ele>
        <time>2020-04-18T23:09:33.347Z</time>
      </trkpt>
      <trkpt lat="55.50824993290007" lon="12.202449990436435">
        <ele>5.0</ele>
        <time>2020-04-18T23:09:50.991Z</time>
      </trkpt>
      <trkpt lat="55.5084799323231" lon="12.20256993547082">
        <ele>5.0</ele>
        <time>2020-04-18T23:10:08.639Z</time>
      </trkpt>
      <trkpt lat="55.50959992222488" lon="12.20303999260068">
        <ele>5.0</ele>
        <time>2020-04-18T23:10:26.306Z</time>
      </trkpt>
      <trkpt lat="55.51004994660616" lon="12.203179970383644">
        <ele>5.0</ele>
        <time>2020-04-18T23:10:43.980Z</time>
      </trkpt>
      <trkpt lat="55.51081999205053" lon="12.203549947589636">
        <ele>5.0</ele>
        <time>2020-04-18T23:11:01.667Z</time>
      </trkpt>
      <trkpt lat="55.51159992814064" lon="12.204099968075752">
        <ele>5.0</ele>
        <time>2020-04-18T23:11:19.367Z</time>
      </trkpt>
      <trkpt lat="55.51288998685777" lon="12.205009991303086">
        <ele>5.0</ele>
        <time>2020-04-18T23:11:37.090Z</time>
      </trkpt>
      <trkpt lat="55.5139799695462" lon="12.205669982358813">
        <ele>5.0</ele>
        <time>2020-04-18T23:11:54.831Z</time>
      </trkpt>
      <trkpt lat="55.51442999392748" lon="12.205939963459969">
        <ele>5.0</ele>
        <time>2020-04-18T23:12:12.580Z</time>
      </trkpt>
      <trkpt lat="55.51520993001759" lon="12.206539940088987">
        <ele>5.0</ele>
        <time>2020-04-18T23:12:30.342Z</time>
      </trkpt>
      <trkpt lat="55.51552995108068" lon="12.206829953938723">
        <ele>5.0</ele>
        <time>2020-04-18T23:12:48.110Z</time>
      </trkpt>
      <trkpt lat="55.515949968248606" lon="12.207269920036197">
        <ele>5.0</ele>
        <time>2020-04-18T23:13:05.886Z</time>
      </trkpt>
      <trkpt lat="55.51644994877279" lon="12.207829998806119">
        <ele>5.0</ele>
        <time>2020-04-18T23:13:23.671Z</time>
      </trkpt>
      <trkpt lat="55.51741998642683" lon="12.208969937637448">
        <ele>5.0</ele>
        <time>2020-04-18T23:13:41.475Z</time>
      </trkpt>
      <trkpt lat="55.51793999969959" lon="12.20950998365879">
        <ele>5.0</ele>
        <time>2020-04-18T23:13:59.289Z</time>
      </trkpt>
      <trkpt lat="55.51893996074796" lon="12.210709936916828">
        <ele>5.0</ele>
        <time>2020-04-18T23:14:17.122Z</time>
      </trkpt>
      <trkpt lat="55.51893996074796" lon="12.210739944130182">
        <ele>6.0</ele>
        <time>2020-04-18T23:14:34.956Z</time>
      </trkpt>
      <trkpt lat="55.51893996074796" lon="12.210749918594956">
        <ele>6.0</ele>
        <time>2020-04-18T23:14:52.790Z</time>
      </trkpt>
      <trkpt lat="55.51894993521273" lon="12.210789984092116">
        <ele>6.0</ele>
        <time>2020-04-18T23:15:10.624Z</time>
      </trkpt>
      <trkpt lat="55.51895999349654" lon="12.21081999130547">
        <ele>6.0</ele>
        <time>2020-04-18T23:15:28.458Z</time>
      </trkpt>
      <trkpt lat="55.51898991689086" lon="12.210859972983599">
        <ele>6.0</ele>
        <time>2020-04-18T23:15:46.293Z</time>
      </trkpt>
      <trkpt lat="55.519039956852794" lon="12.210889980196953">
        <ele>6.0</ele>
        <time>2020-04-18T23:16:04.129Z</time>
      </trkpt>
      <trkpt lat="55.51907993853092" lon="12.210879921913147">
        <ele>6.0</ele>
        <time>2020-04-18T23:16:21.965Z</time>
      </trkpt>
      <trkpt lat="55.5190999712795" lon="12.210859972983599">
        <ele>7.0</ele>
        <time>2020-04-18T23:16:39.802Z</time>
      </trkpt>
      <trkpt lat="55.51936995238066" lon="12.211159961298108">
        <ele>7.0</ele>
        <time>2020-04-18T23:16:57.644Z</time>
      </trkpt>
      <trkpt lat="55.519899940118194" lon="12.211739988997579">
        <ele>7.0</ele>
        <time>2020-04-18T23:17:15.496Z</time>
      </trkpt>
      <trkpt lat="55.520399920642376" lon="12.212339965626597">
        <ele>7.0</ele>
        <time>2020-04-18T23:17:33.358Z</time>
      </trkpt>
      <trkpt lat="55.52184998989105" lon="12.213929928839207">
        <ele>7.0</ele>
        <time>2020-04-18T23:17:51.247Z</time>
      </trkpt>
      <trkpt lat="55.52242993377149" lon="12.214499982073903">
        <ele>7.0</ele>
        <time>2020-04-18T23:18:09.147Z</time>
      </trkpt>
      <trkpt lat="55.5229199398309" lon="12.214909940958023">
        <ele>7.0</ele>
        <time>2020-04-18T23:18:27.055Z</time>
      </trkpt>
      <trkpt lat="55.52385997027159" lon="12.215759949758649">
        <ele>7.0</ele>
        <time>2020-04-18T23:18:44.980Z</time>
      </trkpt>
      <trkpt lat="55.52511993795633" lon="12.216789918020368">
        <ele>6.0</ele>
        <time>2020-04-18T23:19:02.928Z</time>
      </trkpt>
      <trkpt lat="55.52511993795633" lon="12.216799976304173">
        <ele>6.0</ele>
        <time>2020-04-18T23:19:20.876Z</time>
      </trkpt>
      <trkpt lat="55.52511993795633" lon="12.216829983517528">
        <ele>6.0</ele>
        <time>2020-04-18T23:19:38.824Z</time>
      </trkpt>
      <trkpt lat="55.52512999624014" lon="12.216849932447076">
        <ele>6.0</ele>
        <time>2020-04-18T23:19:56.772Z</time>
      </trkpt>
      <trkpt lat="55.52513997070491" lon="12.216889997944236">
        <ele>6.0</ele>
        <time>2020-04-18T23:20:14.721Z</time>
      </trkpt>
      <trkpt lat="55.52515991963446" lon="12.216919921338558">
        <ele>6.0</ele>
        <time>2020-04-18T23:20:32.670Z</time>
      </trkpt>
      <trkpt lat="55.525209959596395" lon="12.216949928551912">
        <ele>6.0</ele>
        <time>2020-04-18T23:20:50.620Z</time>
      </trkpt>
      <trkpt lat="55.525249941274524" lon="12.216929979622364">
        <ele>6.0</ele>
        <time>2020-04-18T23:21:08.570Z</time>
      </trkpt>
      <trkpt lat="55.52611998282373" lon="12.217549988999963">
        <ele>6.0</ele>
        <time>2020-04-18T23:21:26.535Z</time>
      </trkpt>
      <trkpt lat="55.527549935504794" lon="12.21848993562162">
        <ele>7.0</ele>
        <time>2020-04-18T23:21:44.525Z</time>
      </trkpt>
      <trkpt lat="55.5293299164623" lon="12.219819976016879">
        <ele>7.0</ele>
        <time>2020-04-18T23:22:02.546Z</time>
      </trkpt>
      <trkpt lat="55.529359923675656" lon="12.219909997656941">
        <ele>7.0</ele>
        <time>2020-04-18T23:22:20.568Z</time>
      </trkpt>
      <trkpt lat="55.52940996363759" lon="12.219959953799844">
        <ele>7.0</ele>
        <time>2020-04-18T23:22:38.591Z</time>
      </trkpt>
      <trkpt lat="55.5294699780643" lon="12.21992994658649">
        <ele>7.0</ele>
        <time>2020-04-18T23:22:56.615Z</time>
      </trkpt>
      <trkpt lat="55.52953996695578" lon="12.21994997933507">
        <ele>6.0</ele>
        <time>2020-04-18T23:23:14.640Z</time>
      </trkpt>
      <trkpt lat="55.530989952385426" lon="12.221029987558722">
        <ele>6.0</ele>
        <time>2020-04-18T23:23:32.690Z</time>
      </trkpt>
      <trkpt lat="55.531479958444834" lon="12.221449920907617">
        <ele>6.0</ele>
        <time>2020-04-18T23:23:50.749Z</time>
      </trkpt>
      <trkpt lat="55.531887402758" lon="12.221806403249502">
        <ele>6.0</ele>
        <time>2020-04-18T23:24:08.815Z</time>
      </trkpt>
    </trkseg>
  </trk>
</gpx>
